<?xml version="1.0" encoding="UTF-8" standalone="no" ?>
<gpx xmlns="http://www.topografix.com/GPX/1/1" xmlns:xsi="http://www.w3.org/2001/XMLSchema-instance" xsi:schemaLocation="http://www.topografix.com/GPX/1/1 http://www.topografix.com/GPX/1/1/gpx.xsd" version="1.1" creator="VisuGPX - https://www.visugpx.com">
  <metadata>
    <name>La Sagne, Mont-Racine</name>
  </metadata>
  <trk>
    <name><![CDATA[La Sagne, Mont-Racine]]></name>
    <extensions>
      <line xmlns="http://www.topografix.com/GPX/gpx_style/0/2">
        <color>0000FF</color>
        <width>4</width>
      </line>
    </extensions>
    <trkseg>
      <trkpt lat="47.03892" lon="6.81191">
        <ele>1042.6</ele>
        <time>2021-06-28T08:05:53.000Z</time>
      </trkpt>
      <trkpt lat="47.03892" lon="6.81191">
        <ele>1042.6</ele>
        <time>2021-06-28T08:05:53.101Z</time>
      </trkpt>
      <trkpt lat="47.03899" lon="6.81204">
        <ele>1042.94</ele>
        <time>2021-06-28T08:06:05.815Z</time>
      </trkpt>
      <trkpt lat="47.03904" lon="6.81218">
        <ele>1043.29</ele>
        <time>2021-06-28T08:06:18.321Z</time>
      </trkpt>
      <trkpt lat="47.03908" lon="6.81234">
        <ele>1043.529999997</ele>
        <time>2021-06-28T08:06:30.003Z</time>
      </trkpt>
      <trkpt lat="47.03917" lon="6.81272">
        <ele>1044.6500000105</ele>
        <time>2021-06-28T08:07:05.727Z</time>
      </trkpt>
      <trkpt lat="47.03923" lon="6.81298">
        <ele>1045.29</ele>
        <time>2021-06-28T08:07:27.944Z</time>
      </trkpt>
      <trkpt lat="47.03927" lon="6.81312">
        <ele>1045.51</ele>
        <time>2021-06-28T08:07:38.421Z</time>
      </trkpt>
      <trkpt lat="47.03932" lon="6.8133">
        <ele>1045.95</ele>
        <time>2021-06-28T08:07:53.947Z</time>
      </trkpt>
      <trkpt lat="47.03935" lon="6.8134">
        <ele>1046.28</ele>
        <time>2021-06-28T08:08:04.168Z</time>
      </trkpt>
      <trkpt lat="47.0394" lon="6.8135">
        <ele>1046.7400000211</ele>
        <time>2021-06-28T08:08:16.580Z</time>
      </trkpt>
      <trkpt lat="47.03945" lon="6.81359">
        <ele>1047.03</ele>
        <time>2021-06-28T08:08:26.293Z</time>
      </trkpt>
      <trkpt lat="47.03953" lon="6.81372">
        <ele>1047.6</ele>
        <time>2021-06-28T08:08:43.067Z</time>
      </trkpt>
      <trkpt lat="47.0396" lon="6.8138">
        <ele>1047.93</ele>
        <time>2021-06-28T08:08:54.040Z</time>
      </trkpt>
      <trkpt lat="47.0397" lon="6.8139">
        <ele>1048.17</ele>
        <time>2021-06-28T08:09:06.099Z</time>
      </trkpt>
      <trkpt lat="47.03981" lon="6.81399">
        <ele>1048.64</ele>
        <time>2021-06-28T08:09:21.703Z</time>
      </trkpt>
      <trkpt lat="47.0399" lon="6.81408">
        <ele>1049.2099999986</ele>
        <time>2021-06-28T08:09:37.474Z</time>
      </trkpt>
      <trkpt lat="47.04003" lon="6.81422">
        <ele>1049.64</ele>
        <time>2021-06-28T08:09:54.873Z</time>
      </trkpt>
      <trkpt lat="47.04018" lon="6.81443">
        <ele>1050.24</ele>
        <time>2021-06-28T08:10:17.877Z</time>
      </trkpt>
      <trkpt lat="47.0403" lon="6.81464">
        <ele>1051.02</ele>
        <time>2021-06-28T08:10:42.543Z</time>
      </trkpt>
      <trkpt lat="47.04047" lon="6.81498">
        <ele>1052.06</ele>
        <time>2021-06-28T08:11:17.597Z</time>
      </trkpt>
      <trkpt lat="47.04056" lon="6.81515">
        <ele>1052.59</ele>
        <time>2021-06-28T08:11:35.477Z</time>
      </trkpt>
      <trkpt lat="47.04064" lon="6.81534">
        <ele>1053.2500000056</ele>
        <time>2021-06-28T08:11:56.066Z</time>
      </trkpt>
      <trkpt lat="47.04071" lon="6.81548">
        <ele>1053.7899999811</ele>
        <time>2021-06-28T08:12:12.469Z</time>
      </trkpt>
      <trkpt lat="47.04098" lon="6.81593">
        <ele>1055.6000000176</ele>
        <time>2021-06-28T08:13:08.539Z</time>
      </trkpt>
      <trkpt lat="47.04107" lon="6.8161">
        <ele>1056.3900000036</ele>
        <time>2021-06-28T08:13:29.998Z</time>
      </trkpt>
      <trkpt lat="47.0411" lon="6.81619">
        <ele>1056.59</ele>
        <time>2021-06-28T08:13:37.607Z</time>
      </trkpt>
      <trkpt lat="47.04116" lon="6.81637">
        <ele>1057.1000000097</ele>
        <time>2021-06-28T08:13:54.533Z</time>
      </trkpt>
      <trkpt lat="47.0412" lon="6.81647">
        <ele>1057.639999981</ele>
        <time>2021-06-28T08:14:07.338Z</time>
      </trkpt>
      <trkpt lat="47.04125" lon="6.81656">
        <ele>1058.0699999819</ele>
        <time>2021-06-28T08:14:18.952Z</time>
      </trkpt>
      <trkpt lat="47.04143" lon="6.81686">
        <ele>1059.3000000035</ele>
        <time>2021-06-28T08:14:56.596Z</time>
      </trkpt>
      <trkpt lat="47.04148" lon="6.81698">
        <ele>1059.5399999963</ele>
        <time>2021-06-28T08:15:06.738Z</time>
      </trkpt>
      <trkpt lat="47.04152" lon="6.81712">
        <ele>1059.8100000175</ele>
        <time>2021-06-28T08:15:17.824Z</time>
      </trkpt>
      <trkpt lat="47.04155" lon="6.81723">
        <ele>1060.1600000038</ele>
        <time>2021-06-28T08:15:28.744Z</time>
      </trkpt>
      <trkpt lat="47.04155" lon="6.81727">
        <ele>1060.2099999943</ele>
        <time>2021-06-28T08:15:31.416Z</time>
      </trkpt>
      <trkpt lat="47.04157" lon="6.8174">
        <ele>1060.68</ele>
        <time>2021-06-28T08:15:44.516Z</time>
      </trkpt>
      <trkpt lat="47.04158" lon="6.81757">
        <ele>1061.2599999795</ele>
        <time>2021-06-28T08:16:01.083Z</time>
      </trkpt>
      <trkpt lat="47.04157" lon="6.81776">
        <ele>1062.1</ele>
        <time>2021-06-28T08:16:21.571Z</time>
      </trkpt>
      <trkpt lat="47.04155" lon="6.81813">
        <ele>1063.1800000237</ele>
        <time>2021-06-28T08:16:55.445Z</time>
      </trkpt>
      <trkpt lat="47.04154" lon="6.81847">
        <ele>1064.93</ele>
        <time>2021-06-28T08:17:35.133Z</time>
      </trkpt>
      <trkpt lat="47.04155" lon="6.81872">
        <ele>1065.63</ele>
        <time>2021-06-28T08:17:57.425Z</time>
      </trkpt>
      <trkpt lat="47.04154" lon="6.81889">
        <ele>1066.39</ele>
        <time>2021-06-28T08:18:15.860Z</time>
      </trkpt>
      <trkpt lat="47.04152" lon="6.81908">
        <ele>1067.0400000053</ele>
        <time>2021-06-28T08:18:34.494Z</time>
      </trkpt>
      <trkpt lat="47.04151" lon="6.81918">
        <ele>1067.5199999967</ele>
        <time>2021-06-28T08:18:45.769Z</time>
      </trkpt>
      <trkpt lat="47.04147" lon="6.81929">
        <ele>1067.5200000036</ele>
        <time>2021-06-28T08:18:52.698Z</time>
      </trkpt>
      <trkpt lat="47.04145" lon="6.81936">
        <ele>1067.9499999814</ele>
        <time>2021-06-28T08:19:02.118Z</time>
      </trkpt>
      <trkpt lat="47.04141" lon="6.81946">
        <ele>1068.2899999924</ele>
        <time>2021-06-28T08:19:12.754Z</time>
      </trkpt>
      <trkpt lat="47.04131" lon="6.81969">
        <ele>1069.56</ele>
        <time>2021-06-28T08:19:42.877Z</time>
      </trkpt>
      <trkpt lat="47.04119" lon="6.81992">
        <ele>1071.05</ele>
        <time>2021-06-28T08:20:16.665Z</time>
      </trkpt>
      <trkpt lat="47.0411" lon="6.82011">
        <ele>1071.73</ele>
        <time>2021-06-28T08:20:37.919Z</time>
      </trkpt>
      <trkpt lat="47.041" lon="6.82028">
        <ele>1072.7699999957</ele>
        <time>2021-06-28T08:21:02.650Z</time>
      </trkpt>
      <trkpt lat="47.0409" lon="6.82046">
        <ele>1074.02</ele>
        <time>2021-06-28T08:21:30.505Z</time>
      </trkpt>
      <trkpt lat="47.04084" lon="6.82055">
        <ele>1074.6</ele>
        <time>2021-06-28T08:21:44.334Z</time>
      </trkpt>
      <trkpt lat="47.04079" lon="6.82061">
        <ele>1074.68</ele>
        <time>2021-06-28T08:21:50.275Z</time>
      </trkpt>
      <trkpt lat="47.04071" lon="6.8207">
        <ele>1075.87</ele>
        <time>2021-06-28T08:22:16.214Z</time>
      </trkpt>
      <trkpt lat="47.04068" lon="6.82075">
        <ele>1076.1299999991</ele>
        <time>2021-06-28T08:22:23.011Z</time>
      </trkpt>
      <trkpt lat="47.04064" lon="6.82082">
        <ele>1076.8100000267</ele>
        <time>2021-06-28T08:22:37.517Z</time>
      </trkpt>
      <trkpt lat="47.04063" lon="6.82089">
        <ele>1077.3599999696</ele>
        <time>2021-06-28T08:22:49.331Z</time>
      </trkpt>
      <trkpt lat="47.04061" lon="6.82098">
        <ele>1078.04</ele>
        <time>2021-06-28T08:23:03.772Z</time>
      </trkpt>
      <trkpt lat="47.0406" lon="6.82112">
        <ele>1078.5800000332</ele>
        <time>2021-06-28T08:23:18.039Z</time>
      </trkpt>
      <trkpt lat="47.04058" lon="6.82122">
        <ele>1079.38</ele>
        <time>2021-06-28T08:23:35.215Z</time>
      </trkpt>
      <trkpt lat="47.04055" lon="6.82136">
        <ele>1080.2200000347</ele>
        <time>2021-06-28T08:23:53.561Z</time>
      </trkpt>
      <trkpt lat="47.04053" lon="6.82146">
        <ele>1080.8700000411</ele>
        <time>2021-06-28T08:24:07.473Z</time>
      </trkpt>
      <trkpt lat="47.04053" lon="6.82156">
        <ele>1081.73</ele>
        <time>2021-06-28T08:24:26.878Z</time>
      </trkpt>
      <trkpt lat="47.04054" lon="6.8217">
        <ele>1082.5</ele>
        <time>2021-06-28T08:24:43.939Z</time>
      </trkpt>
      <trkpt lat="47.04055" lon="6.82174">
        <ele>1083.13</ele>
        <time>2021-06-28T08:24:53.072Z</time>
      </trkpt>
      <trkpt lat="47.04055" lon="6.82175">
        <ele>1083.13</ele>
        <time>2021-06-28T08:24:53.664Z</time>
      </trkpt>
      <trkpt lat="47.04055" lon="6.82174">
        <ele>1083.13</ele>
        <time>2021-06-28T08:24:54.257Z</time>
      </trkpt>
      <trkpt lat="47.04057" lon="6.82189">
        <ele>1083.77</ele>
        <time>2021-06-28T08:25:10.313Z</time>
      </trkpt>
      <trkpt lat="47.04056" lon="6.82197">
        <ele>1084.2999999799</ele>
        <time>2021-06-28T08:25:21.585Z</time>
      </trkpt>
      <trkpt lat="47.04054" lon="6.82216">
        <ele>1085.1899999926</ele>
        <time>2021-06-28T08:25:42.753Z</time>
      </trkpt>
      <trkpt lat="47.0405" lon="6.82237">
        <ele>1085.9199999996</ele>
        <time>2021-06-28T08:26:03.821Z</time>
      </trkpt>
      <trkpt lat="47.04042" lon="6.82262">
        <ele>1086.94</ele>
        <time>2021-06-28T08:26:31.416Z</time>
      </trkpt>
      <trkpt lat="47.04036" lon="6.82274">
        <ele>1087.44</ele>
        <time>2021-06-28T08:26:45.812Z</time>
      </trkpt>
      <trkpt lat="47.04029" lon="6.82282">
        <ele>1087.98</ele>
        <time>2021-06-28T08:26:59.432Z</time>
      </trkpt>
      <trkpt lat="47.04016" lon="6.82294">
        <ele>1088.9400000016</ele>
        <time>2021-06-28T08:27:23.286Z</time>
      </trkpt>
      <trkpt lat="47.0401" lon="6.82299">
        <ele>1089.56</ele>
        <time>2021-06-28T08:27:36.601Z</time>
      </trkpt>
      <trkpt lat="47.04008" lon="6.823">
        <ele>1089.56</ele>
        <time>2021-06-28T08:27:38.324Z</time>
      </trkpt>
      <trkpt lat="47.04005" lon="6.82303">
        <ele>1089.78</ele>
        <time>2021-06-28T08:27:43.887Z</time>
      </trkpt>
      <trkpt lat="47.04002" lon="6.82306">
        <ele>1090.08</ele>
        <time>2021-06-28T08:27:50.472Z</time>
      </trkpt>
      <trkpt lat="47.04001" lon="6.82308">
        <ele>1090.1400000003</ele>
        <time>2021-06-28T08:27:52.514Z</time>
      </trkpt>
      <trkpt lat="47.04001" lon="6.8231">
        <ele>1090.18</ele>
        <time>2021-06-28T08:27:54.034Z</time>
      </trkpt>
      <trkpt lat="47.04" lon="6.82312">
        <ele>1090.28</ele>
        <time>2021-06-28T08:27:56.598Z</time>
      </trkpt>
      <trkpt lat="47.03998" lon="6.82322">
        <ele>1090.7300000103</ele>
        <time>2021-06-28T08:28:07.697Z</time>
      </trkpt>
      <trkpt lat="47.03997" lon="6.82326">
        <ele>1090.9199999776</ele>
        <time>2021-06-28T08:28:12.303Z</time>
      </trkpt>
      <trkpt lat="47.03996" lon="6.82334">
        <ele>1091.35</ele>
        <time>2021-06-28T08:28:21.949Z</time>
      </trkpt>
      <trkpt lat="47.03995" lon="6.8234">
        <ele>1091.5299999923</ele>
        <time>2021-06-28T08:28:27.592Z</time>
      </trkpt>
      <trkpt lat="47.03995" lon="6.82351">
        <ele>1091.9899999737</ele>
        <time>2021-06-28T08:28:39.141Z</time>
      </trkpt>
      <trkpt lat="47.03995" lon="6.82363">
        <ele>1092.319999992</ele>
        <time>2021-06-28T08:28:49.719Z</time>
      </trkpt>
      <trkpt lat="47.03997" lon="6.82376">
        <ele>1092.65</ele>
        <time>2021-06-28T08:29:00.820Z</time>
      </trkpt>
      <trkpt lat="47.04" lon="6.82386">
        <ele>1093.06</ele>
        <time>2021-06-28T08:29:11.801Z</time>
      </trkpt>
      <trkpt lat="47.04006" lon="6.82396">
        <ele>1093.63999998</ele>
        <time>2021-06-28T08:29:26.043Z</time>
      </trkpt>
      <trkpt lat="47.04018" lon="6.82412">
        <ele>1094.5799999833</ele>
        <time>2021-06-28T08:29:50.436Z</time>
      </trkpt>
      <trkpt lat="47.04033" lon="6.82428">
        <ele>1095.77</ele>
        <time>2021-06-28T08:30:19.584Z</time>
      </trkpt>
      <trkpt lat="47.04038" lon="6.82436">
        <ele>1096.1400000074</ele>
        <time>2021-06-28T08:30:30.133Z</time>
      </trkpt>
      <trkpt lat="47.04041" lon="6.82443">
        <ele>1096.6499999638</ele>
        <time>2021-06-28T08:30:41.071Z</time>
      </trkpt>
      <trkpt lat="47.04043" lon="6.82452">
        <ele>1096.96</ele>
        <time>2021-06-28T08:30:50.154Z</time>
      </trkpt>
      <trkpt lat="47.04046" lon="6.82471">
        <ele>1098.21</ele>
        <time>2021-06-28T08:31:16.793Z</time>
      </trkpt>
      <trkpt lat="47.0405" lon="6.82483">
        <ele>1098.7800000161</ele>
        <time>2021-06-28T08:31:30.943Z</time>
      </trkpt>
      <trkpt lat="47.04056" lon="6.82492">
        <ele>1099.34</ele>
        <time>2021-06-28T08:31:44.537Z</time>
      </trkpt>
      <trkpt lat="47.04062" lon="6.82498">
        <ele>1099.7199999859</ele>
        <time>2021-06-28T08:31:55.051Z</time>
      </trkpt>
      <trkpt lat="47.04078" lon="6.8251">
        <ele>1100.7500000614</ele>
        <time>2021-06-28T08:32:21.963Z</time>
      </trkpt>
      <trkpt lat="47.04091" lon="6.8252">
        <ele>1102.38</ele>
        <time>2021-06-28T08:32:56.845Z</time>
      </trkpt>
      <trkpt lat="47.04095" lon="6.82523">
        <ele>1102.7399999897</ele>
        <time>2021-06-28T08:33:04.826Z</time>
      </trkpt>
      <trkpt lat="47.04099" lon="6.82528">
        <ele>1103.36</ele>
        <time>2021-06-28T08:33:18.338Z</time>
      </trkpt>
      <trkpt lat="47.04103" lon="6.82534">
        <ele>1103.8899999991</ele>
        <time>2021-06-28T08:33:29.658Z</time>
      </trkpt>
      <trkpt lat="47.04106" lon="6.82543">
        <ele>1104.82</ele>
        <time>2021-06-28T08:33:51.133Z</time>
      </trkpt>
      <trkpt lat="47.04111" lon="6.82555">
        <ele>1106.1299999222</ele>
        <time>2021-06-28T08:34:21.281Z</time>
      </trkpt>
      <trkpt lat="47.04117" lon="6.82566">
        <ele>1106.5399999913</ele>
        <time>2021-06-28T08:34:34.141Z</time>
      </trkpt>
      <trkpt lat="47.04125" lon="6.82576">
        <ele>1107.1</ele>
        <time>2021-06-28T08:34:49.455Z</time>
      </trkpt>
      <trkpt lat="47.04142" lon="6.82593">
        <ele>1109.3299999961</ele>
        <time>2021-06-28T08:35:36.969Z</time>
      </trkpt>
      <trkpt lat="47.0416" lon="6.82611">
        <ele>1111.52</ele>
        <time>2021-06-28T08:36:23.404Z</time>
      </trkpt>
      <trkpt lat="47.04174" lon="6.82622">
        <ele>1112.75</ele>
        <time>2021-06-28T08:36:51.014Z</time>
      </trkpt>
      <trkpt lat="47.04194" lon="6.82637">
        <ele>1114.45</ele>
        <time>2021-06-28T08:37:29.521Z</time>
      </trkpt>
      <trkpt lat="47.04241" lon="6.82678">
        <ele>1117.470000023</ele>
        <time>2021-06-28T08:38:50.252Z</time>
      </trkpt>
      <trkpt lat="47.04263" lon="6.82696">
        <ele>1118.8</ele>
        <time>2021-06-28T08:39:26.839Z</time>
      </trkpt>
      <trkpt lat="47.04264" lon="6.82696">
        <ele>1118.8</ele>
        <time>2021-06-28T08:39:27.332Z</time>
      </trkpt>
      <trkpt lat="47.04263" lon="6.82696">
        <ele>1118.8</ele>
        <time>2021-06-28T08:39:27.826Z</time>
      </trkpt>
      <trkpt lat="47.04284" lon="6.82712">
        <ele>1120.1400000116</ele>
        <time>2021-06-28T08:40:03.097Z</time>
      </trkpt>
      <trkpt lat="47.04299" lon="6.82725">
        <ele>1121.38</ele>
        <time>2021-06-28T08:40:31.939Z</time>
      </trkpt>
      <trkpt lat="47.04312" lon="6.82739">
        <ele>1122.7200000301</ele>
        <time>2021-06-28T08:41:01.298Z</time>
      </trkpt>
      <trkpt lat="47.04323" lon="6.82748">
        <ele>1123.72</ele>
        <time>2021-06-28T08:41:23.541Z</time>
      </trkpt>
      <trkpt lat="47.04328" lon="6.82752">
        <ele>1123.9799999985</ele>
        <time>2021-06-28T08:41:31.436Z</time>
      </trkpt>
      <trkpt lat="47.04342" lon="6.82758">
        <ele>1125.21</ele>
        <time>2021-06-28T08:41:58.268Z</time>
      </trkpt>
      <trkpt lat="47.04352" lon="6.82762">
        <ele>1125.98</ele>
        <time>2021-06-28T08:42:15.844Z</time>
      </trkpt>
      <trkpt lat="47.04357" lon="6.82765">
        <ele>1126.28</ele>
        <time>2021-06-28T08:42:23.836Z</time>
      </trkpt>
      <trkpt lat="47.04381" lon="6.82785">
        <ele>1127.51</ele>
        <time>2021-06-28T08:43:01.837Z</time>
      </trkpt>
      <trkpt lat="47.04422" lon="6.82816">
        <ele>1129.44</ele>
        <time>2021-06-28T08:44:02.823Z</time>
      </trkpt>
      <trkpt lat="47.04442" lon="6.82827">
        <ele>1130.27</ele>
        <time>2021-06-28T08:44:29.865Z</time>
      </trkpt>
      <trkpt lat="47.04463" lon="6.82837">
        <ele>1131.0499999937</ele>
        <time>2021-06-28T08:44:56.482Z</time>
      </trkpt>
      <trkpt lat="47.04505" lon="6.8286">
        <ele>1133.64</ele>
        <time>2021-06-28T08:46:03.834Z</time>
      </trkpt>
      <trkpt lat="47.04537" lon="6.82875">
        <ele>1135.72</ele>
        <time>2021-06-28T08:46:55.789Z</time>
      </trkpt>
      <trkpt lat="47.04564" lon="6.82889">
        <ele>1137.54</ele>
        <time>2021-06-28T08:47:40.601Z</time>
      </trkpt>
      <trkpt lat="47.04577" lon="6.82897">
        <ele>1138.48</ele>
        <time>2021-06-28T08:48:03.167Z</time>
      </trkpt>
      <trkpt lat="47.04589" lon="6.82906">
        <ele>1139.2599999924</ele>
        <time>2021-06-28T08:48:23.429Z</time>
      </trkpt>
      <trkpt lat="47.04621" lon="6.82932">
        <ele>1141.0599999901</ele>
        <time>2021-06-28T08:49:15.314Z</time>
      </trkpt>
      <trkpt lat="47.04663" lon="6.82968">
        <ele>1143.9500000278</ele>
        <time>2021-06-28T08:50:29.228Z</time>
      </trkpt>
      <trkpt lat="47.04683" lon="6.82983">
        <ele>1145.46</ele>
        <time>2021-06-28T08:51:05.328Z</time>
      </trkpt>
      <trkpt lat="47.04694" lon="6.82993">
        <ele>1146.33</ele>
        <time>2021-06-28T08:51:26.127Z</time>
      </trkpt>
      <trkpt lat="47.04725" lon="6.83024">
        <ele>1148.5800000385</ele>
        <time>2021-06-28T08:52:23.357Z</time>
      </trkpt>
      <trkpt lat="47.04739" lon="6.83037">
        <ele>1149.69</ele>
        <time>2021-06-28T08:52:49.941Z</time>
      </trkpt>
      <trkpt lat="47.04745" lon="6.83044">
        <ele>1150.14</ele>
        <time>2021-06-28T08:53:01.531Z</time>
      </trkpt>
      <trkpt lat="47.04752" lon="6.83054">
        <ele>1150.809999992</ele>
        <time>2021-06-28T08:53:17.392Z</time>
      </trkpt>
      <trkpt lat="47.04764" lon="6.83074">
        <ele>1151.8</ele>
        <time>2021-06-28T08:53:44.073Z</time>
      </trkpt>
      <trkpt lat="47.04801" lon="6.83124">
        <ele>1154.69</ele>
        <time>2021-06-28T08:54:59.474Z</time>
      </trkpt>
      <trkpt lat="47.04812" lon="6.83138">
        <ele>1155.87</ele>
        <time>2021-06-28T08:55:25.536Z</time>
      </trkpt>
      <trkpt lat="47.04816" lon="6.83143">
        <ele>1156.28</ele>
        <time>2021-06-28T08:55:34.713Z</time>
      </trkpt>
      <trkpt lat="47.04833" lon="6.83156">
        <ele>1157.95</ele>
        <time>2021-06-28T08:56:10.830Z</time>
      </trkpt>
      <trkpt lat="47.04846" lon="6.83166">
        <ele>1159.35</ele>
        <time>2021-06-28T08:56:40.615Z</time>
      </trkpt>
      <trkpt lat="47.04862" lon="6.83177">
        <ele>1161.21</ele>
        <time>2021-06-28T08:57:20.112Z</time>
      </trkpt>
      <trkpt lat="47.04897" lon="6.83194">
        <ele>1164.78</ele>
        <time>2021-06-28T08:58:35.952Z</time>
      </trkpt>
      <trkpt lat="47.04907" lon="6.832">
        <ele>1165.97</ele>
        <time>2021-06-28T08:59:01.376Z</time>
      </trkpt>
      <trkpt lat="47.04955" lon="6.83228">
        <ele>1170.97</ele>
        <time>2021-06-28T09:00:47.598Z</time>
      </trkpt>
      <trkpt lat="47.04962" lon="6.83232">
        <ele>1171.88</ele>
        <time>2021-06-28T09:01:07.660Z</time>
      </trkpt>
      <trkpt lat="47.04983" lon="6.83239">
        <ele>1174.06999996</ele>
        <time>2021-06-28T09:01:54.094Z</time>
      </trkpt>
      <trkpt lat="47.05006" lon="6.83251">
        <ele>1176.5700000261</ele>
        <time>2021-06-28T09:02:47.106Z</time>
      </trkpt>
      <trkpt lat="47.05024" lon="6.83261">
        <ele>1178.58</ele>
        <time>2021-06-28T09:03:29.763Z</time>
      </trkpt>
      <trkpt lat="47.05036" lon="6.83265">
        <ele>1179.9400000018</ele>
        <time>2021-06-28T09:03:58.838Z</time>
      </trkpt>
      <trkpt lat="47.05047" lon="6.83268">
        <ele>1181.0099999785</ele>
        <time>2021-06-28T09:04:21.596Z</time>
      </trkpt>
      <trkpt lat="47.05059" lon="6.83275">
        <ele>1182.49</ele>
        <time>2021-06-28T09:04:53.526Z</time>
      </trkpt>
      <trkpt lat="47.05081" lon="6.83292">
        <ele>1185</ele>
        <time>2021-06-28T09:05:46.744Z</time>
      </trkpt>
      <trkpt lat="47.05116" lon="6.83315">
        <ele>1188.88</ele>
        <time>2021-06-28T09:07:09.009Z</time>
      </trkpt>
      <trkpt lat="47.05134" lon="6.83329">
        <ele>1191.0500000485</ele>
        <time>2021-06-28T09:07:55.140Z</time>
      </trkpt>
      <trkpt lat="47.05151" lon="6.83343">
        <ele>1193.15</ele>
        <time>2021-06-28T09:08:39.844Z</time>
      </trkpt>
      <trkpt lat="47.05171" lon="6.83362">
        <ele>1195.5</ele>
        <time>2021-06-28T09:09:29.704Z</time>
      </trkpt>
      <trkpt lat="47.0518" lon="6.83371">
        <ele>1196.79</ele>
        <time>2021-06-28T09:09:57.861Z</time>
      </trkpt>
      <trkpt lat="47.05187" lon="6.83379">
        <ele>1197.8199999806</ele>
        <time>2021-06-28T09:10:20.175Z</time>
      </trkpt>
      <trkpt lat="47.05198" lon="6.83388">
        <ele>1198.84</ele>
        <time>2021-06-28T09:10:42.707Z</time>
      </trkpt>
      <trkpt lat="47.05209" lon="6.83396">
        <ele>1199.8399999961</ele>
        <time>2021-06-28T09:11:04.756Z</time>
      </trkpt>
      <trkpt lat="47.05223" lon="6.83409">
        <ele>1200.8599999849</ele>
        <time>2021-06-28T09:11:30.316Z</time>
      </trkpt>
      <trkpt lat="47.05239" lon="6.83423">
        <ele>1202.2000000007</ele>
        <time>2021-06-28T09:12:01.334Z</time>
      </trkpt>
      <trkpt lat="47.05253" lon="6.83436">
        <ele>1202.89</ele>
        <time>2021-06-28T09:12:23.177Z</time>
      </trkpt>
      <trkpt lat="47.05257" lon="6.8344">
        <ele>1203.23</ele>
        <time>2021-06-28T09:12:31.133Z</time>
      </trkpt>
      <trkpt lat="47.05261" lon="6.83445">
        <ele>1203.6399999675</ele>
        <time>2021-06-28T09:12:40.311Z</time>
      </trkpt>
      <trkpt lat="47.05276" lon="6.83468">
        <ele>1205.26</ele>
        <time>2021-06-28T09:13:17.208Z</time>
      </trkpt>
      <trkpt lat="47.05289" lon="6.83492">
        <ele>1206.95</ele>
        <time>2021-06-28T09:13:54.555Z</time>
      </trkpt>
      <trkpt lat="47.053" lon="6.83511">
        <ele>1208.2499999942</ele>
        <time>2021-06-28T09:14:23.873Z</time>
      </trkpt>
      <trkpt lat="47.05315" lon="6.83531">
        <ele>1209.95</ele>
        <time>2021-06-28T09:15:01.015Z</time>
      </trkpt>
      <trkpt lat="47.05341" lon="6.83559">
        <ele>1213.84</ele>
        <time>2021-06-28T09:16:26.604Z</time>
      </trkpt>
      <trkpt lat="47.0536" lon="6.83582">
        <ele>1216.35</ele>
        <time>2021-06-28T09:17:19.823Z</time>
      </trkpt>
      <trkpt lat="47.05384" lon="6.83613">
        <ele>1220.96</ele>
        <time>2021-06-28T09:19:00.379Z</time>
      </trkpt>
      <trkpt lat="47.05416" lon="6.83653">
        <ele>1226.54</ele>
        <time>2021-06-28T09:21:11.300Z</time>
      </trkpt>
      <trkpt lat="47.05425" lon="6.83662">
        <ele>1228.33</ele>
        <time>2021-06-28T09:21:45.554Z</time>
      </trkpt>
      <trkpt lat="47.05429" lon="6.83667">
        <ele>1228.16</ele>
        <time>2021-06-28T09:21:46.834Z</time>
      </trkpt>
      <trkpt lat="47.05431" lon="6.83671">
        <ele>1228.81</ele>
        <time>2021-06-28T09:21:57.466Z</time>
      </trkpt>
      <trkpt lat="47.05436" lon="6.8368">
        <ele>1229.12</ele>
        <time>2021-06-28T09:22:07.530Z</time>
      </trkpt>
      <trkpt lat="47.05439" lon="6.83689">
        <ele>1229.5399999943</ele>
        <time>2021-06-28T09:22:18.058Z</time>
      </trkpt>
      <trkpt lat="47.05464" lon="6.83754">
        <ele>1233.45</ele>
        <time>2021-06-28T09:23:46.075Z</time>
      </trkpt>
      <trkpt lat="47.05469" lon="6.83768">
        <ele>1234.79</ele>
        <time>2021-06-28T09:24:16.046Z</time>
      </trkpt>
      <trkpt lat="47.05479" lon="6.83791">
        <ele>1236.9600000018</ele>
        <time>2021-06-28T09:25:03.147Z</time>
      </trkpt>
      <trkpt lat="47.05481" lon="6.838">
        <ele>1237.8</ele>
        <time>2021-06-28T09:25:22.538Z</time>
      </trkpt>
      <trkpt lat="47.05481" lon="6.83803">
        <ele>1238.05999997</ele>
        <time>2021-06-28T09:25:28.436Z</time>
      </trkpt>
      <trkpt lat="47.05482" lon="6.83806">
        <ele>1238.28</ele>
        <time>2021-06-28T09:25:33.110Z</time>
      </trkpt>
      <trkpt lat="47.05482" lon="6.83811">
        <ele>1238.68</ele>
        <time>2021-06-28T09:25:41.811Z</time>
      </trkpt>
      <trkpt lat="47.05481" lon="6.83814">
        <ele>1238.8499999905</ele>
        <time>2021-06-28T09:25:45.682Z</time>
      </trkpt>
      <trkpt lat="47.05481" lon="6.83821">
        <ele>1239.33</ele>
        <time>2021-06-28T09:25:55.860Z</time>
      </trkpt>
      <trkpt lat="47.05477" lon="6.83845">
        <ele>1240.8499999814</ele>
        <time>2021-06-28T09:26:28.473Z</time>
      </trkpt>
      <trkpt lat="47.05473" lon="6.83873">
        <ele>1242.9600000615</ele>
        <time>2021-06-28T09:27:13.421Z</time>
      </trkpt>
      <trkpt lat="47.05472" lon="6.83879">
        <ele>1243.53</ele>
        <time>2021-06-28T09:27:26.657Z</time>
      </trkpt>
      <trkpt lat="47.05472" lon="6.83886">
        <ele>1244.17</ele>
        <time>2021-06-28T09:27:41.658Z</time>
      </trkpt>
      <trkpt lat="47.05472" lon="6.8389">
        <ele>1244.4999999678</ele>
        <time>2021-06-28T09:27:48.932Z</time>
      </trkpt>
      <trkpt lat="47.05476" lon="6.83926">
        <ele>1248.05</ele>
        <time>2021-06-28T09:29:07.095Z</time>
      </trkpt>
      <trkpt lat="47.05479" lon="6.83944">
        <ele>1249.2800000434</ele>
        <time>2021-06-28T09:29:33.212Z</time>
      </trkpt>
      <trkpt lat="47.0548" lon="6.83954">
        <ele>1250.14</ele>
        <time>2021-06-28T09:29:52.491Z</time>
      </trkpt>
      <trkpt lat="47.05485" lon="6.83972">
        <ele>1251.49</ele>
        <time>2021-06-28T09:30:21.115Z</time>
      </trkpt>
      <trkpt lat="47.05491" lon="6.8399">
        <ele>1253.23</ele>
        <time>2021-06-28T09:31:00.638Z</time>
      </trkpt>
      <trkpt lat="47.05499" lon="6.84029">
        <ele>1257.43</ele>
        <time>2021-06-28T09:32:27.916Z</time>
      </trkpt>
      <trkpt lat="47.05501" lon="6.84038">
        <ele>1258.81</ele>
        <time>2021-06-28T09:32:48.202Z</time>
      </trkpt>
      <trkpt lat="47.05505" lon="6.84047">
        <ele>1260.28</ele>
        <time>2021-06-28T09:33:11.229Z</time>
      </trkpt>
      <trkpt lat="47.05512" lon="6.84056">
        <ele>1261.7299999244</ele>
        <time>2021-06-28T09:33:40.499Z</time>
      </trkpt>
      <trkpt lat="47.05529" lon="6.84076">
        <ele>1263.9300000346</ele>
        <time>2021-06-28T09:34:27.144Z</time>
      </trkpt>
      <trkpt lat="47.05526" lon="6.84084">
        <ele>1264.4300000015</ele>
        <time>2021-06-28T09:34:38.219Z</time>
      </trkpt>
      <trkpt lat="47.05525" lon="6.84087">
        <ele>1264.5</ele>
        <time>2021-06-28T09:34:40.802Z</time>
      </trkpt>
      <trkpt lat="47.05523" lon="6.84093">
        <ele>1265.28</ele>
        <time>2021-06-28T09:34:55.116Z</time>
      </trkpt>
      <trkpt lat="47.05521" lon="6.84102">
        <ele>1266.2600000402</ele>
        <time>2021-06-28T09:35:15.402Z</time>
      </trkpt>
      <trkpt lat="47.0552" lon="6.84111">
        <ele>1267.050000028</ele>
        <time>2021-06-28T09:35:33.318Z</time>
      </trkpt>
      <trkpt lat="47.0552" lon="6.84119">
        <ele>1268.0299999957</ele>
        <time>2021-06-28T09:35:50.461Z</time>
      </trkpt>
      <trkpt lat="47.05521" lon="6.84127">
        <ele>1268.609999997</ele>
        <time>2021-06-28T09:36:02.772Z</time>
      </trkpt>
      <trkpt lat="47.05524" lon="6.84167">
        <ele>1271.7500000294</ele>
        <time>2021-06-28T09:37:10.500Z</time>
      </trkpt>
      <trkpt lat="47.05525" lon="6.84179">
        <ele>1272.73</ele>
        <time>2021-06-28T09:37:31.930Z</time>
      </trkpt>
      <trkpt lat="47.05527" lon="6.84195">
        <ele>1274.11</ele>
        <time>2021-06-28T09:38:02.810Z</time>
      </trkpt>
      <trkpt lat="47.0553" lon="6.84212">
        <ele>1275.5900000034</ele>
        <time>2021-06-28T09:38:35.801Z</time>
      </trkpt>
      <trkpt lat="47.05533" lon="6.84226">
        <ele>1276.7099999931</ele>
        <time>2021-06-28T09:38:59.815Z</time>
      </trkpt>
      <trkpt lat="47.05553" lon="6.84291">
        <ele>1282.9400000328</ele>
        <time>2021-06-28T09:41:21.926Z</time>
      </trkpt>
      <trkpt lat="47.05559" lon="6.84312">
        <ele>1284.8999999829</ele>
        <time>2021-06-28T09:42:06.183Z</time>
      </trkpt>
      <trkpt lat="47.0557" lon="6.84345">
        <ele>1288.8100000285</ele>
        <time>2021-06-28T09:43:24.908Z</time>
      </trkpt>
      <trkpt lat="47.05575" lon="6.84366">
        <ele>1290.39</ele>
        <time>2021-06-28T09:43:58.436Z</time>
      </trkpt>
      <trkpt lat="47.05581" lon="6.8439">
        <ele>1293.53</ele>
        <time>2021-06-28T09:44:53.218Z</time>
      </trkpt>
      <trkpt lat="47.05595" lon="6.84438">
        <ele>1297.85</ele>
        <time>2021-06-28T09:46:28.577Z</time>
      </trkpt>
      <trkpt lat="47.05605" lon="6.84471">
        <ele>1300.9900000148</ele>
        <time>2021-06-28T09:47:39.962Z</time>
      </trkpt>
      <trkpt lat="47.05612" lon="6.84493">
        <ele>1302.95</ele>
        <time>2021-06-28T09:48:22.748Z</time>
      </trkpt>
      <trkpt lat="47.05617" lon="6.84511">
        <ele>1304.9100000245</ele>
        <time>2021-06-28T09:49:04.402Z</time>
      </trkpt>
      <trkpt lat="47.05622" lon="6.84529">
        <ele>1306.29</ele>
        <time>2021-06-28T09:49:33.685Z</time>
      </trkpt>
      <trkpt lat="47.05633" lon="6.8457">
        <ele>1309.82</ele>
        <time>2021-06-28T09:50:50.512Z</time>
      </trkpt>
      <trkpt lat="47.05635" lon="6.84581">
        <ele>1310.800000027</ele>
        <time>2021-06-28T09:51:12.642Z</time>
      </trkpt>
      <trkpt lat="47.05636" lon="6.84588">
        <ele>1311.4699999881</ele>
        <time>2021-06-28T09:51:27.968Z</time>
      </trkpt>
      <trkpt lat="47.05634" lon="6.84597">
        <ele>1311.97</ele>
        <time>2021-06-28T09:51:39.188Z</time>
      </trkpt>
      <trkpt lat="47.0563" lon="6.84606">
        <ele>1313.15</ele>
        <time>2021-06-28T09:52:02.214Z</time>
      </trkpt>
      <trkpt lat="47.05629" lon="6.84612">
        <ele>1313.5499999587</ele>
        <time>2021-06-28T09:52:10.727Z</time>
      </trkpt>
      <trkpt lat="47.05628" lon="6.8462">
        <ele>1313.94</ele>
        <time>2021-06-28T09:52:19.846Z</time>
      </trkpt>
      <trkpt lat="47.05629" lon="6.84628">
        <ele>1314.5299999529</ele>
        <time>2021-06-28T09:52:32.388Z</time>
      </trkpt>
      <trkpt lat="47.05632" lon="6.84641">
        <ele>1315.3099999619</ele>
        <time>2021-06-28T09:52:49.459Z</time>
      </trkpt>
      <trkpt lat="47.05639" lon="6.84669">
        <ele>1317.0800000193</ele>
        <time>2021-06-28T09:53:27.739Z</time>
      </trkpt>
      <trkpt lat="47.05641" lon="6.84681">
        <ele>1317.6699999756</ele>
        <time>2021-06-28T09:53:41.560Z</time>
      </trkpt>
      <trkpt lat="47.05643" lon="6.84705">
        <ele>1318.65</ele>
        <time>2021-06-28T09:54:06.605Z</time>
      </trkpt>
      <trkpt lat="47.05645" lon="6.84726">
        <ele>1319.43</ele>
        <time>2021-06-28T09:54:27.757Z</time>
      </trkpt>
      <trkpt lat="47.05646" lon="6.84739">
        <ele>1320.2200000107</ele>
        <time>2021-06-28T09:54:44.773Z</time>
      </trkpt>
      <trkpt lat="47.05646" lon="6.84752">
        <ele>1321.2</ele>
        <time>2021-06-28T09:55:05.729Z</time>
      </trkpt>
      <trkpt lat="47.05646" lon="6.84767">
        <ele>1321.98</ele>
        <time>2021-06-28T09:55:23.338Z</time>
      </trkpt>
      <trkpt lat="47.05647" lon="6.84778">
        <ele>1322.57</ele>
        <time>2021-06-28T09:55:36.544Z</time>
      </trkpt>
      <trkpt lat="47.05649" lon="6.84793">
        <ele>1322.96</ele>
        <time>2021-06-28T09:55:49.470Z</time>
      </trkpt>
      <trkpt lat="47.05654" lon="6.84817">
        <ele>1323.94</ele>
        <time>2021-06-28T09:56:15.077Z</time>
      </trkpt>
      <trkpt lat="47.05654" lon="6.84829">
        <ele>1324.5699999888</ele>
        <time>2021-06-28T09:56:29.246Z</time>
      </trkpt>
      <trkpt lat="47.05655" lon="6.84842">
        <ele>1325.05</ele>
        <time>2021-06-28T09:56:42.284Z</time>
      </trkpt>
      <trkpt lat="47.05658" lon="6.84866">
        <ele>1325.95</ele>
        <time>2021-06-28T09:57:06.648Z</time>
      </trkpt>
      <trkpt lat="47.05659" lon="6.84891">
        <ele>1326.75</ele>
        <time>2021-06-28T09:57:30.489Z</time>
      </trkpt>
      <trkpt lat="47.0566" lon="6.84907">
        <ele>1327.29</ele>
        <time>2021-06-28T09:57:46.029Z</time>
      </trkpt>
      <trkpt lat="47.05661" lon="6.84954">
        <ele>1328.8800000026</ele>
        <time>2021-06-28T09:58:31.597Z</time>
      </trkpt>
      <trkpt lat="47.05661" lon="6.84967">
        <ele>1329.5999999774</ele>
        <time>2021-06-28T09:58:47.483Z</time>
      </trkpt>
      <trkpt lat="47.05661" lon="6.84984">
        <ele>1330.150000006</ele>
        <time>2021-06-28T09:59:03.729Z</time>
      </trkpt>
      <trkpt lat="47.05661" lon="6.84989">
        <ele>1330.4999999852</ele>
        <time>2021-06-28T09:59:11.152Z</time>
      </trkpt>
      <trkpt lat="47.0566" lon="6.84997">
        <ele>1331.0499999885</ele>
        <time>2021-06-28T09:59:22.818Z</time>
      </trkpt>
      <trkpt lat="47.05657" lon="6.85008">
        <ele>1332.11</ele>
        <time>2021-06-28T09:59:47.453Z</time>
      </trkpt>
      <trkpt lat="47.05652" lon="6.85022">
        <ele>1332.82</ele>
        <time>2021-06-28T10:00:04.597Z</time>
      </trkpt>
      <trkpt lat="47.05635" lon="6.85054">
        <ele>1334.3300000117</ele>
        <time>2021-06-28T10:00:45.247Z</time>
      </trkpt>
      <trkpt lat="47.05633" lon="6.8506">
        <ele>1334.429999999</ele>
        <time>2021-06-28T10:00:49.893Z</time>
      </trkpt>
      <trkpt lat="47.05628" lon="6.85069">
        <ele>1334.6</ele>
        <time>2021-06-28T10:00:57.925Z</time>
      </trkpt>
      <trkpt lat="47.05621" lon="6.85087">
        <ele>1334.8799999968</ele>
        <time>2021-06-28T10:01:11.995Z</time>
      </trkpt>
      <trkpt lat="47.05601" lon="6.85143">
        <ele>1336.01</ele>
        <time>2021-06-28T10:01:58.232Z</time>
      </trkpt>
      <trkpt lat="47.05586" lon="6.85179">
        <ele>1335.57</ele>
        <time>2021-06-28T10:02:06.721Z</time>
      </trkpt>
      <trkpt lat="47.05583" lon="6.85186">
        <ele>1335.489999997</ele>
        <time>2021-06-28T10:02:08.408Z</time>
      </trkpt>
      <trkpt lat="47.05581" lon="6.8519">
        <ele>1335.19</ele>
        <time>2021-06-28T10:02:09.073Z</time>
      </trkpt>
      <trkpt lat="47.05568" lon="6.85225">
        <ele>1333.06</ele>
        <time>2021-06-28T10:02:14.419Z</time>
      </trkpt>
      <trkpt lat="47.05563" lon="6.85244">
        <ele>1332.19</ele>
        <time>2021-06-28T10:02:16.999Z</time>
      </trkpt>
      <trkpt lat="47.05561" lon="6.85256">
        <ele>1332.06</ele>
        <time>2021-06-28T10:02:19.480Z</time>
      </trkpt>
      <trkpt lat="47.05561" lon="6.85262">
        <ele>1332.04</ele>
        <time>2021-06-28T10:02:22.581Z</time>
      </trkpt>
      <trkpt lat="47.05562" lon="6.85279">
        <ele>1331.9599999925</ele>
        <time>2021-06-28T10:02:31.156Z</time>
      </trkpt>
      <trkpt lat="47.05565" lon="6.85293">
        <ele>1331.7200000029</ele>
        <time>2021-06-28T10:02:33.821Z</time>
      </trkpt>
      <trkpt lat="47.05577" lon="6.85338">
        <ele>1331.45</ele>
        <time>2021-06-28T10:02:44.482Z</time>
      </trkpt>
      <trkpt lat="47.05587" lon="6.85375">
        <ele>1331.45</ele>
        <time>2021-06-28T10:03:06.596Z</time>
      </trkpt>
      <trkpt lat="47.05592" lon="6.85398">
        <ele>1331.5899999986</ele>
        <time>2021-06-28T10:03:21.143Z</time>
      </trkpt>
      <trkpt lat="47.05597" lon="6.85439">
        <ele>1331.5100000021</ele>
        <time>2021-06-28T10:03:43.324Z</time>
      </trkpt>
      <trkpt lat="47.05601" lon="6.8547">
        <ele>1331.7</ele>
        <time>2021-06-28T10:04:02.397Z</time>
      </trkpt>
      <trkpt lat="47.05602" lon="6.8548">
        <ele>1331.8199999931</ele>
        <time>2021-06-28T10:04:09.078Z</time>
      </trkpt>
      <trkpt lat="47.05602" lon="6.85492">
        <ele>1331.95</ele>
        <time>2021-06-28T10:04:16.882Z</time>
      </trkpt>
      <trkpt lat="47.05602" lon="6.855">
        <ele>1331.95</ele>
        <time>2021-06-28T10:04:21.326Z</time>
      </trkpt>
      <trkpt lat="47.056" lon="6.85514">
        <ele>1332.2099999957</ele>
        <time>2021-06-28T10:04:31.843Z</time>
      </trkpt>
      <trkpt lat="47.05599" lon="6.85525">
        <ele>1332.0800000008</ele>
        <time>2021-06-28T10:04:34.024Z</time>
      </trkpt>
      <trkpt lat="47.05597" lon="6.85537">
        <ele>1332.08</ele>
        <time>2021-06-28T10:04:40.888Z</time>
      </trkpt>
      <trkpt lat="47.05596" lon="6.85544">
        <ele>1331.95</ele>
        <time>2021-06-28T10:04:42.148Z</time>
      </trkpt>
      <trkpt lat="47.05593" lon="6.85552">
        <ele>1331.5699999929</ele>
        <time>2021-06-28T10:04:43.320Z</time>
      </trkpt>
      <trkpt lat="47.0559" lon="6.85558">
        <ele>1331.4400000013</ele>
        <time>2021-06-28T10:04:44.647Z</time>
      </trkpt>
      <trkpt lat="47.05586" lon="6.85563">
        <ele>1331.18</ele>
        <time>2021-06-28T10:04:45.736Z</time>
      </trkpt>
      <trkpt lat="47.05581" lon="6.85569">
        <ele>1330.9200000046</ele>
        <time>2021-06-28T10:04:47.192Z</time>
      </trkpt>
      <trkpt lat="47.05575" lon="6.85575">
        <ele>1330.66</ele>
        <time>2021-06-28T10:04:48.901Z</time>
      </trkpt>
      <trkpt lat="47.05568" lon="6.8558">
        <ele>1330.189999992</ele>
        <time>2021-06-28T10:04:50.375Z</time>
      </trkpt>
      <trkpt lat="47.05563" lon="6.85584">
        <ele>1329.83</ele>
        <time>2021-06-28T10:04:51.429Z</time>
      </trkpt>
      <trkpt lat="47.0556" lon="6.85588">
        <ele>1329.63</ele>
        <time>2021-06-28T10:04:52.271Z</time>
      </trkpt>
      <trkpt lat="47.05558" lon="6.85595">
        <ele>1329.3</ele>
        <time>2021-06-28T10:04:53.224Z</time>
      </trkpt>
      <trkpt lat="47.05557" lon="6.85602">
        <ele>1329.05</ele>
        <time>2021-06-28T10:04:54.218Z</time>
      </trkpt>
      <trkpt lat="47.05553" lon="6.85603">
        <ele>1329.22</ele>
        <time>2021-06-28T10:04:59.588Z</time>
      </trkpt>
      <trkpt lat="47.0555" lon="6.85607">
        <ele>1329.26</ele>
        <time>2021-06-28T10:05:03.221Z</time>
      </trkpt>
      <trkpt lat="47.05537" lon="6.85599">
        <ele>1329.87</ele>
        <time>2021-06-28T10:05:22.264Z</time>
      </trkpt>
      <trkpt lat="47.05532" lon="6.85597">
        <ele>1330.17</ele>
        <time>2021-06-28T10:05:30.056Z</time>
      </trkpt>
      <trkpt lat="47.05528" lon="6.85596">
        <ele>1330.42</ele>
        <time>2021-06-28T10:05:36.318Z</time>
      </trkpt>
      <trkpt lat="47.05513" lon="6.85592">
        <ele>1333.5700000527</ele>
        <time>2021-06-28T10:06:24.270Z</time>
      </trkpt>
      <trkpt lat="47.05501" lon="6.8559">
        <ele>1335.18999996</ele>
        <time>2021-06-28T10:07:02.257Z</time>
      </trkpt>
      <trkpt lat="47.05478" lon="6.8559">
        <ele>1335.1300000029</ele>
        <time>2021-06-28T10:07:20.291Z</time>
      </trkpt>
      <trkpt lat="47.05474" lon="6.85591">
        <ele>1335.1599999978</ele>
        <time>2021-06-28T10:07:23.841Z</time>
      </trkpt>
      <trkpt lat="47.05464" lon="6.85594">
        <ele>1335.8800000031</ele>
        <time>2021-06-28T10:07:40.657Z</time>
      </trkpt>
      <trkpt lat="47.05456" lon="6.85594">
        <ele>1336.3800000211</ele>
        <time>2021-06-28T10:07:53.082Z</time>
      </trkpt>
      <trkpt lat="47.05448" lon="6.85592">
        <ele>1336.77</ele>
        <time>2021-06-28T10:08:04.508Z</time>
      </trkpt>
      <trkpt lat="47.05448" lon="6.85593">
        <ele>1336.77</ele>
        <time>2021-06-28T10:08:04.860Z</time>
      </trkpt>
      <trkpt lat="47.05448" lon="6.85592">
        <ele>1336.77</ele>
        <time>2021-06-28T10:08:05.212Z</time>
      </trkpt>
      <trkpt lat="47.05444" lon="6.85591">
        <ele>1337.15</ele>
        <time>2021-06-28T10:08:13.315Z</time>
      </trkpt>
      <trkpt lat="47.05423" lon="6.85584">
        <ele>1337.6</ele>
        <time>2021-06-28T10:08:35.032Z</time>
      </trkpt>
      <trkpt lat="47.0541" lon="6.85578">
        <ele>1337.5700000004</ele>
        <time>2021-06-28T10:08:45.782Z</time>
      </trkpt>
      <trkpt lat="47.05387" lon="6.85567">
        <ele>1339.58</ele>
        <time>2021-06-28T10:09:29.823Z</time>
      </trkpt>
      <trkpt lat="47.05377" lon="6.8556">
        <ele>1340.81</ele>
        <time>2021-06-28T10:09:56.144Z</time>
      </trkpt>
      <trkpt lat="47.05345" lon="6.85541">
        <ele>1344.96</ele>
        <time>2021-06-28T10:11:27.310Z</time>
      </trkpt>
      <trkpt lat="47.05328" lon="6.85526">
        <ele>1346.81</ele>
        <time>2021-06-28T10:12:06.783Z</time>
      </trkpt>
      <trkpt lat="47.05317" lon="6.85515">
        <ele>1348.0000000159</ele>
        <time>2021-06-28T10:12:32.367Z</time>
      </trkpt>
      <trkpt lat="47.05315" lon="6.85513">
        <ele>1348.23</ele>
        <time>2021-06-28T10:12:37.262Z</time>
      </trkpt>
      <trkpt lat="47.05307" lon="6.85498">
        <ele>1349.8599999805</ele>
        <time>2021-06-28T10:13:13.928Z</time>
      </trkpt>
      <trkpt lat="47.05284" lon="6.85453">
        <ele>1354.09</ele>
        <time>2021-06-28T10:14:44.336Z</time>
      </trkpt>
      <trkpt lat="47.05266" lon="6.85421">
        <ele>1356.06</ele>
        <time>2021-06-28T10:15:30.616Z</time>
      </trkpt>
      <trkpt lat="47.0526" lon="6.85409">
        <ele>1356.84</ele>
        <time>2021-06-28T10:15:48.172Z</time>
      </trkpt>
      <trkpt lat="47.05249" lon="6.85387">
        <ele>1358.400000005</ele>
        <time>2021-06-28T10:16:22.253Z</time>
      </trkpt>
      <trkpt lat="47.05243" lon="6.85375">
        <ele>1359.43</ele>
        <time>2021-06-28T10:16:44.092Z</time>
      </trkpt>
      <trkpt lat="47.05237" lon="6.8536">
        <ele>1360.68</ele>
        <time>2021-06-28T10:17:10.639Z</time>
      </trkpt>
      <trkpt lat="47.05226" lon="6.85332">
        <ele>1361.8900000084</ele>
        <time>2021-06-28T10:17:43.091Z</time>
      </trkpt>
      <trkpt lat="47.05221" lon="6.85315">
        <ele>1362.24</ele>
        <time>2021-06-28T10:17:56.883Z</time>
      </trkpt>
      <trkpt lat="47.05216" lon="6.85297">
        <ele>1362.6</ele>
        <time>2021-06-28T10:18:11.263Z</time>
      </trkpt>
      <trkpt lat="47.05217" lon="6.85297">
        <ele>1362.6</ele>
        <time>2021-06-28T10:18:11.725Z</time>
      </trkpt>
      <trkpt lat="47.05216" lon="6.85297">
        <ele>1362.6</ele>
        <time>2021-06-28T10:18:12.187Z</time>
      </trkpt>
      <trkpt lat="47.05213" lon="6.85286">
        <ele>1362.96</ele>
        <time>2021-06-28T10:18:23.304Z</time>
      </trkpt>
      <trkpt lat="47.05208" lon="6.8527">
        <ele>1363.1</ele>
        <time>2021-06-28T10:18:34.255Z</time>
      </trkpt>
      <trkpt lat="47.05196" lon="6.85212">
        <ele>1364.8200000271</ele>
        <time>2021-06-28T10:19:28.703Z</time>
      </trkpt>
      <trkpt lat="47.0519" lon="6.85179">
        <ele>1366.2500000086</ele>
        <time>2021-06-28T10:20:04.575Z</time>
      </trkpt>
      <trkpt lat="47.05185" lon="6.85148">
        <ele>1366.68</ele>
        <time>2021-06-28T10:20:26.199Z</time>
      </trkpt>
      <trkpt lat="47.05182" lon="6.85133">
        <ele>1366.25</ele>
        <time>2021-06-28T10:20:28.598Z</time>
      </trkpt>
      <trkpt lat="47.0518" lon="6.85124">
        <ele>1365.96</ele>
        <time>2021-06-28T10:20:29.990Z</time>
      </trkpt>
      <trkpt lat="47.05178" lon="6.85107">
        <ele>1366.54</ele>
        <time>2021-06-28T10:20:46.678Z</time>
      </trkpt>
      <trkpt lat="47.05178" lon="6.85094">
        <ele>1367.3899999749</ele>
        <time>2021-06-28T10:21:04.750Z</time>
      </trkpt>
      <trkpt lat="47.05179" lon="6.85078">
        <ele>1369.2500000052</ele>
        <time>2021-06-28T10:21:39.182Z</time>
      </trkpt>
      <trkpt lat="47.0518" lon="6.8507">
        <ele>1370.6800000351</ele>
        <time>2021-06-28T10:21:56.613Z</time>
      </trkpt>
      <trkpt lat="47.05179" lon="6.85064">
        <ele>1371.1099999724</ele>
        <time>2021-06-28T10:22:05.730Z</time>
      </trkpt>
      <trkpt lat="47.05178" lon="6.85057">
        <ele>1371.12</ele>
        <time>2021-06-28T10:22:09.780Z</time>
      </trkpt>
      <trkpt lat="47.05177" lon="6.85053">
        <ele>1371.12</ele>
        <time>2021-06-28T10:22:12.147Z</time>
      </trkpt>
      <trkpt lat="47.05173" lon="6.85041">
        <ele>1371.91</ele>
        <time>2021-06-28T10:22:29.248Z</time>
      </trkpt>
      <trkpt lat="47.05172" lon="6.85039">
        <ele>1372.17</ele>
        <time>2021-06-28T10:22:34.565Z</time>
      </trkpt>
      <trkpt lat="47.05173" lon="6.85039">
        <ele>1372.17</ele>
        <time>2021-06-28T10:22:35.039Z</time>
      </trkpt>
      <trkpt lat="47.05172" lon="6.85039">
        <ele>1372.17</ele>
        <time>2021-06-28T10:22:35.513Z</time>
      </trkpt>
      <trkpt lat="47.05168" lon="6.85022">
        <ele>1372.44</ele>
        <time>2021-06-28T10:22:48.032Z</time>
      </trkpt>
      <trkpt lat="47.05164" lon="6.85006">
        <ele>1372.4400000009</ele>
        <time>2021-06-28T10:22:57.502Z</time>
      </trkpt>
      <trkpt lat="47.05162" lon="6.84992">
        <ele>1372.970000018</ele>
        <time>2021-06-28T10:23:11.809Z</time>
      </trkpt>
      <trkpt lat="47.05159" lon="6.84984">
        <ele>1373.32</ele>
        <time>2021-06-28T10:23:21.059Z</time>
      </trkpt>
      <trkpt lat="47.0515" lon="6.84966">
        <ele>1374.7999999783</ele>
        <time>2021-06-28T10:23:52.488Z</time>
      </trkpt>
      <trkpt lat="47.0514" lon="6.84947">
        <ele>1377.45</ele>
        <time>2021-06-28T10:24:43.939Z</time>
      </trkpt>
      <trkpt lat="47.05137" lon="6.84938">
        <ele>1379.02</ele>
        <time>2021-06-28T10:25:05.411Z</time>
      </trkpt>
      <trkpt lat="47.05137" lon="6.84939">
        <ele>1379.02</ele>
        <time>2021-06-28T10:25:05.946Z</time>
      </trkpt>
      <trkpt lat="47.05137" lon="6.84938">
        <ele>1379.02</ele>
        <time>2021-06-28T10:25:06.480Z</time>
      </trkpt>
      <trkpt lat="47.05128" lon="6.84918">
        <ele>1380.5899999858</ele>
        <time>2021-06-28T10:25:39.855Z</time>
      </trkpt>
      <trkpt lat="47.05118" lon="6.84895">
        <ele>1383.56</ele>
        <time>2021-06-28T10:26:38.325Z</time>
      </trkpt>
      <trkpt lat="47.05114" lon="6.84882">
        <ele>1384.9200000112</ele>
        <time>2021-06-28T10:27:08.894Z</time>
      </trkpt>
      <trkpt lat="47.0511" lon="6.84874">
        <ele>1385.3899999953</ele>
        <time>2021-06-28T10:27:19.948Z</time>
      </trkpt>
      <trkpt lat="47.05103" lon="6.84864">
        <ele>1385.5799999989</ele>
        <time>2021-06-28T10:27:29.640Z</time>
      </trkpt>
      <trkpt lat="47.051" lon="6.84858">
        <ele>1385.4800000023</ele>
        <time>2021-06-28T10:27:31.060Z</time>
      </trkpt>
      <trkpt lat="47.05092" lon="6.84841">
        <ele>1385.5999999967</ele>
        <time>2021-06-28T10:27:43.511Z</time>
      </trkpt>
      <trkpt lat="47.05091" lon="6.84838">
        <ele>1385.580000002</ele>
        <time>2021-06-28T10:27:44.242Z</time>
      </trkpt>
      <trkpt lat="47.05086" lon="6.84822">
        <ele>1384.8400000141</ele>
        <time>2021-06-28T10:27:46.489Z</time>
      </trkpt>
      <trkpt lat="47.0508" lon="6.84807">
        <ele>1385.199999993</ele>
        <time>2021-06-28T10:27:59.879Z</time>
      </trkpt>
      <trkpt lat="47.05076" lon="6.84799">
        <ele>1384.9699999845</ele>
        <time>2021-06-28T10:28:01.499Z</time>
      </trkpt>
      <trkpt lat="47.05072" lon="6.84793">
        <ele>1384.6500000129</ele>
        <time>2021-06-28T10:28:02.622Z</time>
      </trkpt>
      <trkpt lat="47.05068" lon="6.84786">
        <ele>1384.17</ele>
        <time>2021-06-28T10:28:03.847Z</time>
      </trkpt>
      <trkpt lat="47.05062" lon="6.84776">
        <ele>1383.5599999987</ele>
        <time>2021-06-28T10:28:05.634Z</time>
      </trkpt>
      <trkpt lat="47.05058" lon="6.84769">
        <ele>1383.32</ele>
        <time>2021-06-28T10:28:07.060Z</time>
      </trkpt>
      <trkpt lat="47.05051" lon="6.84753">
        <ele>1383.52</ele>
        <time>2021-06-28T10:28:19.365Z</time>
      </trkpt>
      <trkpt lat="47.05046" lon="6.84744">
        <ele>1383.52</ele>
        <time>2021-06-28T10:28:25.817Z</time>
      </trkpt>
      <trkpt lat="47.0504" lon="6.84734">
        <ele>1382.65</ele>
        <time>2021-06-28T10:28:27.604Z</time>
      </trkpt>
      <trkpt lat="47.05034" lon="6.84724">
        <ele>1382.4099999841</ele>
        <time>2021-06-28T10:28:29.959Z</time>
      </trkpt>
      <trkpt lat="47.05029" lon="6.84717">
        <ele>1382.13</ele>
        <time>2021-06-28T10:28:31.514Z</time>
      </trkpt>
      <trkpt lat="47.05025" lon="6.84712">
        <ele>1382.15</ele>
        <time>2021-06-28T10:28:35.953Z</time>
      </trkpt>
      <trkpt lat="47.05014" lon="6.84703">
        <ele>1382.3499999932</ele>
        <time>2021-06-28T10:28:47.971Z</time>
      </trkpt>
      <trkpt lat="47.05001" lon="6.84694">
        <ele>1383.41</ele>
        <time>2021-06-28T10:29:12.242Z</time>
      </trkpt>
      <trkpt lat="47.0499" lon="6.84685">
        <ele>1383.4899999995</ele>
        <time>2021-06-28T10:29:23.146Z</time>
      </trkpt>
      <trkpt lat="47.0497" lon="6.84668">
        <ele>1383.88</ele>
        <time>2021-06-28T10:29:45.438Z</time>
      </trkpt>
      <trkpt lat="47.04953" lon="6.84655">
        <ele>1383.5800000007</ele>
        <time>2021-06-28T10:29:51.074Z</time>
      </trkpt>
      <trkpt lat="47.04933" lon="6.84641">
        <ele>1382.93</ele>
        <time>2021-06-28T10:29:56.647Z</time>
      </trkpt>
      <trkpt lat="47.04927" lon="6.84633">
        <ele>1382.5</ele>
        <time>2021-06-28T10:29:58.277Z</time>
      </trkpt>
      <trkpt lat="47.04919" lon="6.84622">
        <ele>1382.49</ele>
        <time>2021-06-28T10:30:07.093Z</time>
      </trkpt>
      <trkpt lat="47.0491" lon="6.84607">
        <ele>1383.77</ele>
        <time>2021-06-28T10:30:34.375Z</time>
      </trkpt>
      <trkpt lat="47.04906" lon="6.84602">
        <ele>1383.1599999924</ele>
        <time>2021-06-28T10:30:35.409Z</time>
      </trkpt>
      <trkpt lat="47.04901" lon="6.846">
        <ele>1382.8199999883</ele>
        <time>2021-06-28T10:30:36.351Z</time>
      </trkpt>
      <trkpt lat="47.04896" lon="6.84599">
        <ele>1382.4800000155</ele>
        <time>2021-06-28T10:30:37.344Z</time>
      </trkpt>
      <trkpt lat="47.04888" lon="6.84598">
        <ele>1382.02</ele>
        <time>2021-06-28T10:30:38.903Z</time>
      </trkpt>
      <trkpt lat="47.04882" lon="6.84595">
        <ele>1381.9</ele>
        <time>2021-06-28T10:30:40.694Z</time>
      </trkpt>
      <trkpt lat="47.04868" lon="6.84592">
        <ele>1381.47</ele>
        <time>2021-06-28T10:30:44.213Z</time>
      </trkpt>
      <trkpt lat="47.04865" lon="6.84593">
        <ele>1381.3200000011</ele>
        <time>2021-06-28T10:30:44.854Z</time>
      </trkpt>
      <trkpt lat="47.0486" lon="6.84593">
        <ele>1381.080000002</ele>
        <time>2021-06-28T10:30:45.905Z</time>
      </trkpt>
      <trkpt lat="47.04854" lon="6.84592">
        <ele>1381.08</ele>
        <time>2021-06-28T10:30:50.829Z</time>
      </trkpt>
      <trkpt lat="47.04849" lon="6.84589">
        <ele>1381.08</ele>
        <time>2021-06-28T10:30:55.234Z</time>
      </trkpt>
      <trkpt lat="47.04841" lon="6.84583">
        <ele>1381.49</ele>
        <time>2021-06-28T10:31:07.688Z</time>
      </trkpt>
      <trkpt lat="47.04834" lon="6.84578">
        <ele>1381.9099999841</ele>
        <time>2021-06-28T10:31:19.083Z</time>
      </trkpt>
      <trkpt lat="47.04821" lon="6.84563">
        <ele>1381.83</ele>
        <time>2021-06-28T10:31:31.637Z</time>
      </trkpt>
      <trkpt lat="47.04806" lon="6.84548">
        <ele>1382.1700000025</ele>
        <time>2021-06-28T10:31:49.504Z</time>
      </trkpt>
      <trkpt lat="47.04799" lon="6.8454">
        <ele>1382.77</ele>
        <time>2021-06-28T10:32:03.807Z</time>
      </trkpt>
      <trkpt lat="47.04791" lon="6.8453">
        <ele>1383.6700000266</ele>
        <time>2021-06-28T10:32:23.356Z</time>
      </trkpt>
      <trkpt lat="47.04784" lon="6.84519">
        <ele>1384.7099999765</ele>
        <time>2021-06-28T10:32:45.406Z</time>
      </trkpt>
      <trkpt lat="47.04768" lon="6.84491">
        <ele>1386.9899999922</ele>
        <time>2021-06-28T10:33:34.199Z</time>
      </trkpt>
      <trkpt lat="47.04751" lon="6.8446">
        <ele>1388.09</ele>
        <time>2021-06-28T10:34:09.384Z</time>
      </trkpt>
      <trkpt lat="47.04745" lon="6.8445">
        <ele>1389.7799999316</ele>
        <time>2021-06-28T10:34:37.941Z</time>
      </trkpt>
      <trkpt lat="47.04737" lon="6.84442">
        <ele>1391.7299999038</ele>
        <time>2021-06-28T10:35:08.390Z</time>
      </trkpt>
      <trkpt lat="47.04726" lon="6.84433">
        <ele>1393.3200000017</ele>
        <time>2021-06-28T10:35:44.276Z</time>
      </trkpt>
      <trkpt lat="47.0472" lon="6.84428">
        <ele>1393.39</ele>
        <time>2021-06-28T10:35:50.479Z</time>
      </trkpt>
      <trkpt lat="47.04715" lon="6.8442">
        <ele>1393.55</ele>
        <time>2021-06-28T10:35:58.001Z</time>
      </trkpt>
      <trkpt lat="47.04706" lon="6.84411">
        <ele>1394.0399999918</ele>
        <time>2021-06-28T10:36:13.036Z</time>
      </trkpt>
      <trkpt lat="47.04698" lon="6.844">
        <ele>1394.96</ele>
        <time>2021-06-28T10:36:33.135Z</time>
      </trkpt>
      <trkpt lat="47.04688" lon="6.84393">
        <ele>1396.82</ele>
        <time>2021-06-28T10:37:07.983Z</time>
      </trkpt>
      <trkpt lat="47.04676" lon="6.8439">
        <ele>1399.04</ele>
        <time>2021-06-28T10:37:46.270Z</time>
      </trkpt>
      <trkpt lat="47.04669" lon="6.84383">
        <ele>1400.0200000352</ele>
        <time>2021-06-28T10:38:07.476Z</time>
      </trkpt>
      <trkpt lat="47.04661" lon="6.84383">
        <ele>1401.58</ele>
        <time>2021-06-28T10:38:32.638Z</time>
      </trkpt>
      <trkpt lat="47.04653" lon="6.84384">
        <ele>1403.2099999666</ele>
        <time>2021-06-28T10:38:57.892Z</time>
      </trkpt>
      <trkpt lat="47.04642" lon="6.84369">
        <ele>1405.4100000188</ele>
        <time>2021-06-28T10:39:45.121Z</time>
      </trkpt>
      <trkpt lat="47.04639" lon="6.84366">
        <ele>1405.9</ele>
        <time>2021-06-28T10:39:56.539Z</time>
      </trkpt>
      <trkpt lat="47.04635" lon="6.84355">
        <ele>1406.04</ele>
        <time>2021-06-28T10:40:04.699Z</time>
      </trkpt>
      <trkpt lat="47.04633" lon="6.8435">
        <ele>1405.94</ele>
        <time>2021-06-28T10:40:05.737Z</time>
      </trkpt>
      <trkpt lat="47.04629" lon="6.84344">
        <ele>1405.71</ele>
        <time>2021-06-28T10:40:07.027Z</time>
      </trkpt>
      <trkpt lat="47.04625" lon="6.84339">
        <ele>1405.73</ele>
        <time>2021-06-28T10:40:11.466Z</time>
      </trkpt>
      <trkpt lat="47.04621" lon="6.84335">
        <ele>1405.93</ele>
        <time>2021-06-28T10:40:17.817Z</time>
      </trkpt>
      <trkpt lat="47.04618" lon="6.84333">
        <ele>1406.03</ele>
        <time>2021-06-28T10:40:21.538Z</time>
      </trkpt>
      <trkpt lat="47.04614" lon="6.84329">
        <ele>1405.9500000053</ele>
        <time>2021-06-28T10:40:22.946Z</time>
      </trkpt>
      <trkpt lat="47.04609" lon="6.84322">
        <ele>1405.3700000268</ele>
        <time>2021-06-28T10:40:24.306Z</time>
      </trkpt>
      <trkpt lat="47.04603" lon="6.84313">
        <ele>1404.63</ele>
        <time>2021-06-28T10:40:25.995Z</time>
      </trkpt>
      <trkpt lat="47.04587" lon="6.84291">
        <ele>1402.6</ele>
        <time>2021-06-28T10:40:30.311Z</time>
      </trkpt>
      <trkpt lat="47.04584" lon="6.84284">
        <ele>1402.8000000012</ele>
        <time>2021-06-28T10:40:37.119Z</time>
      </trkpt>
      <trkpt lat="47.04582" lon="6.84279">
        <ele>1402.8899999953</ele>
        <time>2021-06-28T10:40:41.191Z</time>
      </trkpt>
      <trkpt lat="47.04578" lon="6.84272">
        <ele>1402.69</ele>
        <time>2021-06-28T10:40:42.711Z</time>
      </trkpt>
      <trkpt lat="47.04569" lon="6.84252">
        <ele>1402.8000000056</ele>
        <time>2021-06-28T10:40:56.905Z</time>
      </trkpt>
      <trkpt lat="47.04561" lon="6.84236">
        <ele>1403.09</ele>
        <time>2021-06-28T10:41:10.628Z</time>
      </trkpt>
      <trkpt lat="47.04551" lon="6.8422">
        <ele>1402.95999997</ele>
        <time>2021-06-28T10:41:15.380Z</time>
      </trkpt>
      <trkpt lat="47.04546" lon="6.84213">
        <ele>1402.4699999933</ele>
        <time>2021-06-28T10:41:16.741Z</time>
      </trkpt>
      <trkpt lat="47.04542" lon="6.8421">
        <ele>1401.590000105</ele>
        <time>2021-06-28T10:41:17.625Z</time>
      </trkpt>
      <trkpt lat="47.04537" lon="6.84199">
        <ele>1401.519999999</ele>
        <time>2021-06-28T10:41:20.560Z</time>
      </trkpt>
      <trkpt lat="47.04533" lon="6.84193">
        <ele>1401.0899999886</ele>
        <time>2021-06-28T10:41:21.686Z</time>
      </trkpt>
      <trkpt lat="47.0453" lon="6.84191">
        <ele>1400.6499999964</ele>
        <time>2021-06-28T10:41:22.334Z</time>
      </trkpt>
      <trkpt lat="47.04529" lon="6.8419">
        <ele>1400.57</ele>
        <time>2021-06-28T10:41:22.553Z</time>
      </trkpt>
      <trkpt lat="47.04527" lon="6.84185">
        <ele>1400.749999999</ele>
        <time>2021-06-28T10:41:28.027Z</time>
      </trkpt>
      <trkpt lat="47.04526" lon="6.84183">
        <ele>1400.560000027</ele>
        <time>2021-06-28T10:41:28.360Z</time>
      </trkpt>
      <trkpt lat="47.04522" lon="6.84179">
        <ele>1399.8900000667</ele>
        <time>2021-06-28T10:41:29.313Z</time>
      </trkpt>
      <trkpt lat="47.04518" lon="6.84175">
        <ele>1399.14</ele>
        <time>2021-06-28T10:41:30.266Z</time>
      </trkpt>
      <trkpt lat="47.04515" lon="6.84173">
        <ele>1398.39</ele>
        <time>2021-06-28T10:41:30.914Z</time>
      </trkpt>
      <trkpt lat="47.04513" lon="6.84171">
        <ele>1398.13</ele>
        <time>2021-06-28T10:41:31.391Z</time>
      </trkpt>
      <trkpt lat="47.04511" lon="6.84168">
        <ele>1397.8600000406</ele>
        <time>2021-06-28T10:41:31.954Z</time>
      </trkpt>
      <trkpt lat="47.04508" lon="6.84164">
        <ele>1397.65</ele>
        <time>2021-06-28T10:41:32.777Z</time>
      </trkpt>
      <trkpt lat="47.04509" lon="6.84165">
        <ele>1397.65</ele>
        <time>2021-06-28T10:41:33.604Z</time>
      </trkpt>
      <trkpt lat="47.04508" lon="6.84164">
        <ele>1397.65</ele>
        <time>2021-06-28T10:41:34.431Z</time>
      </trkpt>
      <trkpt lat="47.04508" lon="6.84164">
        <ele>1397.65</ele>
        <time>2021-06-28T10:41:34.431Z</time>
      </trkpt>
      <trkpt lat="47.04505" lon="6.84157">
        <ele>1396.79</ele>
        <time>2021-06-28T10:41:35.540Z</time>
      </trkpt>
      <trkpt lat="47.045" lon="6.84148">
        <ele>1395.950000004</ele>
        <time>2021-06-28T10:41:37.098Z</time>
      </trkpt>
      <trkpt lat="47.04489" lon="6.84134">
        <ele>1395.5200000009</ele>
        <time>2021-06-28T10:41:40.752Z</time>
      </trkpt>
      <trkpt lat="47.04469" lon="6.84117">
        <ele>1395.1100000016</ele>
        <time>2021-06-28T10:41:47.376Z</time>
      </trkpt>
      <trkpt lat="47.04443" lon="6.84096">
        <ele>1394.79</ele>
        <time>2021-06-28T10:41:56.661Z</time>
      </trkpt>
      <trkpt lat="47.04427" lon="6.84079">
        <ele>1395.4100000025</ele>
        <time>2021-06-28T10:42:19.268Z</time>
      </trkpt>
      <trkpt lat="47.04421" lon="6.84076">
        <ele>1395.54</ele>
        <time>2021-06-28T10:42:25.633Z</time>
      </trkpt>
      <trkpt lat="47.04411" lon="6.84066">
        <ele>1396.4399999615</ele>
        <time>2021-06-28T10:42:46.166Z</time>
      </trkpt>
      <trkpt lat="47.04399" lon="6.84055">
        <ele>1396.9999999968</ele>
        <time>2021-06-28T10:43:04.266Z</time>
      </trkpt>
      <trkpt lat="47.04384" lon="6.84039">
        <ele>1397.88</ele>
        <time>2021-06-28T10:43:30.273Z</time>
      </trkpt>
      <trkpt lat="47.04377" lon="6.8403">
        <ele>1398.4900000143</ele>
        <time>2021-06-28T10:43:45.048Z</time>
      </trkpt>
      <trkpt lat="47.04374" lon="6.84026">
        <ele>1398.69</ele>
        <time>2021-06-28T10:43:50.803Z</time>
      </trkpt>
      <trkpt lat="47.0437" lon="6.8402">
        <ele>1399.17</ele>
        <time>2021-06-28T10:44:01.289Z</time>
      </trkpt>
      <trkpt lat="47.04366" lon="6.84016">
        <ele>1399.53</ele>
        <time>2021-06-28T10:44:09.502Z</time>
      </trkpt>
      <trkpt lat="47.04362" lon="6.84014">
        <ele>1399.75</ele>
        <time>2021-06-28T10:44:15.610Z</time>
      </trkpt>
      <trkpt lat="47.04358" lon="6.8401">
        <ele>1400.53</ele>
        <time>2021-06-28T10:44:30.835Z</time>
      </trkpt>
      <trkpt lat="47.04357" lon="6.84009">
        <ele>1400.3400000191</ele>
        <time>2021-06-28T10:44:31.073Z</time>
      </trkpt>
      <trkpt lat="47.04355" lon="6.84006">
        <ele>1400.53</ele>
        <time>2021-06-28T10:44:35.643Z</time>
      </trkpt>
      <trkpt lat="47.04353" lon="6.84004">
        <ele>1400.93</ele>
        <time>2021-06-28T10:44:43.255Z</time>
      </trkpt>
      <trkpt lat="47.04351" lon="6.84">
        <ele>1401.7099998819</ele>
        <time>2021-06-28T10:44:53.889Z</time>
      </trkpt>
      <trkpt lat="47.04349" lon="6.83996">
        <ele>1401.7299999973</ele>
        <time>2021-06-28T10:44:56.804Z</time>
      </trkpt>
      <trkpt lat="47.04344" lon="6.83991">
        <ele>1402.15</ele>
        <time>2021-06-28T10:45:06.689Z</time>
      </trkpt>
      <trkpt lat="47.04341" lon="6.83987">
        <ele>1402.289999991</ele>
        <time>2021-06-28T10:45:11.523Z</time>
      </trkpt>
      <trkpt lat="47.04337" lon="6.83985">
        <ele>1402.2999999994</ele>
        <time>2021-06-28T10:45:15.046Z</time>
      </trkpt>
      <trkpt lat="47.04331" lon="6.83979">
        <ele>1402.700000011</ele>
        <time>2021-06-28T10:45:25.756Z</time>
      </trkpt>
      <trkpt lat="47.04328" lon="6.83973">
        <ele>1403.1700000023</ele>
        <time>2021-06-28T10:45:35.794Z</time>
      </trkpt>
      <trkpt lat="47.04326" lon="6.83971">
        <ele>1403.45</ele>
        <time>2021-06-28T10:45:41.852Z</time>
      </trkpt>
      <trkpt lat="47.04311" lon="6.83963">
        <ele>1404.83</ele>
        <time>2021-06-28T10:46:11.753Z</time>
      </trkpt>
      <trkpt lat="47.04303" lon="6.83956">
        <ele>1406.27</ele>
        <time>2021-06-28T10:46:41.050Z</time>
      </trkpt>
      <trkpt lat="47.04292" lon="6.83946">
        <ele>1408.9499999752</ele>
        <time>2021-06-28T10:47:21.749Z</time>
      </trkpt>
      <trkpt lat="47.04279" lon="6.83933">
        <ele>1410.8199999976</ele>
        <time>2021-06-28T10:48:02.625Z</time>
      </trkpt>
      <trkpt lat="47.04269" lon="6.83928">
        <ele>1410.58</ele>
        <time>2021-06-28T10:48:05.482Z</time>
      </trkpt>
      <trkpt lat="47.04265" lon="6.83926">
        <ele>1410.3200000005</ele>
        <time>2021-06-28T10:48:06.275Z</time>
      </trkpt>
      <trkpt lat="47.04256" lon="6.83921">
        <ele>1410.04</ele>
        <time>2021-06-28T10:48:08.701Z</time>
      </trkpt>
      <trkpt lat="47.04251" lon="6.83917">
        <ele>1410.19</ele>
        <time>2021-06-28T10:48:14.822Z</time>
      </trkpt>
      <trkpt lat="47.04246" lon="6.83914">
        <ele>1410.78</ele>
        <time>2021-06-28T10:48:27.408Z</time>
      </trkpt>
      <trkpt lat="47.04241" lon="6.83911">
        <ele>1410.98</ele>
        <time>2021-06-28T10:48:34.073Z</time>
      </trkpt>
      <trkpt lat="47.0423" lon="6.83901">
        <ele>1411.9700000035</ele>
        <time>2021-06-28T10:48:56.402Z</time>
      </trkpt>
      <trkpt lat="47.04223" lon="6.83895">
        <ele>1412.17</ele>
        <time>2021-06-28T10:49:04.942Z</time>
      </trkpt>
      <trkpt lat="47.04218" lon="6.83892">
        <ele>1412.37</ele>
        <time>2021-06-28T10:49:11.608Z</time>
      </trkpt>
      <trkpt lat="47.04214" lon="6.8389">
        <ele>1412.56</ele>
        <time>2021-06-28T10:49:17.440Z</time>
      </trkpt>
      <trkpt lat="47.04205" lon="6.83884">
        <ele>1412.75</ele>
        <time>2021-06-28T10:49:27.224Z</time>
      </trkpt>
      <trkpt lat="47.04199" lon="6.83879">
        <ele>1413.39</ele>
        <time>2021-06-28T10:49:40.891Z</time>
      </trkpt>
      <trkpt lat="47.04192" lon="6.83872">
        <ele>1414.71</ele>
        <time>2021-06-28T10:50:07.534Z</time>
      </trkpt>
      <trkpt lat="47.04185" lon="6.83863">
        <ele>1415.6400000135</ele>
        <time>2021-06-28T10:50:27.256Z</time>
      </trkpt>
      <trkpt lat="47.04181" lon="6.83859">
        <ele>1415.84</ele>
        <time>2021-06-28T10:50:33.607Z</time>
      </trkpt>
      <trkpt lat="47.04173" lon="6.83843">
        <ele>1416.39</ele>
        <time>2021-06-28T10:50:51.182Z</time>
      </trkpt>
      <trkpt lat="47.04172" lon="6.83839">
        <ele>1416.52</ele>
        <time>2021-06-28T10:50:55.184Z</time>
      </trkpt>
      <trkpt lat="47.04169" lon="6.83835">
        <ele>1416.47</ele>
        <time>2021-06-28T10:50:56.427Z</time>
      </trkpt>
      <trkpt lat="47.04169" lon="6.83834">
        <ele>1416.3800000126</ele>
        <time>2021-06-28T10:50:56.561Z</time>
      </trkpt>
      <trkpt lat="47.04167" lon="6.83831">
        <ele>1416.19</ele>
        <time>2021-06-28T10:50:57.078Z</time>
      </trkpt>
      <trkpt lat="47.04165" lon="6.8383">
        <ele>1415.86</ele>
        <time>2021-06-28T10:50:57.494Z</time>
      </trkpt>
      <trkpt lat="47.04164" lon="6.83827">
        <ele>1415.6099999924</ele>
        <time>2021-06-28T10:50:57.942Z</time>
      </trkpt>
      <trkpt lat="47.04164" lon="6.83824">
        <ele>1415.51</ele>
        <time>2021-06-28T10:50:58.368Z</time>
      </trkpt>
      <trkpt lat="47.04164" lon="6.83822">
        <ele>1415.4100000054</ele>
        <time>2021-06-28T10:50:58.636Z</time>
      </trkpt>
      <trkpt lat="47.04163" lon="6.83818">
        <ele>1415.15</ele>
        <time>2021-06-28T10:50:59.208Z</time>
      </trkpt>
      <trkpt lat="47.04163" lon="6.83816">
        <ele>1415.01</ele>
        <time>2021-06-28T10:50:59.476Z</time>
      </trkpt>
      <trkpt lat="47.04157" lon="6.83812">
        <ele>1414.1499999665</ele>
        <time>2021-06-28T10:51:00.773Z</time>
      </trkpt>
      <trkpt lat="47.04156" lon="6.83808">
        <ele>1413.9400000114</ele>
        <time>2021-06-28T10:51:01.345Z</time>
      </trkpt>
      <trkpt lat="47.04152" lon="6.83797">
        <ele>1413.2999999928</ele>
        <time>2021-06-28T10:51:03.017Z</time>
      </trkpt>
      <trkpt lat="47.0415" lon="6.8379">
        <ele>1413.1399999947</ele>
        <time>2021-06-28T10:51:04.296Z</time>
      </trkpt>
      <trkpt lat="47.04148" lon="6.83786">
        <ele>1413.05</ele>
        <time>2021-06-28T10:51:05.172Z</time>
      </trkpt>
      <trkpt lat="47.04145" lon="6.83778">
        <ele>1413.1100000012</ele>
        <time>2021-06-28T10:51:10.738Z</time>
      </trkpt>
      <trkpt lat="47.04143" lon="6.83772">
        <ele>1413.7300000065</ele>
        <time>2021-06-28T10:51:25.054Z</time>
      </trkpt>
      <trkpt lat="47.04141" lon="6.83768">
        <ele>1414.02</ele>
        <time>2021-06-28T10:51:31.351Z</time>
      </trkpt>
      <trkpt lat="47.04135" lon="6.83762">
        <ele>1414.71</ele>
        <time>2021-06-28T10:51:46.037Z</time>
      </trkpt>
      <trkpt lat="47.04129" lon="6.83755">
        <ele>1415.54</ele>
        <time>2021-06-28T10:52:03.718Z</time>
      </trkpt>
      <trkpt lat="47.04125" lon="6.83747">
        <ele>1416.4799999964</ele>
        <time>2021-06-28T10:52:24.986Z</time>
      </trkpt>
      <trkpt lat="47.04122" lon="6.83741">
        <ele>1416.43</ele>
        <time>2021-06-28T10:52:26.592Z</time>
      </trkpt>
      <trkpt lat="47.0412" lon="6.83733">
        <ele>1417.65</ele>
        <time>2021-06-28T10:52:44.857Z</time>
      </trkpt>
      <trkpt lat="47.04116" lon="6.83723">
        <ele>1418.44</ele>
        <time>2021-06-28T10:53:01.610Z</time>
      </trkpt>
      <trkpt lat="47.04111" lon="6.83713">
        <ele>1419.2</ele>
        <time>2021-06-28T10:53:17.930Z</time>
      </trkpt>
      <trkpt lat="47.04105" lon="6.83703">
        <ele>1420.47</ele>
        <time>2021-06-28T10:53:46.489Z</time>
      </trkpt>
      <trkpt lat="47.04102" lon="6.83696">
        <ele>1419.91</ele>
        <time>2021-06-28T10:53:47.598Z</time>
      </trkpt>
      <trkpt lat="47.04096" lon="6.83689">
        <ele>1419.7799999887</ele>
        <time>2021-06-28T10:53:49.816Z</time>
      </trkpt>
      <trkpt lat="47.0409" lon="6.8369">
        <ele>1419.0099999971</ele>
        <time>2021-06-28T10:53:51.004Z</time>
      </trkpt>
      <trkpt lat="47.04088" lon="6.8369">
        <ele>1418.9400000071</ele>
        <time>2021-06-28T10:53:51.479Z</time>
      </trkpt>
      <trkpt lat="47.04086" lon="6.83682">
        <ele>1420.4299998996</ele>
        <time>2021-06-28T10:54:09.744Z</time>
      </trkpt>
      <trkpt lat="47.04077" lon="6.83669">
        <ele>1421.47</ele>
        <time>2021-06-28T10:54:32.595Z</time>
      </trkpt>
      <trkpt lat="47.04074" lon="6.83662">
        <ele>1421.55</ele>
        <time>2021-06-28T10:54:37.877Z</time>
      </trkpt>
      <trkpt lat="47.04066" lon="6.8365">
        <ele>1422.47</ele>
        <time>2021-06-28T10:54:58.249Z</time>
      </trkpt>
      <trkpt lat="47.04062" lon="6.83647">
        <ele>1422.86</ele>
        <time>2021-06-28T10:55:06.691Z</time>
      </trkpt>
      <trkpt lat="47.04058" lon="6.83639">
        <ele>1423.88</ele>
        <time>2021-06-28T10:55:27.959Z</time>
      </trkpt>
      <trkpt lat="47.04051" lon="6.83627">
        <ele>1425.58</ele>
        <time>2021-06-28T10:56:01.817Z</time>
      </trkpt>
      <trkpt lat="47.04045" lon="6.83619">
        <ele>1425.7200000052</ele>
        <time>2021-06-28T10:56:09.670Z</time>
      </trkpt>
      <trkpt lat="47.04042" lon="6.83613">
        <ele>1425.79</ele>
        <time>2021-06-28T10:56:14.404Z</time>
      </trkpt>
      <trkpt lat="47.04042" lon="6.83603">
        <ele>1425.59</ele>
        <time>2021-06-28T10:56:16.118Z</time>
      </trkpt>
      <trkpt lat="47.04033" lon="6.8359">
        <ele>1425.659999999</ele>
        <time>2021-06-28T10:56:26.967Z</time>
      </trkpt>
      <trkpt lat="47.04019" lon="6.83575">
        <ele>1427.78</ele>
        <time>2021-06-28T10:57:13.931Z</time>
      </trkpt>
      <trkpt lat="47.04011" lon="6.83569">
        <ele>1428.5500000062</ele>
        <time>2021-06-28T10:57:30.653Z</time>
      </trkpt>
      <trkpt lat="47.04006" lon="6.83563">
        <ele>1428.819999991</ele>
        <time>2021-06-28T10:57:39.188Z</time>
      </trkpt>
      <trkpt lat="47.04002" lon="6.83556">
        <ele>1428.5900000431</ele>
        <time>2021-06-28T10:57:40.637Z</time>
      </trkpt>
      <trkpt lat="47.04001" lon="6.83555">
        <ele>1428.829999998</ele>
        <time>2021-06-28T10:57:44.444Z</time>
      </trkpt>
      <trkpt lat="47.03999" lon="6.83554">
        <ele>1429.0499999816</ele>
        <time>2021-06-28T10:57:49.112Z</time>
      </trkpt>
      <trkpt lat="47.03994" lon="6.8355">
        <ele>1428.58</ele>
        <time>2021-06-28T10:57:50.233Z</time>
      </trkpt>
      <trkpt lat="47.0399" lon="6.83548">
        <ele>1428.32</ele>
        <time>2021-06-28T10:57:51.026Z</time>
      </trkpt>
      <trkpt lat="47.03989" lon="6.83547">
        <ele>1428.1500000423</ele>
        <time>2021-06-28T10:57:51.264Z</time>
      </trkpt>
      <trkpt lat="47.03988" lon="6.83545">
        <ele>1428.3699999862</ele>
        <time>2021-06-28T10:57:56.339Z</time>
      </trkpt>
      <trkpt lat="47.03984" lon="6.83544">
        <ele>1427.8699999256</ele>
        <time>2021-06-28T10:57:57.138Z</time>
      </trkpt>
      <trkpt lat="47.0398" lon="6.83544">
        <ele>1426.9</ele>
        <time>2021-06-28T10:57:57.925Z</time>
      </trkpt>
      <trkpt lat="47.03976" lon="6.83541">
        <ele>1426.3699999615</ele>
        <time>2021-06-28T10:57:58.810Z</time>
      </trkpt>
      <trkpt lat="47.03975" lon="6.8354">
        <ele>1425.9400001228</ele>
        <time>2021-06-28T10:57:59.048Z</time>
      </trkpt>
      <trkpt lat="47.03968" lon="6.83536">
        <ele>1424.6399999787</ele>
        <time>2021-06-28T10:58:00.527Z</time>
      </trkpt>
      <trkpt lat="47.03964" lon="6.83533">
        <ele>1423.43</ele>
        <time>2021-06-28T10:58:01.411Z</time>
      </trkpt>
      <trkpt lat="47.03961" lon="6.83532">
        <ele>1422.74</ele>
        <time>2021-06-28T10:58:02.016Z</time>
      </trkpt>
      <trkpt lat="47.03957" lon="6.83531">
        <ele>1421.39</ele>
        <time>2021-06-28T10:58:02.815Z</time>
      </trkpt>
      <trkpt lat="47.03955" lon="6.83529">
        <ele>1420.7500000791</ele>
        <time>2021-06-28T10:58:03.291Z</time>
      </trkpt>
      <trkpt lat="47.03953" lon="6.83526">
        <ele>1419.97</ele>
        <time>2021-06-28T10:58:03.854Z</time>
      </trkpt>
      <trkpt lat="47.03951" lon="6.83523">
        <ele>1419.12</ele>
        <time>2021-06-28T10:58:04.417Z</time>
      </trkpt>
      <trkpt lat="47.03949" lon="6.83522">
        <ele>1418.66</ele>
        <time>2021-06-28T10:58:04.833Z</time>
      </trkpt>
      <trkpt lat="47.03946" lon="6.83519">
        <ele>1418.2499999462</ele>
        <time>2021-06-28T10:58:05.548Z</time>
      </trkpt>
      <trkpt lat="47.03944" lon="6.83517">
        <ele>1417.67</ele>
        <time>2021-06-28T10:58:06.024Z</time>
      </trkpt>
      <trkpt lat="47.03941" lon="6.83514">
        <ele>1417.0099999925</ele>
        <time>2021-06-28T10:58:06.739Z</time>
      </trkpt>
      <trkpt lat="47.03938" lon="6.83512">
        <ele>1416.42</ele>
        <time>2021-06-28T10:58:07.388Z</time>
      </trkpt>
      <trkpt lat="47.03935" lon="6.83511">
        <ele>1416.03</ele>
        <time>2021-06-28T10:58:07.993Z</time>
      </trkpt>
      <trkpt lat="47.03905" lon="6.83487">
        <ele>1412.45</ele>
        <time>2021-06-28T10:58:14.719Z</time>
      </trkpt>
      <trkpt lat="47.03897" lon="6.83477">
        <ele>1411.82</ele>
        <time>2021-06-28T10:58:16.716Z</time>
      </trkpt>
      <trkpt lat="47.03878" lon="6.83458">
        <ele>1413.2700000288</ele>
        <time>2021-06-28T10:58:52.569Z</time>
      </trkpt>
      <trkpt lat="47.03872" lon="6.83454">
        <ele>1414.9499999957</ele>
        <time>2021-06-28T10:59:13.297Z</time>
      </trkpt>
      <trkpt lat="47.03865" lon="6.83452">
        <ele>1416.51</ele>
        <time>2021-06-28T10:59:35.728Z</time>
      </trkpt>
      <trkpt lat="47.03856" lon="6.83452">
        <ele>1416.4400000016</ele>
        <time>2021-06-28T10:59:38.659Z</time>
      </trkpt>
      <trkpt lat="47.03853" lon="6.8345">
        <ele>1416.49</ele>
        <time>2021-06-28T10:59:41.780Z</time>
      </trkpt>
      <trkpt lat="47.0385" lon="6.83445">
        <ele>1416.91</ele>
        <time>2021-06-28T10:59:50.753Z</time>
      </trkpt>
      <trkpt lat="47.03848" lon="6.83443">
        <ele>1417.04</ele>
        <time>2021-06-28T10:59:54.290Z</time>
      </trkpt>
      <trkpt lat="47.03844" lon="6.83437">
        <ele>1417.6199999478</ele>
        <time>2021-06-28T11:00:06.587Z</time>
      </trkpt>
      <trkpt lat="47.03835" lon="6.83431">
        <ele>1417.6399999944</ele>
        <time>2021-06-28T11:00:14.800Z</time>
      </trkpt>
      <trkpt lat="47.03831" lon="6.83427">
        <ele>1417.5800000048</ele>
        <time>2021-06-28T11:00:16.283Z</time>
      </trkpt>
      <trkpt lat="47.03829" lon="6.83426">
        <ele>1417.64</ele>
        <time>2021-06-28T11:00:18.612Z</time>
      </trkpt>
      <trkpt lat="47.03826" lon="6.83423">
        <ele>1417.51</ele>
        <time>2021-06-28T11:00:19.466Z</time>
      </trkpt>
      <trkpt lat="47.03823" lon="6.83422">
        <ele>1417.2300000367</ele>
        <time>2021-06-28T11:00:20.072Z</time>
      </trkpt>
      <trkpt lat="47.03818" lon="6.83419">
        <ele>1416.7199999864</ele>
        <time>2021-06-28T11:00:21.135Z</time>
      </trkpt>
      <trkpt lat="47.03817" lon="6.83417">
        <ele>1416.630000007</ele>
        <time>2021-06-28T11:00:21.475Z</time>
      </trkpt>
      <trkpt lat="47.03813" lon="6.83416">
        <ele>1416.2599999962</ele>
        <time>2021-06-28T11:00:22.273Z</time>
      </trkpt>
      <trkpt lat="47.0381" lon="6.83414">
        <ele>1415.7900000667</ele>
        <time>2021-06-28T11:00:22.922Z</time>
      </trkpt>
      <trkpt lat="47.03806" lon="6.83412">
        <ele>1415.7099999935</ele>
        <time>2021-06-28T11:00:24.116Z</time>
      </trkpt>
      <trkpt lat="47.03803" lon="6.83409">
        <ele>1415.5100000104</ele>
        <time>2021-06-28T11:00:24.834Z</time>
      </trkpt>
      <trkpt lat="47.038" lon="6.83406">
        <ele>1415.66</ele>
        <time>2021-06-28T11:00:29.597Z</time>
      </trkpt>
      <trkpt lat="47.03794" lon="6.83404">
        <ele>1415.1299999948</ele>
        <time>2021-06-28T11:00:30.808Z</time>
      </trkpt>
      <trkpt lat="47.03789" lon="6.83401">
        <ele>1414.64</ele>
        <time>2021-06-28T11:00:31.871Z</time>
      </trkpt>
      <trkpt lat="47.03786" lon="6.83398">
        <ele>1414.3</ele>
        <time>2021-06-28T11:00:32.586Z</time>
      </trkpt>
      <trkpt lat="47.03782" lon="6.83393">
        <ele>1414.11</ele>
        <time>2021-06-28T11:00:33.818Z</time>
      </trkpt>
      <trkpt lat="47.03779" lon="6.8339">
        <ele>1414.19</ele>
        <time>2021-06-28T11:00:37.527Z</time>
      </trkpt>
      <trkpt lat="47.03775" lon="6.83385">
        <ele>1413.88</ele>
        <time>2021-06-28T11:00:38.533Z</time>
      </trkpt>
      <trkpt lat="47.03771" lon="6.83381">
        <ele>1413.74</ele>
        <time>2021-06-28T11:00:39.756Z</time>
      </trkpt>
      <trkpt lat="47.03769" lon="6.83377">
        <ele>1414.1</ele>
        <time>2021-06-28T11:00:47.409Z</time>
      </trkpt>
      <trkpt lat="47.03768" lon="6.83376">
        <ele>1414.2</ele>
        <time>2021-06-28T11:00:49.604Z</time>
      </trkpt>
      <trkpt lat="47.03765" lon="6.83373">
        <ele>1413.86</ele>
        <time>2021-06-28T11:00:50.318Z</time>
      </trkpt>
      <trkpt lat="47.03763" lon="6.83369">
        <ele>1414.03</ele>
        <time>2021-06-28T11:00:55.148Z</time>
      </trkpt>
      <trkpt lat="47.03761" lon="6.83368">
        <ele>1413.7500000249</ele>
        <time>2021-06-28T11:00:55.564Z</time>
      </trkpt>
      <trkpt lat="47.03758" lon="6.83367">
        <ele>1413.33</ele>
        <time>2021-06-28T11:00:56.170Z</time>
      </trkpt>
      <trkpt lat="47.03756" lon="6.83367">
        <ele>1412.7100001086</ele>
        <time>2021-06-28T11:00:56.563Z</time>
      </trkpt>
      <trkpt lat="47.03752" lon="6.83366">
        <ele>1411.95</ele>
        <time>2021-06-28T11:00:57.362Z</time>
      </trkpt>
      <trkpt lat="47.03752" lon="6.83366">
        <ele>1411.95</ele>
        <time>2021-06-28T11:00:57.362Z</time>
      </trkpt>
      <trkpt lat="47.03747" lon="6.8336">
        <ele>1411.73</ele>
        <time>2021-06-28T11:00:58.909Z</time>
      </trkpt>
      <trkpt lat="47.03744" lon="6.83355">
        <ele>1411.83</ele>
        <time>2021-06-28T11:01:03.547Z</time>
      </trkpt>
      <trkpt lat="47.0374" lon="6.83351">
        <ele>1411.3599999942</ele>
        <time>2021-06-28T11:01:04.500Z</time>
      </trkpt>
      <trkpt lat="47.03737" lon="6.83346">
        <ele>1411.250000009</ele>
        <time>2021-06-28T11:01:05.707Z</time>
      </trkpt>
      <trkpt lat="47.03734" lon="6.8334">
        <ele>1411.31</ele>
        <time>2021-06-28T11:01:10.345Z</time>
      </trkpt>
      <trkpt lat="47.03731" lon="6.83337">
        <ele>1411.76</ele>
        <time>2021-06-28T11:01:20.387Z</time>
      </trkpt>
      <trkpt lat="47.03727" lon="6.83335">
        <ele>1411.5400000129</ele>
        <time>2021-06-28T11:01:21.244Z</time>
      </trkpt>
      <trkpt lat="47.03725" lon="6.83333">
        <ele>1411.66</ele>
        <time>2021-06-28T11:01:24.686Z</time>
      </trkpt>
      <trkpt lat="47.03722" lon="6.83331">
        <ele>1411.46</ele>
        <time>2021-06-28T11:01:25.308Z</time>
      </trkpt>
      <trkpt lat="47.0372" lon="6.83328">
        <ele>1411.37</ele>
        <time>2021-06-28T11:01:26.012Z</time>
      </trkpt>
      <trkpt lat="47.03717" lon="6.83323">
        <ele>1411.8099999912</ele>
        <time>2021-06-28T11:01:35.358Z</time>
      </trkpt>
      <trkpt lat="47.0371" lon="6.83317">
        <ele>1411.8700000111</ele>
        <time>2021-06-28T11:01:42.450Z</time>
      </trkpt>
      <trkpt lat="47.03709" lon="6.83315">
        <ele>1411.99</ele>
        <time>2021-06-28T11:01:45.244Z</time>
      </trkpt>
      <trkpt lat="47.03707" lon="6.8331">
        <ele>1412.470000013</ele>
        <time>2021-06-28T11:01:55.842Z</time>
      </trkpt>
      <trkpt lat="47.03706" lon="6.83308">
        <ele>1412.6999999653</ele>
        <time>2021-06-28T11:02:01.159Z</time>
      </trkpt>
      <trkpt lat="47.03703" lon="6.83305">
        <ele>1412.739999994</ele>
        <time>2021-06-28T11:02:04.452Z</time>
      </trkpt>
      <trkpt lat="47.03701" lon="6.83303">
        <ele>1412.66</ele>
        <time>2021-06-28T11:02:05.037Z</time>
      </trkpt>
      <trkpt lat="47.03698" lon="6.83302">
        <ele>1412.0399999904</ele>
        <time>2021-06-28T11:02:05.643Z</time>
      </trkpt>
      <trkpt lat="47.03696" lon="6.83302">
        <ele>1411.61</ele>
        <time>2021-06-28T11:02:06.037Z</time>
      </trkpt>
      <trkpt lat="47.03693" lon="6.83298">
        <ele>1411.52</ele>
        <time>2021-06-28T11:02:07.139Z</time>
      </trkpt>
      <trkpt lat="47.03693" lon="6.83298">
        <ele>1411.52</ele>
        <time>2021-06-28T11:02:07.139Z</time>
      </trkpt>
      <trkpt lat="47.03694" lon="6.83299">
        <ele>1411.52</ele>
        <time>2021-06-28T11:02:07.738Z</time>
      </trkpt>
      <trkpt lat="47.03693" lon="6.83298">
        <ele>1411.52</ele>
        <time>2021-06-28T11:02:08.336Z</time>
      </trkpt>
      <trkpt lat="47.03691" lon="6.83297">
        <ele>1411.4300000099</ele>
        <time>2021-06-28T11:02:08.802Z</time>
      </trkpt>
      <trkpt lat="47.03688" lon="6.83295">
        <ele>1411.33</ele>
        <time>2021-06-28T11:02:09.622Z</time>
      </trkpt>
      <trkpt lat="47.03686" lon="6.83293">
        <ele>1410.9000000808</ele>
        <time>2021-06-28T11:02:10.098Z</time>
      </trkpt>
      <trkpt lat="47.03684" lon="6.83291">
        <ele>1410.8600000136</ele>
        <time>2021-06-28T11:02:10.802Z</time>
      </trkpt>
      <trkpt lat="47.03683" lon="6.83289">
        <ele>1410.959999979</ele>
        <time>2021-06-28T11:02:13.367Z</time>
      </trkpt>
      <trkpt lat="47.03681" lon="6.83287">
        <ele>1410.73</ele>
        <time>2021-06-28T11:02:13.843Z</time>
      </trkpt>
      <trkpt lat="47.03678" lon="6.83285">
        <ele>1410.41</ele>
        <time>2021-06-28T11:02:14.492Z</time>
      </trkpt>
      <trkpt lat="47.03675" lon="6.83283">
        <ele>1410.27</ele>
        <time>2021-06-28T11:02:15.219Z</time>
      </trkpt>
      <trkpt lat="47.03673" lon="6.8328">
        <ele>1410.08</ele>
        <time>2021-06-28T11:02:15.736Z</time>
      </trkpt>
      <trkpt lat="47.03671" lon="6.83277">
        <ele>1409.999999985</ele>
        <time>2021-06-28T11:02:16.466Z</time>
      </trkpt>
      <trkpt lat="47.03669" lon="6.83274">
        <ele>1409.9100000058</ele>
        <time>2021-06-28T11:02:17.169Z</time>
      </trkpt>
      <trkpt lat="47.03656" lon="6.8326">
        <ele>1407.8699999914</ele>
        <time>2021-06-28T11:02:20.343Z</time>
      </trkpt>
      <trkpt lat="47.03646" lon="6.83248">
        <ele>1406.97</ele>
        <time>2021-06-28T11:02:22.886Z</time>
      </trkpt>
      <trkpt lat="47.03643" lon="6.83243">
        <ele>1406.64</ele>
        <time>2021-06-28T11:02:23.780Z</time>
      </trkpt>
      <trkpt lat="47.03641" lon="6.83239">
        <ele>1406.64</ele>
        <time>2021-06-28T11:02:26.537Z</time>
      </trkpt>
      <trkpt lat="47.03637" lon="6.83232">
        <ele>1406.24</ele>
        <time>2021-06-28T11:02:27.680Z</time>
      </trkpt>
      <trkpt lat="47.03635" lon="6.83228">
        <ele>1406.24</ele>
        <time>2021-06-28T11:02:30.438Z</time>
      </trkpt>
      <trkpt lat="47.03632" lon="6.83221">
        <ele>1405.8299999946</ele>
        <time>2021-06-28T11:02:31.547Z</time>
      </trkpt>
      <trkpt lat="47.0363" lon="6.83217">
        <ele>1404.9000000342</ele>
        <time>2021-06-28T11:02:32.212Z</time>
      </trkpt>
      <trkpt lat="47.03627" lon="6.83213">
        <ele>1404.2300000858</ele>
        <time>2021-06-28T11:02:33.010Z</time>
      </trkpt>
      <trkpt lat="47.03625" lon="6.8321">
        <ele>1405.12</ele>
        <time>2021-06-28T11:02:42.006Z</time>
      </trkpt>
      <trkpt lat="47.03622" lon="6.83206">
        <ele>1405.0000000099</ele>
        <time>2021-06-28T11:02:43.023Z</time>
      </trkpt>
      <trkpt lat="47.03619" lon="6.832">
        <ele>1404.63</ele>
        <time>2021-06-28T11:02:44.021Z</time>
      </trkpt>
      <trkpt lat="47.03617" lon="6.83196">
        <ele>1404.9</ele>
        <time>2021-06-28T11:02:50.015Z</time>
      </trkpt>
      <trkpt lat="47.03614" lon="6.83192">
        <ele>1404.9000000216</ele>
        <time>2021-06-28T11:02:53.320Z</time>
      </trkpt>
      <trkpt lat="47.03612" lon="6.83189">
        <ele>1405.3</ele>
        <time>2021-06-28T11:03:02.316Z</time>
      </trkpt>
      <trkpt lat="47.03609" lon="6.83189">
        <ele>1405.7000000313</ele>
        <time>2021-06-28T11:03:11.739Z</time>
      </trkpt>
      <trkpt lat="47.03607" lon="6.83188">
        <ele>1406.1</ele>
        <time>2021-06-28T11:03:18.384Z</time>
      </trkpt>
      <trkpt lat="47.03606" lon="6.83185">
        <ele>1406.77</ele>
        <time>2021-06-28T11:03:25.543Z</time>
      </trkpt>
      <trkpt lat="47.03602" lon="6.8318">
        <ele>1407.4400000026</ele>
        <time>2021-06-28T11:03:40.766Z</time>
      </trkpt>
      <trkpt lat="47.03598" lon="6.83177">
        <ele>1407.84</ele>
        <time>2021-06-28T11:03:49.373Z</time>
      </trkpt>
      <trkpt lat="47.03595" lon="6.83172">
        <ele>1409.17</ele>
        <time>2021-06-28T11:04:03.653Z</time>
      </trkpt>
      <trkpt lat="47.03593" lon="6.83169">
        <ele>1410.11</ele>
        <time>2021-06-28T11:04:12.650Z</time>
      </trkpt>
      <trkpt lat="47.03589" lon="6.83164">
        <ele>1411.1700001</ele>
        <time>2021-06-28T11:04:29.177Z</time>
      </trkpt>
      <trkpt lat="47.03586" lon="6.8316">
        <ele>1412.059999997</ele>
        <time>2021-06-28T11:04:41.927Z</time>
      </trkpt>
      <trkpt lat="47.03578" lon="6.83156">
        <ele>1413.74</ele>
        <time>2021-06-28T11:05:08.511Z</time>
      </trkpt>
      <trkpt lat="47.03572" lon="6.83153">
        <ele>1413.8400000014</ele>
        <time>2021-06-28T11:05:14.553Z</time>
      </trkpt>
      <trkpt lat="47.03569" lon="6.83153">
        <ele>1413.8499999992</ele>
        <time>2021-06-28T11:05:17.076Z</time>
      </trkpt>
      <trkpt lat="47.03566" lon="6.83151">
        <ele>1413.98</ele>
        <time>2021-06-28T11:05:21.284Z</time>
      </trkpt>
      <trkpt lat="47.03563" lon="6.83147">
        <ele>1414.3</ele>
        <time>2021-06-28T11:05:28.416Z</time>
      </trkpt>
      <trkpt lat="47.03557" lon="6.83141">
        <ele>1413.69</ele>
        <time>2021-06-28T11:05:29.845Z</time>
      </trkpt>
      <trkpt lat="47.03551" lon="6.83139">
        <ele>1412.76</ele>
        <time>2021-06-28T11:05:31.057Z</time>
      </trkpt>
      <trkpt lat="47.03548" lon="6.83133">
        <ele>1411.71</ele>
        <time>2021-06-28T11:05:32.055Z</time>
      </trkpt>
      <trkpt lat="47.03542" lon="6.83124">
        <ele>1410.16</ele>
        <time>2021-06-28T11:05:33.744Z</time>
      </trkpt>
      <trkpt lat="47.03539" lon="6.83119">
        <ele>1409.42</ele>
        <time>2021-06-28T11:05:34.638Z</time>
      </trkpt>
      <trkpt lat="47.03523" lon="6.83097">
        <ele>1408.3000000218</ele>
        <time>2021-06-28T11:05:39.122Z</time>
      </trkpt>
      <trkpt lat="47.0351" lon="6.83081">
        <ele>1409.74</ele>
        <time>2021-06-28T11:06:10.479Z</time>
      </trkpt>
      <trkpt lat="47.03506" lon="6.83074">
        <ele>1411.0600000107</ele>
        <time>2021-06-28T11:06:30.061Z</time>
      </trkpt>
      <trkpt lat="47.03503" lon="6.83067">
        <ele>1411.9499999842</ele>
        <time>2021-06-28T11:06:47.787Z</time>
      </trkpt>
      <trkpt lat="47.03498" lon="6.83061">
        <ele>1412.16</ele>
        <time>2021-06-28T11:06:55.288Z</time>
      </trkpt>
      <trkpt lat="47.03486" lon="6.83053">
        <ele>1411.66</ele>
        <time>2021-06-28T11:06:58.327Z</time>
      </trkpt>
      <trkpt lat="47.03467" lon="6.83038">
        <ele>1408.96999996</ele>
        <time>2021-06-28T11:07:02.574Z</time>
      </trkpt>
      <trkpt lat="47.03461" lon="6.83031">
        <ele>1407.55</ele>
        <time>2021-06-28T11:07:04.083Z</time>
      </trkpt>
      <trkpt lat="47.03454" lon="6.83025">
        <ele>1405.9</ele>
        <time>2021-06-28T11:07:05.678Z</time>
      </trkpt>
      <trkpt lat="47.03442" lon="6.83012">
        <ele>1403.81</ele>
        <time>2021-06-28T11:07:08.615Z</time>
      </trkpt>
      <trkpt lat="47.03424" lon="6.82986">
        <ele>1403.29</ele>
        <time>2021-06-28T11:07:15.614Z</time>
      </trkpt>
      <trkpt lat="47.03402" lon="6.82957">
        <ele>1401.85</ele>
        <time>2021-06-28T11:07:21.789Z</time>
      </trkpt>
      <trkpt lat="47.03391" lon="6.82942">
        <ele>1399.23</ele>
        <time>2021-06-28T11:07:24.744Z</time>
      </trkpt>
      <trkpt lat="47.03387" lon="6.82937">
        <ele>1398.1600000262</ele>
        <time>2021-06-28T11:07:25.779Z</time>
      </trkpt>
      <trkpt lat="47.03379" lon="6.82931">
        <ele>1396.02</ele>
        <time>2021-06-28T11:07:27.547Z</time>
      </trkpt>
      <trkpt lat="47.03375" lon="6.82927">
        <ele>1394.7000000949</ele>
        <time>2021-06-28T11:07:28.500Z</time>
      </trkpt>
      <trkpt lat="47.03371" lon="6.8292">
        <ele>1393.0800000565</ele>
        <time>2021-06-28T11:07:29.726Z</time>
      </trkpt>
      <trkpt lat="47.03367" lon="6.82909">
        <ele>1391.11</ele>
        <time>2021-06-28T11:07:31.398Z</time>
      </trkpt>
      <trkpt lat="47.03363" lon="6.82901">
        <ele>1389.59</ele>
        <time>2021-06-28T11:07:32.730Z</time>
      </trkpt>
      <trkpt lat="47.03347" lon="6.82878">
        <ele>1387.2599999544</ele>
        <time>2021-06-28T11:07:37.139Z</time>
      </trkpt>
      <trkpt lat="47.03336" lon="6.82858">
        <ele>1384.92</ele>
        <time>2021-06-28T11:07:40.586Z</time>
      </trkpt>
      <trkpt lat="47.03314" lon="6.82824">
        <ele>1379.06</ele>
        <time>2021-06-28T11:07:46.876Z</time>
      </trkpt>
      <trkpt lat="47.03305" lon="6.82814">
        <ele>1377.2899999499</ele>
        <time>2021-06-28T11:07:49.098Z</time>
      </trkpt>
      <trkpt lat="47.03299" lon="6.82804">
        <ele>1375.3999999921</ele>
        <time>2021-06-28T11:07:50.886Z</time>
      </trkpt>
      <trkpt lat="47.03296" lon="6.82797">
        <ele>1374.14</ele>
        <time>2021-06-28T11:07:51.995Z</time>
      </trkpt>
      <trkpt lat="47.03289" lon="6.82784">
        <ele>1372.33</ele>
        <time>2021-06-28T11:07:54.218Z</time>
      </trkpt>
      <trkpt lat="47.03284" lon="6.82772">
        <ele>1370.84</ele>
        <time>2021-06-28T11:07:56.105Z</time>
      </trkpt>
      <trkpt lat="47.03282" lon="6.82764">
        <ele>1370.21</ele>
        <time>2021-06-28T11:07:57.248Z</time>
      </trkpt>
      <trkpt lat="47.03279" lon="6.82758">
        <ele>1369.6800000476</ele>
        <time>2021-06-28T11:07:58.246Z</time>
      </trkpt>
      <trkpt lat="47.03275" lon="6.8275">
        <ele>1369.3500000182</ele>
        <time>2021-06-28T11:07:59.657Z</time>
      </trkpt>
      <trkpt lat="47.03262" lon="6.82735">
        <ele>1367.8500000261</ele>
        <time>2021-06-28T11:08:02.912Z</time>
      </trkpt>
      <trkpt lat="47.03234" lon="6.82709">
        <ele>1365.02</ele>
        <time>2021-06-28T11:08:09.435Z</time>
      </trkpt>
      <trkpt lat="47.03225" lon="6.82699">
        <ele>1363.7999999701</ele>
        <time>2021-06-28T11:08:11.657Z</time>
      </trkpt>
      <trkpt lat="47.03219" lon="6.82691">
        <ele>1362.9799999866</ele>
        <time>2021-06-28T11:08:13.253Z</time>
      </trkpt>
      <trkpt lat="47.03215" lon="6.82688">
        <ele>1362.5999999895</ele>
        <time>2021-06-28T11:08:14.137Z</time>
      </trkpt>
      <trkpt lat="47.03211" lon="6.82686">
        <ele>1362.46</ele>
        <time>2021-06-28T11:08:15.159Z</time>
      </trkpt>
      <trkpt lat="47.03206" lon="6.82685">
        <ele>1362.35</ele>
        <time>2021-06-28T11:08:16.538Z</time>
      </trkpt>
      <trkpt lat="47.03196" lon="6.82679">
        <ele>1362.27</ele>
        <time>2021-06-28T11:08:20.075Z</time>
      </trkpt>
      <trkpt lat="47.03162" lon="6.82656">
        <ele>1359.8099999741</ele>
        <time>2021-06-28T11:08:26.876Z</time>
      </trkpt>
      <trkpt lat="47.03152" lon="6.8265">
        <ele>1359.1400000113</ele>
        <time>2021-06-28T11:08:28.895Z</time>
      </trkpt>
      <trkpt lat="47.03134" lon="6.82638">
        <ele>1358.7999999995</ele>
        <time>2021-06-28T11:08:34.599Z</time>
      </trkpt>
      <trkpt lat="47.03123" lon="6.82629">
        <ele>1358.7800000005</ele>
        <time>2021-06-28T11:08:44.626Z</time>
      </trkpt>
      <trkpt lat="47.03103" lon="6.82606">
        <ele>1358.92</ele>
        <time>2021-06-28T11:09:06.449Z</time>
      </trkpt>
      <trkpt lat="47.03075" lon="6.82573">
        <ele>1360.4300000632</ele>
        <time>2021-06-28T11:09:54.079Z</time>
      </trkpt>
      <trkpt lat="47.03058" lon="6.82547">
        <ele>1364.4600000079</ele>
        <time>2021-06-28T11:11:11.320Z</time>
      </trkpt>
      <trkpt lat="47.03052" lon="6.82539">
        <ele>1365.9099999739</ele>
        <time>2021-06-28T11:11:36.821Z</time>
      </trkpt>
      <trkpt lat="47.03045" lon="6.8253">
        <ele>1366.61</ele>
        <time>2021-06-28T11:11:52.718Z</time>
      </trkpt>
      <trkpt lat="47.03039" lon="6.82519">
        <ele>1367.49</ele>
        <time>2021-06-28T11:12:11.547Z</time>
      </trkpt>
      <trkpt lat="47.03038" lon="6.82518">
        <ele>1368.08</ele>
        <time>2021-06-28T11:12:15.354Z</time>
      </trkpt>
      <trkpt lat="47.03039" lon="6.82519">
        <ele>1368.08</ele>
        <time>2021-06-28T11:12:15.866Z</time>
      </trkpt>
      <trkpt lat="47.03038" lon="6.82518">
        <ele>1368.08</ele>
        <time>2021-06-28T11:12:16.378Z</time>
      </trkpt>
      <trkpt lat="47.03034" lon="6.82512">
        <ele>1368.6799999992</ele>
        <time>2021-06-28T11:12:29.115Z</time>
      </trkpt>
      <trkpt lat="47.03026" lon="6.82504">
        <ele>1369.77</ele>
        <time>2021-06-28T11:12:52.516Z</time>
      </trkpt>
      <trkpt lat="47.03017" lon="6.82493">
        <ele>1370.0399999907</ele>
        <time>2021-06-28T11:13:04.624Z</time>
      </trkpt>
      <trkpt lat="47.0301" lon="6.82479">
        <ele>1369.8800000049</ele>
        <time>2021-06-28T11:13:08.198Z</time>
      </trkpt>
      <trkpt lat="47.03" lon="6.82461">
        <ele>1369.5400000022</ele>
        <time>2021-06-28T11:13:12.539Z</time>
      </trkpt>
      <trkpt lat="47.02983" lon="6.82433">
        <ele>1369.370000004</ele>
        <time>2021-06-28T11:13:31.453Z</time>
      </trkpt>
      <trkpt lat="47.02974" lon="6.82417">
        <ele>1369.52</ele>
        <time>2021-06-28T11:13:44.225Z</time>
      </trkpt>
      <trkpt lat="47.02965" lon="6.82403">
        <ele>1369.51</ele>
        <time>2021-06-28T11:13:54.798Z</time>
      </trkpt>
      <trkpt lat="47.02953" lon="6.82389">
        <ele>1369.5500000102</ele>
        <time>2021-06-28T11:14:07.606Z</time>
      </trkpt>
      <trkpt lat="47.02946" lon="6.82378">
        <ele>1369.82</ele>
        <time>2021-06-28T11:14:18.628Z</time>
      </trkpt>
      <trkpt lat="47.02933" lon="6.82365">
        <ele>1370.5800000209</ele>
        <time>2021-06-28T11:14:40.815Z</time>
      </trkpt>
      <trkpt lat="47.02923" lon="6.82355">
        <ele>1371.09</ele>
        <time>2021-06-28T11:14:56.888Z</time>
      </trkpt>
      <trkpt lat="47.02915" lon="6.82344">
        <ele>1371.32</ele>
        <time>2021-06-28T11:15:07.955Z</time>
      </trkpt>
      <trkpt lat="47.02906" lon="6.82336">
        <ele>1371.18</ele>
        <time>2021-06-28T11:15:11.141Z</time>
      </trkpt>
      <trkpt lat="47.02887" lon="6.82314">
        <ele>1369.58</ele>
        <time>2021-06-28T11:15:15.525Z</time>
      </trkpt>
      <trkpt lat="47.0288" lon="6.82307">
        <ele>1369.4300000077</ele>
        <time>2021-06-28T11:15:17.954Z</time>
      </trkpt>
      <trkpt lat="47.02854" lon="6.8229">
        <ele>1368.6399999886</ele>
        <time>2021-06-28T11:15:25.234Z</time>
      </trkpt>
      <trkpt lat="47.02839" lon="6.8228">
        <ele>1367.4300000139</ele>
        <time>2021-06-28T11:15:28.477Z</time>
      </trkpt>
      <trkpt lat="47.02819" lon="6.8227">
        <ele>1366.3900000103</ele>
        <time>2021-06-28T11:15:32.868Z</time>
      </trkpt>
      <trkpt lat="47.02784" lon="6.82248">
        <ele>1365.94</ele>
        <time>2021-06-28T11:15:44.620Z</time>
      </trkpt>
      <trkpt lat="47.02766" lon="6.82235">
        <ele>1366.7399999909</ele>
        <time>2021-06-28T11:16:10.394Z</time>
      </trkpt>
      <trkpt lat="47.02743" lon="6.82216">
        <ele>1367.2800000038</ele>
        <time>2021-06-28T11:16:36.882Z</time>
      </trkpt>
      <trkpt lat="47.02733" lon="6.82206">
        <ele>1367.6299999946</ele>
        <time>2021-06-28T11:16:50.307Z</time>
      </trkpt>
      <trkpt lat="47.02711" lon="6.82179">
        <ele>1368.3299999989</ele>
        <time>2021-06-28T11:17:20.431Z</time>
      </trkpt>
      <trkpt lat="47.02685" lon="6.82147">
        <ele>1369.23</ele>
        <time>2021-06-28T11:17:56.985Z</time>
      </trkpt>
      <trkpt lat="47.02659" lon="6.82113">
        <ele>1368.5900000042</ele>
        <time>2021-06-28T11:18:06.892Z</time>
      </trkpt>
      <trkpt lat="47.02643" lon="6.82095">
        <ele>1369.25</ele>
        <time>2021-06-28T11:18:30.375Z</time>
      </trkpt>
      <trkpt lat="47.02622" lon="6.82067">
        <ele>1370.629999992</ele>
        <time>2021-06-28T11:19:10.478Z</time>
      </trkpt>
      <trkpt lat="47.02594" lon="6.82029">
        <ele>1375.19</ele>
        <time>2021-06-28T11:20:50.397Z</time>
      </trkpt>
      <trkpt lat="47.02585" lon="6.82019">
        <ele>1376.19</ele>
        <time>2021-06-28T11:21:11.940Z</time>
      </trkpt>
      <trkpt lat="47.02577" lon="6.82005">
        <ele>1376.8800000012</ele>
        <time>2021-06-28T11:21:30.349Z</time>
      </trkpt>
      <trkpt lat="47.02572" lon="6.81998">
        <ele>1377.27</ele>
        <time>2021-06-28T11:21:40.637Z</time>
      </trkpt>
      <trkpt lat="47.02558" lon="6.8198">
        <ele>1378.43</ele>
        <time>2021-06-28T11:22:09.510Z</time>
      </trkpt>
      <trkpt lat="47.02549" lon="6.81971">
        <ele>1379.01</ele>
        <time>2021-06-28T11:22:25.378Z</time>
      </trkpt>
      <trkpt lat="47.02537" lon="6.81951">
        <ele>1380.52</ele>
        <time>2021-06-28T11:22:58.458Z</time>
      </trkpt>
      <trkpt lat="47.02524" lon="6.81938">
        <ele>1381.91</ele>
        <time>2021-06-28T11:23:28.420Z</time>
      </trkpt>
      <trkpt lat="47.02512" lon="6.81921">
        <ele>1383.7300000092</ele>
        <time>2021-06-28T11:24:07.237Z</time>
      </trkpt>
      <trkpt lat="47.02508" lon="6.81914">
        <ele>1384.3800000095</ele>
        <time>2021-06-28T11:24:21.031Z</time>
      </trkpt>
      <trkpt lat="47.02505" lon="6.81911">
        <ele>1384.6099999767</ele>
        <time>2021-06-28T11:24:26.705Z</time>
      </trkpt>
      <trkpt lat="47.02502" lon="6.81908">
        <ele>1385.11</ele>
        <time>2021-06-28T11:24:38.124Z</time>
      </trkpt>
      <trkpt lat="47.025" lon="6.81897">
        <ele>1385.92</ele>
        <time>2021-06-28T11:24:55.314Z</time>
      </trkpt>
      <trkpt lat="47.025" lon="6.81885">
        <ele>1386.4899999916</ele>
        <time>2021-06-28T11:25:08.704Z</time>
      </trkpt>
      <trkpt lat="47.025" lon="6.81872">
        <ele>1387.27</ele>
        <time>2021-06-28T11:25:25.532Z</time>
      </trkpt>
      <trkpt lat="47.02501" lon="6.81864">
        <ele>1387.8400000253</ele>
        <time>2021-06-28T11:25:37.620Z</time>
      </trkpt>
      <trkpt lat="47.02501" lon="6.81858">
        <ele>1388.4399999473</ele>
        <time>2021-06-28T11:25:50.484Z</time>
      </trkpt>
      <trkpt lat="47.02499" lon="6.81851">
        <ele>1389.5000000812</ele>
        <time>2021-06-28T11:26:06.758Z</time>
      </trkpt>
      <trkpt lat="47.02499" lon="6.81845">
        <ele>1390.4200000054</ele>
        <time>2021-06-28T11:26:19.623Z</time>
      </trkpt>
      <trkpt lat="47.02498" lon="6.8184">
        <ele>1390.85</ele>
        <time>2021-06-28T11:26:29.100Z</time>
      </trkpt>
      <trkpt lat="47.02494" lon="6.8183">
        <ele>1391.9399999854</ele>
        <time>2021-06-28T11:26:53.959Z</time>
      </trkpt>
      <trkpt lat="47.02489" lon="6.81818">
        <ele>1393.8500000614</ele>
        <time>2021-06-28T11:27:24.114Z</time>
      </trkpt>
      <trkpt lat="47.02485" lon="6.81806">
        <ele>1395.4200000076</ele>
        <time>2021-06-28T11:27:52.755Z</time>
      </trkpt>
      <trkpt lat="47.02483" lon="6.818">
        <ele>1396.43</ele>
        <time>2021-06-28T11:28:07.075Z</time>
      </trkpt>
      <trkpt lat="47.0248" lon="6.81797">
        <ele>1397.4000000385</ele>
        <time>2021-06-28T11:28:18.495Z</time>
      </trkpt>
      <trkpt lat="47.02478" lon="6.81796">
        <ele>1397.84</ele>
        <time>2021-06-28T11:28:25.141Z</time>
      </trkpt>
      <trkpt lat="47.02477" lon="6.81795">
        <ele>1398.25</ele>
        <time>2021-06-28T11:28:28.947Z</time>
      </trkpt>
      <trkpt lat="47.02473" lon="6.81786">
        <ele>1400.5100000506</ele>
        <time>2021-06-28T11:28:51.983Z</time>
      </trkpt>
      <trkpt lat="47.0247" lon="6.81779">
        <ele>1401.63</ele>
        <time>2021-06-28T11:29:09.712Z</time>
      </trkpt>
      <trkpt lat="47.02468" lon="6.81776">
        <ele>1402.45</ele>
        <time>2021-06-28T11:29:18.709Z</time>
      </trkpt>
      <trkpt lat="47.02465" lon="6.81773">
        <ele>1403.38</ele>
        <time>2021-06-28T11:29:30.129Z</time>
      </trkpt>
      <trkpt lat="47.0246" lon="6.81769">
        <ele>1404.6100000134</ele>
        <time>2021-06-28T11:29:48.042Z</time>
      </trkpt>
      <trkpt lat="47.02457" lon="6.81764">
        <ele>1405.530000128</ele>
        <time>2021-06-28T11:30:02.324Z</time>
      </trkpt>
      <trkpt lat="47.02456" lon="6.81762">
        <ele>1406.1500000607</ele>
        <time>2021-06-28T11:30:07.642Z</time>
      </trkpt>
      <trkpt lat="47.02455" lon="6.8176">
        <ele>1406.3499999941</ele>
        <time>2021-06-28T11:30:12.005Z</time>
      </trkpt>
      <trkpt lat="47.0245" lon="6.81755">
        <ele>1407.28</ele>
        <time>2021-06-28T11:30:31.038Z</time>
      </trkpt>
      <trkpt lat="47.02449" lon="6.81753">
        <ele>1407.48</ele>
        <time>2021-06-28T11:30:35.401Z</time>
      </trkpt>
      <trkpt lat="47.02447" lon="6.81751">
        <ele>1407.79</ele>
        <time>2021-06-28T11:30:42.466Z</time>
      </trkpt>
      <trkpt lat="47.02444" lon="6.81749">
        <ele>1408.4099999163</ele>
        <time>2021-06-28T11:30:52.831Z</time>
      </trkpt>
      <trkpt lat="47.02441" lon="6.81747">
        <ele>1409.02</ele>
        <time>2021-06-28T11:31:03.196Z</time>
      </trkpt>
      <trkpt lat="47.0244" lon="6.81746">
        <ele>1409.02</ele>
        <time>2021-06-28T11:31:04.183Z</time>
      </trkpt>
      <trkpt lat="47.02436" lon="6.81745">
        <ele>1408.8200000877</ele>
        <time>2021-06-28T11:31:05.025Z</time>
      </trkpt>
      <trkpt lat="47.02435" lon="6.81743">
        <ele>1409.7399998744</ele>
        <time>2021-06-28T11:31:10.343Z</time>
      </trkpt>
      <trkpt lat="47.02433" lon="6.81743">
        <ele>1410.05</ele>
        <time>2021-06-28T11:31:16.634Z</time>
      </trkpt>
      <trkpt lat="47.02432" lon="6.81742">
        <ele>1410.3600000362</ele>
        <time>2021-06-28T11:31:20.441Z</time>
      </trkpt>
      <trkpt lat="47.02431" lon="6.81741">
        <ele>1410.66</ele>
        <time>2021-06-28T11:31:24.247Z</time>
      </trkpt>
      <trkpt lat="47.02429" lon="6.81739">
        <ele>1410.66</ele>
        <time>2021-06-28T11:31:26.221Z</time>
      </trkpt>
      <trkpt lat="47.02424" lon="6.81733">
        <ele>1411.4800000466</ele>
        <time>2021-06-28T11:31:44.795Z</time>
      </trkpt>
      <trkpt lat="47.02419" lon="6.81729">
        <ele>1412.1000000378</ele>
        <time>2021-06-28T11:31:58.014Z</time>
      </trkpt>
      <trkpt lat="47.02417" lon="6.81726">
        <ele>1412.4099999942</ele>
        <time>2021-06-28T11:32:04.619Z</time>
      </trkpt>
      <trkpt lat="47.02412" lon="6.81722">
        <ele>1412.8200000883</ele>
        <time>2021-06-28T11:32:14.107Z</time>
      </trkpt>
      <trkpt lat="47.02409" lon="6.81718">
        <ele>1413.6400000359</ele>
        <time>2021-06-28T11:32:26.858Z</time>
      </trkpt>
      <trkpt lat="47.02407" lon="6.81715">
        <ele>1413.95</ele>
        <time>2021-06-28T11:32:33.463Z</time>
      </trkpt>
      <trkpt lat="47.02405" lon="6.81714">
        <ele>1414.3599999862</ele>
        <time>2021-06-28T11:32:40.109Z</time>
      </trkpt>
      <trkpt lat="47.02402" lon="6.81711">
        <ele>1414.56</ele>
        <time>2021-06-28T11:32:45.464Z</time>
      </trkpt>
      <trkpt lat="47.02397" lon="6.81709">
        <ele>1414.770000014</ele>
        <time>2021-06-28T11:32:52.185Z</time>
      </trkpt>
      <trkpt lat="47.02393" lon="6.81706">
        <ele>1415.0700000128</ele>
        <time>2021-06-28T11:32:59.381Z</time>
      </trkpt>
      <trkpt lat="47.02391" lon="6.81704">
        <ele>1415.18</ele>
        <time>2021-06-28T11:33:02.733Z</time>
      </trkpt>
      <trkpt lat="47.02388" lon="6.81701">
        <ele>1415.48</ele>
        <time>2021-06-28T11:33:09.317Z</time>
      </trkpt>
      <trkpt lat="47.02386" lon="6.817">
        <ele>1416</ele>
        <time>2021-06-28T11:33:15.963Z</time>
      </trkpt>
      <trkpt lat="47.02384" lon="6.81698">
        <ele>1416.1</ele>
        <time>2021-06-28T11:33:19.139Z</time>
      </trkpt>
      <trkpt lat="47.02383" lon="6.81699">
        <ele>1416.1</ele>
        <time>2021-06-28T11:33:20.126Z</time>
      </trkpt>
      <trkpt lat="47.02381" lon="6.817">
        <ele>1416.0000000098</ele>
        <time>2021-06-28T11:33:20.572Z</time>
      </trkpt>
      <trkpt lat="47.02379" lon="6.81699">
        <ele>1416</ele>
        <time>2021-06-28T11:33:22.295Z</time>
      </trkpt>
      <trkpt lat="47.02369" lon="6.81695">
        <ele>1417.9500000729</ele>
        <time>2021-06-28T11:33:54.897Z</time>
      </trkpt>
      <trkpt lat="47.02368" lon="6.81693">
        <ele>1418.45999996</ele>
        <time>2021-06-28T11:34:00.215Z</time>
      </trkpt>
      <trkpt lat="47.02366" lon="6.81692">
        <ele>1419.08</ele>
        <time>2021-06-28T11:34:06.861Z</time>
      </trkpt>
      <trkpt lat="47.02363" lon="6.81691">
        <ele>1419.38</ele>
        <time>2021-06-28T11:34:13.231Z</time>
      </trkpt>
      <trkpt lat="47.02358" lon="6.81691">
        <ele>1420.4099999995</ele>
        <time>2021-06-28T11:34:28.957Z</time>
      </trkpt>
      <trkpt lat="47.02352" lon="6.81689">
        <ele>1421.44</ele>
        <time>2021-06-28T11:34:48.310Z</time>
      </trkpt>
      <trkpt lat="47.02346" lon="6.81686">
        <ele>1422.1500000195</ele>
        <time>2021-06-28T11:35:03.533Z</time>
      </trkpt>
      <trkpt lat="47.02342" lon="6.81686">
        <ele>1422.3600000135</ele>
        <time>2021-06-28T11:35:09.332Z</time>
      </trkpt>
      <trkpt lat="47.0234" lon="6.81686">
        <ele>1422.56</ele>
        <time>2021-06-28T11:35:13.573Z</time>
      </trkpt>
      <trkpt lat="47.02336" lon="6.81684">
        <ele>1422.6700000109</ele>
        <time>2021-06-28T11:35:18.098Z</time>
      </trkpt>
      <trkpt lat="47.02333" lon="6.81682">
        <ele>1422.8699999687</ele>
        <time>2021-06-28T11:35:23.150Z</time>
      </trkpt>
      <trkpt lat="47.0233" lon="6.8168">
        <ele>1423.39</ele>
        <time>2021-06-28T11:35:33.515Z</time>
      </trkpt>
      <trkpt lat="47.0232" lon="6.81677">
        <ele>1424.21</ele>
        <time>2021-06-28T11:35:51.680Z</time>
      </trkpt>
      <trkpt lat="47.02318" lon="6.81675">
        <ele>1424.62</ele>
        <time>2021-06-28T11:35:59.293Z</time>
      </trkpt>
      <trkpt lat="47.02317" lon="6.81674">
        <ele>1424.9199999092</ele>
        <time>2021-06-28T11:36:03.099Z</time>
      </trkpt>
      <trkpt lat="47.02316" lon="6.81673">
        <ele>1425.1299999775</ele>
        <time>2021-06-28T11:36:06.906Z</time>
      </trkpt>
      <trkpt lat="47.02308" lon="6.81673">
        <ele>1426.2600000065</ele>
        <time>2021-06-28T11:36:32.069Z</time>
      </trkpt>
      <trkpt lat="47.02307" lon="6.81674">
        <ele>1426.77</ele>
        <time>2021-06-28T11:36:35.875Z</time>
      </trkpt>
      <trkpt lat="47.02306" lon="6.81674">
        <ele>1426.77</ele>
        <time>2021-06-28T11:36:36.691Z</time>
      </trkpt>
      <trkpt lat="47.02304" lon="6.81675">
        <ele>1427.0800000288</ele>
        <time>2021-06-28T11:36:43.337Z</time>
      </trkpt>
      <trkpt lat="47.02303" lon="6.81675">
        <ele>1427.1799999869</ele>
        <time>2021-06-28T11:36:45.457Z</time>
      </trkpt>
      <trkpt lat="47.02302" lon="6.81674">
        <ele>1427.4899998905</ele>
        <time>2021-06-28T11:36:49.264Z</time>
      </trkpt>
      <trkpt lat="47.02297" lon="6.81676">
        <ele>1428.31</ele>
        <time>2021-06-28T11:37:05.565Z</time>
      </trkpt>
      <trkpt lat="47.02296" lon="6.81676">
        <ele>1428.72</ele>
        <time>2021-06-28T11:37:08.710Z</time>
      </trkpt>
      <trkpt lat="47.02294" lon="6.81676">
        <ele>1429.2299999021</ele>
        <time>2021-06-28T11:37:15.001Z</time>
      </trkpt>
      <trkpt lat="47.02292" lon="6.81675">
        <ele>1429.75</ele>
        <time>2021-06-28T11:37:21.647Z</time>
      </trkpt>
      <trkpt lat="47.0229" lon="6.81675">
        <ele>1430.26</ele>
        <time>2021-06-28T11:37:27.937Z</time>
      </trkpt>
      <trkpt lat="47.02289" lon="6.81674">
        <ele>1430.5699999497</ele>
        <time>2021-06-28T11:37:31.744Z</time>
      </trkpt>
      <trkpt lat="47.02287" lon="6.81674">
        <ele>1431.4900000163</ele>
        <time>2021-06-28T11:37:38.035Z</time>
      </trkpt>
      <trkpt lat="47.02285" lon="6.81674">
        <ele>1432.21</ele>
        <time>2021-06-28T11:37:44.325Z</time>
      </trkpt>
      <trkpt lat="47.02283" lon="6.81675">
        <ele>1432.93</ele>
        <time>2021-06-28T11:37:50.971Z</time>
      </trkpt>
      <trkpt lat="47.0228" lon="6.81674">
        <ele>1433.4400000114</ele>
        <time>2021-06-28T11:38:00.648Z</time>
      </trkpt>
      <trkpt lat="47.02279" lon="6.81674">
        <ele>1433.5399999749</ele>
        <time>2021-06-28T11:38:02.768Z</time>
      </trkpt>
      <trkpt lat="47.02278" lon="6.81672">
        <ele>1434.0600001634</ele>
        <time>2021-06-28T11:38:08.086Z</time>
      </trkpt>
      <trkpt lat="47.02277" lon="6.81672">
        <ele>1434.7699999019</ele>
        <time>2021-06-28T11:38:11.232Z</time>
      </trkpt>
      <trkpt lat="47.02276" lon="6.81672">
        <ele>1435.08</ele>
        <time>2021-06-28T11:38:14.377Z</time>
      </trkpt>
      <trkpt lat="47.02274" lon="6.81671">
        <ele>1436</ele>
        <time>2021-06-28T11:38:21.023Z</time>
      </trkpt>
      <trkpt lat="47.02271" lon="6.81669">
        <ele>1436.21</ele>
        <time>2021-06-28T11:38:26.186Z</time>
      </trkpt>
      <trkpt lat="47.02268" lon="6.81669">
        <ele>1436.4200000693</ele>
        <time>2021-06-28T11:38:31.109Z</time>
      </trkpt>
      <trkpt lat="47.02266" lon="6.81667">
        <ele>1436.7199999732</ele>
        <time>2021-06-28T11:38:37.803Z</time>
      </trkpt>
      <trkpt lat="47.02262" lon="6.81665">
        <ele>1436.93</ele>
        <time>2021-06-28T11:38:43.817Z</time>
      </trkpt>
      <trkpt lat="47.02261" lon="6.81664">
        <ele>1437.1299999817</ele>
        <time>2021-06-28T11:38:47.624Z</time>
      </trkpt>
      <trkpt lat="47.02257" lon="6.81663">
        <ele>1436.62</ele>
        <time>2021-06-28T11:38:48.422Z</time>
      </trkpt>
      <trkpt lat="47.02255" lon="6.81662">
        <ele>1436.6200000208</ele>
        <time>2021-06-28T11:38:50.145Z</time>
      </trkpt>
      <trkpt lat="47.02254" lon="6.8166">
        <ele>1437.23</ele>
        <time>2021-06-28T11:38:55.464Z</time>
      </trkpt>
      <trkpt lat="47.02252" lon="6.81658">
        <ele>1437.4400001331</ele>
        <time>2021-06-28T11:39:00.010Z</time>
      </trkpt>
      <trkpt lat="47.02251" lon="6.81657">
        <ele>1437.7499999595</ele>
        <time>2021-06-28T11:39:03.817Z</time>
      </trkpt>
      <trkpt lat="47.0225" lon="6.81655">
        <ele>1437.95</ele>
        <time>2021-06-28T11:39:08.180Z</time>
      </trkpt>
      <trkpt lat="47.02243" lon="6.81649">
        <ele>1437.44</ele>
        <time>2021-06-28T11:39:09.684Z</time>
      </trkpt>
      <trkpt lat="47.02237" lon="6.81646">
        <ele>1436.9299999807</ele>
        <time>2021-06-28T11:39:10.932Z</time>
      </trkpt>
      <trkpt lat="47.02234" lon="6.81645">
        <ele>1436.72</ele>
        <time>2021-06-28T11:39:11.538Z</time>
      </trkpt>
      <trkpt lat="47.02232" lon="6.81645">
        <ele>1436.62</ele>
        <time>2021-06-28T11:39:11.951Z</time>
      </trkpt>
      <trkpt lat="47.0223" lon="6.81644">
        <ele>1436.42</ele>
        <time>2021-06-28T11:39:12.366Z</time>
      </trkpt>
      <trkpt lat="47.02229" lon="6.81642">
        <ele>1436.4199999287</ele>
        <time>2021-06-28T11:39:13.745Z</time>
      </trkpt>
      <trkpt lat="47.02228" lon="6.8164">
        <ele>1436.2099999425</ele>
        <time>2021-06-28T11:39:14.078Z</time>
      </trkpt>
      <trkpt lat="47.02227" lon="6.81639">
        <ele>1435.9000000061</ele>
        <time>2021-06-28T11:39:14.316Z</time>
      </trkpt>
      <trkpt lat="47.02223" lon="6.81635">
        <ele>1435.3899999948</ele>
        <time>2021-06-28T11:39:15.269Z</time>
      </trkpt>
      <trkpt lat="47.02221" lon="6.81634">
        <ele>1435.1900000232</ele>
        <time>2021-06-28T11:39:15.685Z</time>
      </trkpt>
      <trkpt lat="47.02207" lon="6.81627">
        <ele>1435.0900000651</ele>
        <time>2021-06-28T11:39:26.614Z</time>
      </trkpt>
      <trkpt lat="47.02203" lon="6.81623">
        <ele>1436.15</ele>
        <time>2021-06-28T11:39:41.841Z</time>
      </trkpt>
      <trkpt lat="47.022" lon="6.81621">
        <ele>1436.85</ele>
        <time>2021-06-28T11:39:52.206Z</time>
      </trkpt>
      <trkpt lat="47.02196" lon="6.81621">
        <ele>1436.8500000208</ele>
        <time>2021-06-28T11:39:55.467Z</time>
      </trkpt>
      <trkpt lat="47.02193" lon="6.8162">
        <ele>1437.11</ele>
        <time>2021-06-28T11:40:01.136Z</time>
      </trkpt>
      <trkpt lat="47.02193" lon="6.81619">
        <ele>1437.11</ele>
        <time>2021-06-28T11:40:01.692Z</time>
      </trkpt>
      <trkpt lat="47.0219" lon="6.81619">
        <ele>1437.379999982</ele>
        <time>2021-06-28T11:40:07.489Z</time>
      </trkpt>
      <trkpt lat="47.02187" lon="6.8162">
        <ele>1437.6399999618</ele>
        <time>2021-06-28T11:40:13.157Z</time>
      </trkpt>
      <trkpt lat="47.02184" lon="6.81619">
        <ele>1437.64</ele>
        <time>2021-06-28T11:40:15.666Z</time>
      </trkpt>
      <trkpt lat="47.0218" lon="6.81618">
        <ele>1437.81</ele>
        <time>2021-06-28T11:40:21.035Z</time>
      </trkpt>
      <trkpt lat="47.02168" lon="6.81612">
        <ele>1436.759999968</ele>
        <time>2021-06-28T11:40:23.531Z</time>
      </trkpt>
      <trkpt lat="47.02166" lon="6.81612">
        <ele>1436.3300000036</ele>
        <time>2021-06-28T11:40:23.924Z</time>
      </trkpt>
      <trkpt lat="47.02164" lon="6.8161">
        <ele>1436.15</ele>
        <time>2021-06-28T11:40:24.401Z</time>
      </trkpt>
      <trkpt lat="47.02163" lon="6.81607">
        <ele>1436.15</ele>
        <time>2021-06-28T11:40:26.257Z</time>
      </trkpt>
      <trkpt lat="47.02162" lon="6.81606">
        <ele>1436.33</ele>
        <time>2021-06-28T11:40:30.064Z</time>
      </trkpt>
      <trkpt lat="47.0216" lon="6.81607">
        <ele>1436.04</ele>
        <time>2021-06-28T11:40:30.480Z</time>
      </trkpt>
      <trkpt lat="47.02154" lon="6.81606">
        <ele>1434.66</ele>
        <time>2021-06-28T11:40:31.669Z</time>
      </trkpt>
      <trkpt lat="47.0215" lon="6.81604">
        <ele>1433.68</ele>
        <time>2021-06-28T11:40:32.500Z</time>
      </trkpt>
      <trkpt lat="47.02145" lon="6.81601">
        <ele>1432.89</ele>
        <time>2021-06-28T11:40:33.564Z</time>
      </trkpt>
      <trkpt lat="47.02137" lon="6.81595">
        <ele>1433.88</ele>
        <time>2021-06-28T11:40:54.716Z</time>
      </trkpt>
      <trkpt lat="47.02131" lon="6.81593">
        <ele>1434.47</ele>
        <time>2021-06-28T11:41:07.261Z</time>
      </trkpt>
      <trkpt lat="47.0212" lon="6.8159">
        <ele>1435.06</ele>
        <time>2021-06-28T11:41:23.506Z</time>
      </trkpt>
      <trkpt lat="47.02116" lon="6.81589">
        <ele>1434.86</ele>
        <time>2021-06-28T11:41:24.348Z</time>
      </trkpt>
      <trkpt lat="47.02113" lon="6.81588">
        <ele>1435.2499999964</ele>
        <time>2021-06-28T11:41:33.174Z</time>
      </trkpt>
      <trkpt lat="47.02109" lon="6.81585">
        <ele>1434.47</ele>
        <time>2021-06-28T11:41:34.059Z</time>
      </trkpt>
      <trkpt lat="47.02099" lon="6.81582">
        <ele>1434.42</ele>
        <time>2021-06-28T11:41:41.801Z</time>
      </trkpt>
      <trkpt lat="47.02096" lon="6.81579">
        <ele>1434.420000038</ele>
        <time>2021-06-28T11:41:44.762Z</time>
      </trkpt>
      <trkpt lat="47.02093" lon="6.81579">
        <ele>1434.8599999462</ele>
        <time>2021-06-28T11:41:54.198Z</time>
      </trkpt>
      <trkpt lat="47.02089" lon="6.81578">
        <ele>1434.7200000014</ele>
        <time>2021-06-28T11:41:55.165Z</time>
      </trkpt>
      <trkpt lat="47.02083" lon="6.81574">
        <ele>1435.89</ele>
        <time>2021-06-28T11:42:15.895Z</time>
      </trkpt>
      <trkpt lat="47.0208" lon="6.81574">
        <ele>1435.89</ele>
        <time>2021-06-28T11:42:18.341Z</time>
      </trkpt>
      <trkpt lat="47.02076" lon="6.81574">
        <ele>1435.5999999927</ele>
        <time>2021-06-28T11:42:19.129Z</time>
      </trkpt>
      <trkpt lat="47.02073" lon="6.81573">
        <ele>1435.3100000152</ele>
        <time>2021-06-28T11:42:19.734Z</time>
      </trkpt>
      <trkpt lat="47.02069" lon="6.8157">
        <ele>1435.01</ele>
        <time>2021-06-28T11:42:20.618Z</time>
      </trkpt>
      <trkpt lat="47.02066" lon="6.81568">
        <ele>1435.01</ele>
        <time>2021-06-28T11:42:23.306Z</time>
      </trkpt>
      <trkpt lat="47.02062" lon="6.81565">
        <ele>1435.01</ele>
        <time>2021-06-28T11:42:26.969Z</time>
      </trkpt>
      <trkpt lat="47.02057" lon="6.81563">
        <ele>1434.42000005</ele>
        <time>2021-06-28T11:42:27.989Z</time>
      </trkpt>
      <trkpt lat="47.02052" lon="6.81558">
        <ele>1435.01</ele>
        <time>2021-06-28T11:42:40.516Z</time>
      </trkpt>
      <trkpt lat="47.02048" lon="6.81556">
        <ele>1435.6</ele>
        <time>2021-06-28T11:42:53.808Z</time>
      </trkpt>
      <trkpt lat="47.02046" lon="6.81555">
        <ele>1435.6</ele>
        <time>2021-06-28T11:42:55.531Z</time>
      </trkpt>
      <trkpt lat="47.0204" lon="6.81551">
        <ele>1436.1900000425</ele>
        <time>2021-06-28T11:43:08.212Z</time>
      </trkpt>
      <trkpt lat="47.02034" lon="6.81548">
        <ele>1437.0699999986</ele>
        <time>2021-06-28T11:43:28.151Z</time>
      </trkpt>
      <trkpt lat="47.02028" lon="6.81546">
        <ele>1436.78</ele>
        <time>2021-06-28T11:43:29.453Z</time>
      </trkpt>
      <trkpt lat="47.02023" lon="6.81544">
        <ele>1437.07</ele>
        <time>2021-06-28T11:43:37.143Z</time>
      </trkpt>
      <trkpt lat="47.02018" lon="6.8154">
        <ele>1435.89</ele>
        <time>2021-06-28T11:43:38.264Z</time>
      </trkpt>
      <trkpt lat="47.02014" lon="6.81537">
        <ele>1435.31</ele>
        <time>2021-06-28T11:43:39.148Z</time>
      </trkpt>
      <trkpt lat="47.02008" lon="6.81534">
        <ele>1435.6</ele>
        <time>2021-06-28T11:43:47.942Z</time>
      </trkpt>
      <trkpt lat="47.02004" lon="6.81533">
        <ele>1434.72</ele>
        <time>2021-06-28T11:43:48.740Z</time>
      </trkpt>
      <trkpt lat="47.02004" lon="6.81533">
        <ele>1434.72</ele>
        <time>2021-06-28T11:43:48.910Z</time>
      </trkpt>
      <trkpt lat="47.02004" lon="6.81533">
        <ele>1434.72</ele>
        <time>2021-06-28T11:43:49.079Z</time>
      </trkpt>
      <trkpt lat="47.01997" lon="6.8153">
        <ele>1433.83</ele>
        <time>2021-06-28T11:43:50.515Z</time>
      </trkpt>
      <trkpt lat="47.01988" lon="6.81529">
        <ele>1433.54</ele>
        <time>2021-06-28T11:43:52.719Z</time>
      </trkpt>
      <trkpt lat="47.01982" lon="6.81526">
        <ele>1432.9500000198</ele>
        <time>2021-06-28T11:43:53.967Z</time>
      </trkpt>
      <trkpt lat="47.01973" lon="6.81522">
        <ele>1431.28</ele>
        <time>2021-06-28T11:43:55.818Z</time>
      </trkpt>
      <trkpt lat="47.01967" lon="6.81521">
        <ele>1430.4</ele>
        <time>2021-06-28T11:43:57.007Z</time>
      </trkpt>
      <trkpt lat="47.01962" lon="6.81519">
        <ele>1430.18</ele>
        <time>2021-06-28T11:43:58.152Z</time>
      </trkpt>
      <trkpt lat="47.01951" lon="6.8151">
        <ele>1431.7300000121</ele>
        <time>2021-06-28T11:44:32.603Z</time>
      </trkpt>
      <trkpt lat="47.01946" lon="6.81507">
        <ele>1432.18</ele>
        <time>2021-06-28T11:44:42.455Z</time>
      </trkpt>
      <trkpt lat="47.01936" lon="6.81501">
        <ele>1430.85</ele>
        <time>2021-06-28T11:44:44.582Z</time>
      </trkpt>
      <trkpt lat="47.01926" lon="6.81496">
        <ele>1430.1799999718</ele>
        <time>2021-06-28T11:44:46.535Z</time>
      </trkpt>
      <trkpt lat="47.01918" lon="6.81493">
        <ele>1429.3000000361</ele>
        <time>2021-06-28T11:44:48.160Z</time>
      </trkpt>
      <trkpt lat="47.01913" lon="6.81493">
        <ele>1429.74</ele>
        <time>2021-06-28T11:44:57.653Z</time>
      </trkpt>
      <trkpt lat="47.01907" lon="6.81491">
        <ele>1428.1900000206</ele>
        <time>2021-06-28T11:44:58.864Z</time>
      </trkpt>
      <trkpt lat="47.01897" lon="6.81488">
        <ele>1426.359999976</ele>
        <time>2021-06-28T11:45:00.874Z</time>
      </trkpt>
      <trkpt lat="47.01893" lon="6.81484">
        <ele>1425.5900000344</ele>
        <time>2021-06-28T11:45:01.826Z</time>
      </trkpt>
      <trkpt lat="47.01886" lon="6.8148">
        <ele>1424.069999996</ele>
        <time>2021-06-28T11:45:03.305Z</time>
      </trkpt>
      <trkpt lat="47.01881" lon="6.81476">
        <ele>1423.8499999976</ele>
        <time>2021-06-28T11:45:04.609Z</time>
      </trkpt>
      <trkpt lat="47.01878" lon="6.81471">
        <ele>1423.660000007</ele>
        <time>2021-06-28T11:45:05.618Z</time>
      </trkpt>
      <trkpt lat="47.01875" lon="6.81468">
        <ele>1423.72</ele>
        <time>2021-06-28T11:45:09.107Z</time>
      </trkpt>
      <trkpt lat="47.01869" lon="6.81465">
        <ele>1423.3</ele>
        <time>2021-06-28T11:45:10.254Z</time>
      </trkpt>
      <trkpt lat="47.01866" lon="6.81465">
        <ele>1423.3899999927</ele>
        <time>2021-06-28T11:45:13.627Z</time>
      </trkpt>
      <trkpt lat="47.01859" lon="6.81466">
        <ele>1423.5499999962</ele>
        <time>2021-06-28T11:45:20.872Z</time>
      </trkpt>
      <trkpt lat="47.01852" lon="6.81464">
        <ele>1422.79</ele>
        <time>2021-06-28T11:45:22.276Z</time>
      </trkpt>
      <trkpt lat="47.01842" lon="6.8145">
        <ele>1420.35</ele>
        <time>2021-06-28T11:45:24.997Z</time>
      </trkpt>
      <trkpt lat="47.01838" lon="6.81445">
        <ele>1420.0399999873</ele>
        <time>2021-06-28T11:45:26.003Z</time>
      </trkpt>
      <trkpt lat="47.01836" lon="6.81444">
        <ele>1419.9100000129</ele>
        <time>2021-06-28T11:45:26.399Z</time>
      </trkpt>
      <trkpt lat="47.01828" lon="6.81441">
        <ele>1420.04</ele>
        <time>2021-06-28T11:45:34.267Z</time>
      </trkpt>
      <trkpt lat="47.01827" lon="6.81441">
        <ele>1420.04</ele>
        <time>2021-06-28T11:45:35.083Z</time>
      </trkpt>
      <trkpt lat="47.0182" lon="6.8144">
        <ele>1420.11</ele>
        <time>2021-06-28T11:45:41.393Z</time>
      </trkpt>
      <trkpt lat="47.01819" lon="6.81439">
        <ele>1420.39</ele>
        <time>2021-06-28T11:45:45.200Z</time>
      </trkpt>
      <trkpt lat="47.01817" lon="6.81433">
        <ele>1421.0100000055</ele>
        <time>2021-06-28T11:45:59.522Z</time>
      </trkpt>
      <trkpt lat="47.01815" lon="6.81432">
        <ele>1421.3600000298</ele>
        <time>2021-06-28T11:46:06.168Z</time>
      </trkpt>
      <trkpt lat="47.01814" lon="6.8143">
        <ele>1421.5599999728</ele>
        <time>2021-06-28T11:46:10.531Z</time>
      </trkpt>
      <trkpt lat="47.01812" lon="6.81428">
        <ele>1421.43</ele>
        <time>2021-06-28T11:46:11.015Z</time>
      </trkpt>
      <trkpt lat="47.01808" lon="6.81427">
        <ele>1420.39</ele>
        <time>2021-06-28T11:46:11.814Z</time>
      </trkpt>
      <trkpt lat="47.01802" lon="6.81423">
        <ele>1419.49</ele>
        <time>2021-06-28T11:46:13.111Z</time>
      </trkpt>
      <trkpt lat="47.018" lon="6.81423">
        <ele>1418.4500001435</ele>
        <time>2021-06-28T11:46:13.504Z</time>
      </trkpt>
      <trkpt lat="47.01798" lon="6.81422">
        <ele>1418.1100000123</ele>
        <time>2021-06-28T11:46:13.920Z</time>
      </trkpt>
      <trkpt lat="47.01794" lon="6.81419">
        <ele>1416.9999999957</ele>
        <time>2021-06-28T11:46:14.805Z</time>
      </trkpt>
      <trkpt lat="47.01792" lon="6.81417">
        <ele>1416.9299999179</ele>
        <time>2021-06-28T11:46:15.416Z</time>
      </trkpt>
      <trkpt lat="47.01791" lon="6.81416">
        <ele>1416.59</ele>
        <time>2021-06-28T11:46:15.654Z</time>
      </trkpt>
      <trkpt lat="47.01789" lon="6.81416">
        <ele>1416.4499999771</ele>
        <time>2021-06-28T11:46:16.048Z</time>
      </trkpt>
      <trkpt lat="47.01788" lon="6.81416">
        <ele>1416.310000017</ele>
        <time>2021-06-28T11:46:16.245Z</time>
      </trkpt>
      <trkpt lat="47.01787" lon="6.81416">
        <ele>1416.45</ele>
        <time>2021-06-28T11:46:19.390Z</time>
      </trkpt>
      <trkpt lat="47.01785" lon="6.81414">
        <ele>1416.1099999196</ele>
        <time>2021-06-28T11:46:19.867Z</time>
      </trkpt>
      <trkpt lat="47.01783" lon="6.81412">
        <ele>1415.4200000738</ele>
        <time>2021-06-28T11:46:20.343Z</time>
      </trkpt>
      <trkpt lat="47.0178" lon="6.81409">
        <ele>1414.66</ele>
        <time>2021-06-28T11:46:21.058Z</time>
      </trkpt>
      <trkpt lat="47.01777" lon="6.81408">
        <ele>1413.89</ele>
        <time>2021-06-28T11:46:21.663Z</time>
      </trkpt>
      <trkpt lat="47.01775" lon="6.81405">
        <ele>1413.3399999807</ele>
        <time>2021-06-28T11:46:22.227Z</time>
      </trkpt>
      <trkpt lat="47.01773" lon="6.81405">
        <ele>1413.06</ele>
        <time>2021-06-28T11:46:22.620Z</time>
      </trkpt>
      <trkpt lat="47.01771" lon="6.81403">
        <ele>1412.65</ele>
        <time>2021-06-28T11:46:23.097Z</time>
      </trkpt>
      <trkpt lat="47.01769" lon="6.814">
        <ele>1412.44</ele>
        <time>2021-06-28T11:46:23.660Z</time>
      </trkpt>
      <trkpt lat="47.01767" lon="6.81398">
        <ele>1412.2400000237</ele>
        <time>2021-06-28T11:46:24.136Z</time>
      </trkpt>
      <trkpt lat="47.01764" lon="6.81396">
        <ele>1411.8200000533</ele>
        <time>2021-06-28T11:46:24.785Z</time>
      </trkpt>
      <trkpt lat="47.01761" lon="6.81394">
        <ele>1411.7500000024</ele>
        <time>2021-06-28T11:46:25.691Z</time>
      </trkpt>
      <trkpt lat="47.01757" lon="6.81392">
        <ele>1411.6799999915</ele>
        <time>2021-06-28T11:46:26.920Z</time>
      </trkpt>
      <trkpt lat="47.01755" lon="6.8139">
        <ele>1411.41</ele>
        <time>2021-06-28T11:46:27.396Z</time>
      </trkpt>
      <trkpt lat="47.01752" lon="6.81386">
        <ele>1411.13</ele>
        <time>2021-06-28T11:46:28.194Z</time>
      </trkpt>
      <trkpt lat="47.01751" lon="6.81384">
        <ele>1411.2</ele>
        <time>2021-06-28T11:46:30.415Z</time>
      </trkpt>
      <trkpt lat="47.01749" lon="6.81381">
        <ele>1411.0599999992</ele>
        <time>2021-06-28T11:46:31.011Z</time>
      </trkpt>
      <trkpt lat="47.01748" lon="6.81381">
        <ele>1411.06</ele>
        <time>2021-06-28T11:46:31.827Z</time>
      </trkpt>
      <trkpt lat="47.01748" lon="6.81381">
        <ele>1411.06</ele>
        <time>2021-06-28T11:46:31.827Z</time>
      </trkpt>
      <trkpt lat="47.01748" lon="6.8138">
        <ele>1410.92</ele>
        <time>2021-06-28T11:46:31.961Z</time>
      </trkpt>
      <trkpt lat="47.01741" lon="6.81373">
        <ele>1409.92</ele>
        <time>2021-06-28T11:46:33.629Z</time>
      </trkpt>
      <trkpt lat="47.01739" lon="6.81371">
        <ele>1409.58</ele>
        <time>2021-06-28T11:46:34.105Z</time>
      </trkpt>
      <trkpt lat="47.01738" lon="6.81369">
        <ele>1409.5200000052</ele>
        <time>2021-06-28T11:46:34.504Z</time>
      </trkpt>
      <trkpt lat="47.01736" lon="6.81367">
        <ele>1409.22</ele>
        <time>2021-06-28T11:46:34.981Z</time>
      </trkpt>
      <trkpt lat="47.01734" lon="6.81364">
        <ele>1408.78</ele>
        <time>2021-06-28T11:46:35.544Z</time>
      </trkpt>
      <trkpt lat="47.01731" lon="6.8136">
        <ele>1408.10000008</ele>
        <time>2021-06-28T11:46:36.342Z</time>
      </trkpt>
      <trkpt lat="47.01728" lon="6.81355">
        <ele>1407.2999998941</ele>
        <time>2021-06-28T11:46:37.236Z</time>
      </trkpt>
      <trkpt lat="47.01726" lon="6.81354">
        <ele>1406.550000082</ele>
        <time>2021-06-28T11:46:37.652Z</time>
      </trkpt>
      <trkpt lat="47.01723" lon="6.81352">
        <ele>1405.93</ele>
        <time>2021-06-28T11:46:38.300Z</time>
      </trkpt>
      <trkpt lat="47.01722" lon="6.8135">
        <ele>1405.15</ele>
        <time>2021-06-28T11:46:38.633Z</time>
      </trkpt>
      <trkpt lat="47.01719" lon="6.81348">
        <ele>1404.4500000063</ele>
        <time>2021-06-28T11:46:39.282Z</time>
      </trkpt>
      <trkpt lat="47.01713" lon="6.81341">
        <ele>1403.4</ele>
        <time>2021-06-28T11:46:40.791Z</time>
      </trkpt>
      <trkpt lat="47.01708" lon="6.81337">
        <ele>1402.6000000109</ele>
        <time>2021-06-28T11:46:41.912Z</time>
      </trkpt>
      <trkpt lat="47.01695" lon="6.81323">
        <ele>1402.3599999579</ele>
        <time>2021-06-28T11:46:46.699Z</time>
      </trkpt>
      <trkpt lat="47.01683" lon="6.81313">
        <ele>1400.799999994</ele>
        <time>2021-06-28T11:46:49.416Z</time>
      </trkpt>
      <trkpt lat="47.01674" lon="6.81307">
        <ele>1399.92</ele>
        <time>2021-06-28T11:46:51.362Z</time>
      </trkpt>
      <trkpt lat="47.01662" lon="6.81296">
        <ele>1399.4099999677</ele>
        <time>2021-06-28T11:46:54.685Z</time>
      </trkpt>
      <trkpt lat="47.0166" lon="6.81294">
        <ele>1399.08</ele>
        <time>2021-06-28T11:46:55.162Z</time>
      </trkpt>
      <trkpt lat="47.0166" lon="6.81295">
        <ele>1399.08</ele>
        <time>2021-06-28T11:46:55.633Z</time>
      </trkpt>
      <trkpt lat="47.0166" lon="6.81294">
        <ele>1399.08</ele>
        <time>2021-06-28T11:46:56.104Z</time>
      </trkpt>
      <trkpt lat="47.01649" lon="6.81287">
        <ele>1398.7600000018</ele>
        <time>2021-06-28T11:46:59.206Z</time>
      </trkpt>
      <trkpt lat="47.01637" lon="6.81276">
        <ele>1398.0800000274</ele>
        <time>2021-06-28T11:47:02.177Z</time>
      </trkpt>
      <trkpt lat="47.01621" lon="6.81264">
        <ele>1397.5299999931</ele>
        <time>2021-06-28T11:47:06.636Z</time>
      </trkpt>
      <trkpt lat="47.01608" lon="6.81252">
        <ele>1397.31</ele>
        <time>2021-06-28T11:47:11.228Z</time>
      </trkpt>
      <trkpt lat="47.01604" lon="6.81247">
        <ele>1396.9099999669</ele>
        <time>2021-06-28T11:47:12.262Z</time>
      </trkpt>
      <trkpt lat="47.01602" lon="6.81245">
        <ele>1396.5800000738</ele>
        <time>2021-06-28T11:47:12.739Z</time>
      </trkpt>
      <trkpt lat="47.01595" lon="6.81239">
        <ele>1395.890000032</ele>
        <time>2021-06-28T11:47:14.335Z</time>
      </trkpt>
      <trkpt lat="47.01586" lon="6.81235">
        <ele>1395.1499999985</ele>
        <time>2021-06-28T11:47:16.186Z</time>
      </trkpt>
      <trkpt lat="47.01583" lon="6.81233">
        <ele>1394.79</ele>
        <time>2021-06-28T11:47:16.834Z</time>
      </trkpt>
      <trkpt lat="47.0158" lon="6.8123">
        <ele>1394.3700000357</ele>
        <time>2021-06-28T11:47:17.549Z</time>
      </trkpt>
      <trkpt lat="47.01575" lon="6.81224">
        <ele>1393.12</ele>
        <time>2021-06-28T11:47:18.821Z</time>
      </trkpt>
      <trkpt lat="47.01571" lon="6.81222">
        <ele>1391.9499999712</ele>
        <time>2021-06-28T11:47:19.653Z</time>
      </trkpt>
      <trkpt lat="47.01568" lon="6.81223">
        <ele>1391.28</ele>
        <time>2021-06-28T11:47:20.258Z</time>
      </trkpt>
      <trkpt lat="47.01562" lon="6.81221">
        <ele>1390.2099999947</ele>
        <time>2021-06-28T11:47:21.469Z</time>
      </trkpt>
      <trkpt lat="47.01558" lon="6.81218">
        <ele>1388.9400001049</ele>
        <time>2021-06-28T11:47:22.354Z</time>
      </trkpt>
      <trkpt lat="47.01554" lon="6.81215">
        <ele>1388</ele>
        <time>2021-06-28T11:47:23.238Z</time>
      </trkpt>
      <trkpt lat="47.01552" lon="6.81213">
        <ele>1387.3200000351</ele>
        <time>2021-06-28T11:47:23.714Z</time>
      </trkpt>
      <trkpt lat="47.01549" lon="6.81211">
        <ele>1386.6200000193</ele>
        <time>2021-06-28T11:47:24.363Z</time>
      </trkpt>
      <trkpt lat="47.01543" lon="6.812">
        <ele>1385.0599999978</ele>
        <time>2021-06-28T11:47:26.254Z</time>
      </trkpt>
      <trkpt lat="47.01539" lon="6.81196">
        <ele>1384.9100000034</ele>
        <time>2021-06-28T11:47:27.450Z</time>
      </trkpt>
      <trkpt lat="47.01537" lon="6.81189">
        <ele>1384.5199999614</ele>
        <time>2021-06-28T11:47:28.469Z</time>
      </trkpt>
      <trkpt lat="47.01536" lon="6.81183">
        <ele>1383.8699999712</ele>
        <time>2021-06-28T11:47:29.298Z</time>
      </trkpt>
      <trkpt lat="47.01535" lon="6.81178">
        <ele>1383.67</ele>
        <time>2021-06-28T11:47:29.993Z</time>
      </trkpt>
      <trkpt lat="47.01536" lon="6.8117">
        <ele>1383.43</ele>
        <time>2021-06-28T11:47:31.208Z</time>
      </trkpt>
      <trkpt lat="47.01537" lon="6.81165">
        <ele>1383.31</ele>
        <time>2021-06-28T11:47:32.062Z</time>
      </trkpt>
      <trkpt lat="47.01537" lon="6.81156">
        <ele>1382.44</ele>
        <time>2021-06-28T11:47:33.270Z</time>
      </trkpt>
      <trkpt lat="47.01537" lon="6.81154">
        <ele>1382.44</ele>
        <time>2021-06-28T11:47:34.382Z</time>
      </trkpt>
      <trkpt lat="47.01538" lon="6.81152">
        <ele>1382.7899999759</ele>
        <time>2021-06-28T11:47:39.700Z</time>
      </trkpt>
      <trkpt lat="47.0154" lon="6.8115">
        <ele>1381.92</ele>
        <time>2021-06-28T11:47:40.177Z</time>
      </trkpt>
      <trkpt lat="47.0154" lon="6.8115">
        <ele>1381.92</ele>
        <time>2021-06-28T11:47:40.177Z</time>
      </trkpt>
      <trkpt lat="47.01541" lon="6.81146">
        <ele>1381.4</ele>
        <time>2021-06-28T11:47:40.749Z</time>
      </trkpt>
      <trkpt lat="47.01541" lon="6.81139">
        <ele>1379.7499999913</ele>
        <time>2021-06-28T11:47:41.688Z</time>
      </trkpt>
      <trkpt lat="47.01541" lon="6.81132">
        <ele>1378.9500000301</ele>
        <time>2021-06-28T11:47:42.627Z</time>
      </trkpt>
      <trkpt lat="47.01541" lon="6.81117">
        <ele>1376.9399999598</ele>
        <time>2021-06-28T11:47:44.640Z</time>
      </trkpt>
      <trkpt lat="47.01544" lon="6.81106">
        <ele>1374.79</ele>
        <time>2021-06-28T11:47:46.230Z</time>
      </trkpt>
      <trkpt lat="47.01544" lon="6.811">
        <ele>1373.5800000909</ele>
        <time>2021-06-28T11:47:47.036Z</time>
      </trkpt>
      <trkpt lat="47.01543" lon="6.81087">
        <ele>1370.97</ele>
        <time>2021-06-28T11:47:48.791Z</time>
      </trkpt>
      <trkpt lat="47.01542" lon="6.81083">
        <ele>1369.76</ele>
        <time>2021-06-28T11:47:49.363Z</time>
      </trkpt>
      <trkpt lat="47.01542" lon="6.81078">
        <ele>1368.89</ele>
        <time>2021-06-28T11:47:50.034Z</time>
      </trkpt>
      <trkpt lat="47.01542" lon="6.81076">
        <ele>1368.54</ele>
        <time>2021-06-28T11:47:50.303Z</time>
      </trkpt>
      <trkpt lat="47.01544" lon="6.81075">
        <ele>1367.4999999629</ele>
        <time>2021-06-28T11:47:50.719Z</time>
      </trkpt>
      <trkpt lat="47.01544" lon="6.81074">
        <ele>1367.32</ele>
        <time>2021-06-28T11:47:50.853Z</time>
      </trkpt>
      <trkpt lat="47.01544" lon="6.81071">
        <ele>1366.9800000354</ele>
        <time>2021-06-28T11:47:51.255Z</time>
      </trkpt>
      <trkpt lat="47.01546" lon="6.81069">
        <ele>1366.45</ele>
        <time>2021-06-28T11:47:51.732Z</time>
      </trkpt>
      <trkpt lat="47.01546" lon="6.8107">
        <ele>1366.45</ele>
        <time>2021-06-28T11:47:52.241Z</time>
      </trkpt>
      <trkpt lat="47.01546" lon="6.81069">
        <ele>1366.45</ele>
        <time>2021-06-28T11:47:52.750Z</time>
      </trkpt>
      <trkpt lat="47.01546" lon="6.81069">
        <ele>1366.45</ele>
        <time>2021-06-28T11:47:52.750Z</time>
      </trkpt>
      <trkpt lat="47.01546" lon="6.81066">
        <ele>1365.060000015</ele>
        <time>2021-06-28T11:47:53.153Z</time>
      </trkpt>
      <trkpt lat="47.01546" lon="6.81061">
        <ele>1363.91</ele>
        <time>2021-06-28T11:47:53.824Z</time>
      </trkpt>
      <trkpt lat="47.01544" lon="6.81048">
        <ele>1360.8399998917</ele>
        <time>2021-06-28T11:47:55.612Z</time>
      </trkpt>
      <trkpt lat="47.0154" lon="6.81037">
        <ele>1358.2899999712</ele>
        <time>2021-06-28T11:47:57.286Z</time>
      </trkpt>
      <trkpt lat="47.0154" lon="6.81031">
        <ele>1356.5500000898</ele>
        <time>2021-06-28T11:47:58.091Z</time>
      </trkpt>
      <trkpt lat="47.01538" lon="6.81022">
        <ele>1355.28</ele>
        <time>2021-06-28T11:47:59.361Z</time>
      </trkpt>
      <trkpt lat="47.01533" lon="6.81002">
        <ele>1351.269999976</ele>
        <time>2021-06-28T11:48:02.220Z</time>
      </trkpt>
      <trkpt lat="47.01529" lon="6.80995">
        <ele>1350.53</ele>
        <time>2021-06-28T11:48:03.446Z</time>
      </trkpt>
      <trkpt lat="47.01527" lon="6.80989">
        <ele>1349.8</ele>
        <time>2021-06-28T11:48:04.342Z</time>
      </trkpt>
      <trkpt lat="47.01524" lon="6.80973">
        <ele>1347.6099999463</ele>
        <time>2021-06-28T11:48:06.569Z</time>
      </trkpt>
      <trkpt lat="47.0152" lon="6.80958">
        <ele>1345.089999968</ele>
        <time>2021-06-28T11:48:08.731Z</time>
      </trkpt>
      <trkpt lat="47.01517" lon="6.80951">
        <ele>1343.7499999828</ele>
        <time>2021-06-28T11:48:09.840Z</time>
      </trkpt>
      <trkpt lat="47.01516" lon="6.80945">
        <ele>1342.3000000979</ele>
        <time>2021-06-28T11:48:10.669Z</time>
      </trkpt>
      <trkpt lat="47.01513" lon="6.80939">
        <ele>1341.2599999566</ele>
        <time>2021-06-28T11:48:11.668Z</time>
      </trkpt>
      <trkpt lat="47.01513" lon="6.80938">
        <ele>1341.09</ele>
        <time>2021-06-28T11:48:11.802Z</time>
      </trkpt>
      <trkpt lat="47.01512" lon="6.80932">
        <ele>1340.04</ele>
        <time>2021-06-28T11:48:12.631Z</time>
      </trkpt>
      <trkpt lat="47.01511" lon="6.8093">
        <ele>1339.5199999856</ele>
        <time>2021-06-28T11:48:12.964Z</time>
      </trkpt>
      <trkpt lat="47.0151" lon="6.80928">
        <ele>1339.35</ele>
        <time>2021-06-28T11:48:13.297Z</time>
      </trkpt>
      <trkpt lat="47.01504" lon="6.80911">
        <ele>1336.56999995</ele>
        <time>2021-06-28T11:48:15.866Z</time>
      </trkpt>
      <trkpt lat="47.01503" lon="6.80905">
        <ele>1335.8699998355</ele>
        <time>2021-06-28T11:48:16.695Z</time>
      </trkpt>
      <trkpt lat="47.01502" lon="6.80903">
        <ele>1335.3500000365</ele>
        <time>2021-06-28T11:48:17.028Z</time>
      </trkpt>
      <trkpt lat="47.015" lon="6.80897">
        <ele>1334.1399999911</ele>
        <time>2021-06-28T11:48:17.924Z</time>
      </trkpt>
      <trkpt lat="47.01499" lon="6.80892">
        <ele>1333.0899999967</ele>
        <time>2021-06-28T11:48:18.623Z</time>
      </trkpt>
      <trkpt lat="47.01499" lon="6.80888">
        <ele>1332.4000000759</ele>
        <time>2021-06-28T11:48:19.160Z</time>
      </trkpt>
      <trkpt lat="47.01498" lon="6.80882">
        <ele>1331.5</ele>
        <time>2021-06-28T11:48:19.989Z</time>
      </trkpt>
      <trkpt lat="47.01497" lon="6.80876">
        <ele>1330.28</ele>
        <time>2021-06-28T11:48:20.818Z</time>
      </trkpt>
      <trkpt lat="47.01492" lon="6.8086">
        <ele>1328.0999999896</ele>
        <time>2021-06-28T11:48:23.180Z</time>
      </trkpt>
      <trkpt lat="47.01491" lon="6.80852">
        <ele>1327.2500000574</ele>
        <time>2021-06-28T11:48:24.272Z</time>
      </trkpt>
      <trkpt lat="47.01491" lon="6.80842">
        <ele>1326.06</ele>
        <time>2021-06-28T11:48:25.614Z</time>
      </trkpt>
      <trkpt lat="47.01491" lon="6.80834">
        <ele>1325.12</ele>
        <time>2021-06-28T11:48:26.687Z</time>
      </trkpt>
      <trkpt lat="47.0149" lon="6.8082">
        <ele>1324.1599999834</ele>
        <time>2021-06-28T11:48:28.576Z</time>
      </trkpt>
      <trkpt lat="47.0149" lon="6.80813">
        <ele>1323.84</ele>
        <time>2021-06-28T11:48:29.516Z</time>
      </trkpt>
      <trkpt lat="47.01469" lon="6.80762">
        <ele>1321.0499999826</ele>
        <time>2021-06-28T11:48:37.512Z</time>
      </trkpt>
      <trkpt lat="47.0146" lon="6.80746">
        <ele>1320.4500000043</ele>
        <time>2021-06-28T11:48:40.636Z</time>
      </trkpt>
      <trkpt lat="47.0144" lon="6.8071">
        <ele>1319.499999992</ele>
        <time>2021-06-28T11:48:48.543Z</time>
      </trkpt>
      <trkpt lat="47.01425" lon="6.80687">
        <ele>1318.69</ele>
        <time>2021-06-28T11:48:53.575Z</time>
      </trkpt>
      <trkpt lat="47.01417" lon="6.80672">
        <ele>1317.35</ele>
        <time>2021-06-28T11:48:56.131Z</time>
      </trkpt>
      <trkpt lat="47.01417" lon="6.80673">
        <ele>1317.35</ele>
        <time>2021-06-28T11:48:56.645Z</time>
      </trkpt>
      <trkpt lat="47.01417" lon="6.80672">
        <ele>1317.35</ele>
        <time>2021-06-28T11:48:57.160Z</time>
      </trkpt>
      <trkpt lat="47.01397" lon="6.80638">
        <ele>1316.0200000198</ele>
        <time>2021-06-28T11:49:03.861Z</time>
      </trkpt>
      <trkpt lat="47.01405" lon="6.80638">
        <ele>1316.449999992</ele>
        <time>2021-06-28T11:49:15.555Z</time>
      </trkpt>
      <trkpt lat="47.01417" lon="6.80635">
        <ele>1317.07</ele>
        <time>2021-06-28T11:49:33.019Z</time>
      </trkpt>
      <trkpt lat="47.01424" lon="6.80635">
        <ele>1317.1900000129</ele>
        <time>2021-06-28T11:49:39.790Z</time>
      </trkpt>
      <trkpt lat="47.0143" lon="6.80635">
        <ele>1317.4500000039</ele>
        <time>2021-06-28T11:49:47.903Z</time>
      </trkpt>
      <trkpt lat="47.01434" lon="6.80635">
        <ele>1317.6499999794</ele>
        <time>2021-06-28T11:49:53.606Z</time>
      </trkpt>
      <trkpt lat="47.01443" lon="6.80638">
        <ele>1317.81</ele>
        <time>2021-06-28T11:50:02.553Z</time>
      </trkpt>
      <trkpt lat="47.01452" lon="6.8064">
        <ele>1318.1100000017</ele>
        <time>2021-06-28T11:50:13.186Z</time>
      </trkpt>
      <trkpt lat="47.01455" lon="6.8064">
        <ele>1318.13</ele>
        <time>2021-06-28T11:50:15.791Z</time>
      </trkpt>
      <trkpt lat="47.01456" lon="6.80641">
        <ele>1318.13</ele>
        <time>2021-06-28T11:50:16.578Z</time>
      </trkpt>
      <trkpt lat="47.01455" lon="6.8064">
        <ele>1318.13</ele>
        <time>2021-06-28T11:50:17.365Z</time>
      </trkpt>
      <trkpt lat="47.0146" lon="6.8064">
        <ele>1318.1499999988</ele>
        <time>2021-06-28T11:50:21.598Z</time>
      </trkpt>
      <trkpt lat="47.01472" lon="6.80638">
        <ele>1317.79</ele>
        <time>2021-06-28T11:50:24.620Z</time>
      </trkpt>
      <trkpt lat="47.0148" lon="6.80639">
        <ele>1317.5100000089</ele>
        <time>2021-06-28T11:50:26.527Z</time>
      </trkpt>
      <trkpt lat="47.01497" lon="6.8064">
        <ele>1316.200000032</ele>
        <time>2021-06-28T11:50:29.876Z</time>
      </trkpt>
      <trkpt lat="47.01521" lon="6.80638">
        <ele>1313.8799999992</ele>
        <time>2021-06-28T11:50:34.608Z</time>
      </trkpt>
      <trkpt lat="47.01533" lon="6.80639">
        <ele>1312.32</ele>
        <time>2021-06-28T11:50:36.974Z</time>
      </trkpt>
      <trkpt lat="47.01549" lon="6.8064">
        <ele>1310.3900000061</ele>
        <time>2021-06-28T11:50:40.126Z</time>
      </trkpt>
      <trkpt lat="47.01566" lon="6.80617">
        <ele>1307.93</ele>
        <time>2021-06-28T11:50:44.679Z</time>
      </trkpt>
      <trkpt lat="47.0158" lon="6.806">
        <ele>1306.98</ele>
        <time>2021-06-28T11:50:48.358Z</time>
      </trkpt>
      <trkpt lat="47.01589" lon="6.8059">
        <ele>1306.22</ele>
        <time>2021-06-28T11:50:50.580Z</time>
      </trkpt>
      <trkpt lat="47.01601" lon="6.80582">
        <ele>1304.75</ele>
        <time>2021-06-28T11:50:53.175Z</time>
      </trkpt>
      <trkpt lat="47.01608" lon="6.8058">
        <ele>1303.85</ele>
        <time>2021-06-28T11:50:54.579Z</time>
      </trkpt>
      <trkpt lat="47.01615" lon="6.80581">
        <ele>1303.140000003</ele>
        <time>2021-06-28T11:50:55.963Z</time>
      </trkpt>
      <trkpt lat="47.01635" lon="6.80581">
        <ele>1300.7499999819</ele>
        <time>2021-06-28T11:50:59.900Z</time>
      </trkpt>
      <trkpt lat="47.01653" lon="6.80579">
        <ele>1297.32</ele>
        <time>2021-06-28T11:51:03.453Z</time>
      </trkpt>
      <trkpt lat="47.01662" lon="6.80576">
        <ele>1295.77</ele>
        <time>2021-06-28T11:51:05.270Z</time>
      </trkpt>
      <trkpt lat="47.01675" lon="6.80568">
        <ele>1292.9699999765</ele>
        <time>2021-06-28T11:51:08.045Z</time>
      </trkpt>
      <trkpt lat="47.01685" lon="6.80562">
        <ele>1291.36</ele>
        <time>2021-06-28T11:51:10.171Z</time>
      </trkpt>
      <trkpt lat="47.0171" lon="6.80549">
        <ele>1288.13</ele>
        <time>2021-06-28T11:51:15.393Z</time>
      </trkpt>
      <trkpt lat="47.01721" lon="6.80544">
        <ele>1286.9699999628</ele>
        <time>2021-06-28T11:51:17.659Z</time>
      </trkpt>
      <trkpt lat="47.0173" lon="6.80539">
        <ele>1286.04</ele>
        <time>2021-06-28T11:51:19.554Z</time>
      </trkpt>
      <trkpt lat="47.01733" lon="6.80537">
        <ele>1285.75</ele>
        <time>2021-06-28T11:51:20.202Z</time>
      </trkpt>
      <trkpt lat="47.01734" lon="6.80538">
        <ele>1285.75</ele>
        <time>2021-06-28T11:51:20.814Z</time>
      </trkpt>
      <trkpt lat="47.01733" lon="6.80537">
        <ele>1285.75</ele>
        <time>2021-06-28T11:51:21.426Z</time>
      </trkpt>
      <trkpt lat="47.01748" lon="6.80528">
        <ele>1285.46</ele>
        <time>2021-06-28T11:51:26.063Z</time>
      </trkpt>
      <trkpt lat="47.01757" lon="6.80522">
        <ele>1286.5099999889</ele>
        <time>2021-06-28T11:51:48.377Z</time>
      </trkpt>
      <trkpt lat="47.01769" lon="6.80514">
        <ele>1286.85</ele>
        <time>2021-06-28T11:52:02.451Z</time>
      </trkpt>
      <trkpt lat="47.01776" lon="6.80511">
        <ele>1287.20000002</ele>
        <time>2021-06-28T11:52:12.715Z</time>
      </trkpt>
      <trkpt lat="47.01781" lon="6.80511">
        <ele>1287.55</ele>
        <time>2021-06-28T11:52:20.919Z</time>
      </trkpt>
      <trkpt lat="47.01788" lon="6.80513">
        <ele>1287.89</ele>
        <time>2021-06-28T11:52:30.935Z</time>
      </trkpt>
      <trkpt lat="47.01796" lon="6.80515">
        <ele>1289.28</ele>
        <time>2021-06-28T11:52:56.460Z</time>
      </trkpt>
      <trkpt lat="47.01805" lon="6.80518">
        <ele>1289.39</ele>
        <time>2021-06-28T11:53:04.909Z</time>
      </trkpt>
      <trkpt lat="47.01814" lon="6.80522">
        <ele>1290.2499999822</ele>
        <time>2021-06-28T11:53:23.317Z</time>
      </trkpt>
      <trkpt lat="47.01831" lon="6.80534">
        <ele>1292.33</ele>
        <time>2021-06-28T11:54:07.764Z</time>
      </trkpt>
      <trkpt lat="47.01838" lon="6.80538">
        <ele>1293.01</ele>
        <time>2021-06-28T11:54:22.347Z</time>
      </trkpt>
      <trkpt lat="47.01843" lon="6.80539">
        <ele>1293.53</ele>
        <time>2021-06-28T11:54:33.376Z</time>
      </trkpt>
      <trkpt lat="47.01847" lon="6.80538">
        <ele>1294.07</ele>
        <time>2021-06-28T11:54:46.074Z</time>
      </trkpt>
      <trkpt lat="47.01862" lon="6.80534">
        <ele>1296.03</ele>
        <time>2021-06-28T11:55:30.870Z</time>
      </trkpt>
      <trkpt lat="47.01874" lon="6.80529">
        <ele>1297.2000000133</ele>
        <time>2021-06-28T11:55:55.815Z</time>
      </trkpt>
      <trkpt lat="47.01878" lon="6.80526">
        <ele>1297.5599999954</ele>
        <time>2021-06-28T11:56:03.796Z</time>
      </trkpt>
      <trkpt lat="47.01888" lon="6.80525">
        <ele>1297.979999931</ele>
        <time>2021-06-28T11:56:17.061Z</time>
      </trkpt>
      <trkpt lat="47.01895" lon="6.80525">
        <ele>1296.8400000485</ele>
        <time>2021-06-28T11:56:18.439Z</time>
      </trkpt>
      <trkpt lat="47.01902" lon="6.80526">
        <ele>1296.2199999948</ele>
        <time>2021-06-28T11:56:19.823Z</time>
      </trkpt>
      <trkpt lat="47.01908" lon="6.80531">
        <ele>1295.5500000169</ele>
        <time>2021-06-28T11:56:21.182Z</time>
      </trkpt>
      <trkpt lat="47.01918" lon="6.80541">
        <ele>1293.9800000575</ele>
        <time>2021-06-28T11:56:23.564Z</time>
      </trkpt>
      <trkpt lat="47.01938" lon="6.8056">
        <ele>1293.35</ele>
        <time>2021-06-28T11:56:29.745Z</time>
      </trkpt>
      <trkpt lat="47.01937" lon="6.80549">
        <ele>1292.05</ele>
        <time>2021-06-28T11:56:31.235Z</time>
      </trkpt>
      <trkpt lat="47.01937" lon="6.80535">
        <ele>1290.59</ele>
        <time>2021-06-28T11:56:33.113Z</time>
      </trkpt>
      <trkpt lat="47.01934" lon="6.80515">
        <ele>1289.39</ele>
        <time>2021-06-28T11:56:35.862Z</time>
      </trkpt>
      <trkpt lat="47.01932" lon="6.80498">
        <ele>1288.31</ele>
        <time>2021-06-28T11:56:38.177Z</time>
      </trkpt>
      <trkpt lat="47.01929" lon="6.8048">
        <ele>1287.25</ele>
        <time>2021-06-28T11:56:40.663Z</time>
      </trkpt>
      <trkpt lat="47.01924" lon="6.80462">
        <ele>1287.21</ele>
        <time>2021-06-28T11:56:50.991Z</time>
      </trkpt>
      <trkpt lat="47.01909" lon="6.80423">
        <ele>1287.76</ele>
        <time>2021-06-28T11:57:20.805Z</time>
      </trkpt>
      <trkpt lat="47.0191" lon="6.80424">
        <ele>1287.76</ele>
        <time>2021-06-28T11:57:21.617Z</time>
      </trkpt>
      <trkpt lat="47.01909" lon="6.80423">
        <ele>1287.76</ele>
        <time>2021-06-28T11:57:22.429Z</time>
      </trkpt>
      <trkpt lat="47.01908" lon="6.80421">
        <ele>1288.3099998711</ele>
        <time>2021-06-28T11:57:27.748Z</time>
      </trkpt>
      <trkpt lat="47.01897" lon="6.80395">
        <ele>1286.93</ele>
        <time>2021-06-28T11:57:31.524Z</time>
      </trkpt>
      <trkpt lat="47.01885" lon="6.80357">
        <ele>1284.9500000125</ele>
        <time>2021-06-28T11:57:37.144Z</time>
      </trkpt>
      <trkpt lat="47.01864" lon="6.80295">
        <ele>1284.73</ele>
        <time>2021-06-28T11:58:13.067Z</time>
      </trkpt>
      <trkpt lat="47.01852" lon="6.80266">
        <ele>1285.7</ele>
        <time>2021-06-28T11:58:43.691Z</time>
      </trkpt>
      <trkpt lat="47.01839" lon="6.80226">
        <ele>1286.78</ele>
        <time>2021-06-28T11:59:20.321Z</time>
      </trkpt>
      <trkpt lat="47.01831" lon="6.80209">
        <ele>1287.4200000199</ele>
        <time>2021-06-28T11:59:39.819Z</time>
      </trkpt>
      <trkpt lat="47.01822" lon="6.80194">
        <ele>1288.2</ele>
        <time>2021-06-28T12:00:00.213Z</time>
      </trkpt>
      <trkpt lat="47.01816" lon="6.80184">
        <ele>1288.3999999995</ele>
        <time>2021-06-28T12:00:09.491Z</time>
      </trkpt>
      <trkpt lat="47.01808" lon="6.80173">
        <ele>1289.05</ele>
        <time>2021-06-28T12:00:26.138Z</time>
      </trkpt>
      <trkpt lat="47.01804" lon="6.80165">
        <ele>1288.9500000003</ele>
        <time>2021-06-28T12:00:28.148Z</time>
      </trkpt>
      <trkpt lat="47.01797" lon="6.80151">
        <ele>1288.88</ele>
        <time>2021-06-28T12:00:36.998Z</time>
      </trkpt>
      <trkpt lat="47.01786" lon="6.80129">
        <ele>1288.6000000012</ele>
        <time>2021-06-28T12:00:42.507Z</time>
      </trkpt>
      <trkpt lat="47.01771" lon="6.80104">
        <ele>1288.86</ele>
        <time>2021-06-28T12:01:03.192Z</time>
      </trkpt>
      <trkpt lat="47.01759" lon="6.80086">
        <ele>1288.57</ele>
        <time>2021-06-28T12:01:08.162Z</time>
      </trkpt>
      <trkpt lat="47.01742" lon="6.8006">
        <ele>1288.16</ele>
        <time>2021-06-28T12:01:15.291Z</time>
      </trkpt>
      <trkpt lat="47.01718" lon="6.80018">
        <ele>1287.18</ele>
        <time>2021-06-28T12:01:25.006Z</time>
      </trkpt>
      <trkpt lat="47.01689" lon="6.79976">
        <ele>1286.9999999916</ele>
        <time>2021-06-28T12:01:56.133Z</time>
      </trkpt>
      <trkpt lat="47.01668" lon="6.79942">
        <ele>1285.8199999965</ele>
        <time>2021-06-28T12:02:03.358Z</time>
      </trkpt>
      <trkpt lat="47.01654" lon="6.7992">
        <ele>1285.4399999953</ele>
        <time>2021-06-28T12:02:09.184Z</time>
      </trkpt>
      <trkpt lat="47.01639" lon="6.79903">
        <ele>1284.81</ele>
        <time>2021-06-28T12:02:13.762Z</time>
      </trkpt>
      <trkpt lat="47.01633" lon="6.79895">
        <ele>1284.33</ele>
        <time>2021-06-28T12:02:15.312Z</time>
      </trkpt>
      <trkpt lat="47.01623" lon="6.79885">
        <ele>1283.3399999851</ele>
        <time>2021-06-28T12:02:17.695Z</time>
      </trkpt>
      <trkpt lat="47.01618" lon="6.79881">
        <ele>1282.969999998</ele>
        <time>2021-06-28T12:02:18.735Z</time>
      </trkpt>
      <trkpt lat="47.01615" lon="6.7988">
        <ele>1282.68</ele>
        <time>2021-06-28T12:02:19.341Z</time>
      </trkpt>
      <trkpt lat="47.0161" lon="6.79878">
        <ele>1282.2100000007</ele>
        <time>2021-06-28T12:02:20.361Z</time>
      </trkpt>
      <trkpt lat="47.01601" lon="6.79876">
        <ele>1281.4900000031</ele>
        <time>2021-06-28T12:02:22.153Z</time>
      </trkpt>
      <trkpt lat="47.01592" lon="6.79873">
        <ele>1280.2899999974</ele>
        <time>2021-06-28T12:02:23.969Z</time>
      </trkpt>
      <trkpt lat="47.01585" lon="6.79868">
        <ele>1279.77</ele>
        <time>2021-06-28T12:02:25.502Z</time>
      </trkpt>
      <trkpt lat="47.01569" lon="6.79853">
        <ele>1279.86</ele>
        <time>2021-06-28T12:02:41.690Z</time>
      </trkpt>
      <trkpt lat="47.0157" lon="6.79853">
        <ele>1279.86</ele>
        <time>2021-06-28T12:02:42.312Z</time>
      </trkpt>
      <trkpt lat="47.01569" lon="6.79853">
        <ele>1279.86</ele>
        <time>2021-06-28T12:02:42.935Z</time>
      </trkpt>
      <trkpt lat="47.01565" lon="6.79849">
        <ele>1279.95</ele>
        <time>2021-06-28T12:02:47.693Z</time>
      </trkpt>
      <trkpt lat="47.01549" lon="6.79829">
        <ele>1279.1800000043</ele>
        <time>2021-06-28T12:02:52.601Z</time>
      </trkpt>
      <trkpt lat="47.01516" lon="6.79782">
        <ele>1280.6100000049</ele>
        <time>2021-06-28T12:03:45.045Z</time>
      </trkpt>
      <trkpt lat="47.01504" lon="6.79766">
        <ele>1281.41</ele>
        <time>2021-06-28T12:04:08.067Z</time>
      </trkpt>
      <trkpt lat="47.01502" lon="6.79759">
        <ele>1281.57</ele>
        <time>2021-06-28T12:04:13.954Z</time>
      </trkpt>
      <trkpt lat="47.01498" lon="6.79745">
        <ele>1281.14</ele>
        <time>2021-06-28T12:04:16.259Z</time>
      </trkpt>
      <trkpt lat="47.0149" lon="6.79721">
        <ele>1280.3899999754</ele>
        <time>2021-06-28T12:04:20.330Z</time>
      </trkpt>
      <trkpt lat="47.01484" lon="6.79702">
        <ele>1279.27</ele>
        <time>2021-06-28T12:04:23.141Z</time>
      </trkpt>
      <trkpt lat="47.01475" lon="6.79681">
        <ele>1278.44</ele>
        <time>2021-06-28T12:04:26.659Z</time>
      </trkpt>
      <trkpt lat="47.01467" lon="6.79662">
        <ele>1277.71</ele>
        <time>2021-06-28T12:04:29.859Z</time>
      </trkpt>
      <trkpt lat="47.01457" lon="6.79635">
        <ele>1276.02</ele>
        <time>2021-06-28T12:04:33.983Z</time>
      </trkpt>
      <trkpt lat="47.01454" lon="6.79625">
        <ele>1275.4</ele>
        <time>2021-06-28T12:04:35.449Z</time>
      </trkpt>
      <trkpt lat="47.01451" lon="6.79603">
        <ele>1273.56</ele>
        <time>2021-06-28T12:04:38.460Z</time>
      </trkpt>
      <trkpt lat="47.01449" lon="6.79595">
        <ele>1272.8500000111</ele>
        <time>2021-06-28T12:04:39.603Z</time>
      </trkpt>
      <trkpt lat="47.01446" lon="6.79585">
        <ele>1271.67</ele>
        <time>2021-06-28T12:04:41.070Z</time>
      </trkpt>
      <trkpt lat="47.01439" lon="6.79566">
        <ele>1269.32</ele>
        <time>2021-06-28T12:04:43.968Z</time>
      </trkpt>
      <trkpt lat="47.01433" lon="6.7955">
        <ele>1267.21</ele>
        <time>2021-06-28T12:04:46.419Z</time>
      </trkpt>
      <trkpt lat="47.0143" lon="6.79539">
        <ele>1265.3100000112</ele>
        <time>2021-06-28T12:04:48.009Z</time>
      </trkpt>
      <trkpt lat="47.01428" lon="6.79513">
        <ele>1261.2399998964</ele>
        <time>2021-06-28T12:04:51.520Z</time>
      </trkpt>
      <trkpt lat="47.01426" lon="6.79505">
        <ele>1259.8000000196</ele>
        <time>2021-06-28T12:04:52.664Z</time>
      </trkpt>
      <trkpt lat="47.01421" lon="6.79491">
        <ele>1257.67</ele>
        <time>2021-06-28T12:04:54.785Z</time>
      </trkpt>
      <trkpt lat="47.01415" lon="6.79479">
        <ele>1255.77</ele>
        <time>2021-06-28T12:04:56.782Z</time>
      </trkpt>
      <trkpt lat="47.01409" lon="6.79467">
        <ele>1253.7300000615</ele>
        <time>2021-06-28T12:04:58.779Z</time>
      </trkpt>
      <trkpt lat="47.01402" lon="6.79451">
        <ele>1251.5</ele>
        <time>2021-06-28T12:05:01.331Z</time>
      </trkpt>
      <trkpt lat="47.01385" lon="6.79427">
        <ele>1247.4899999766</ele>
        <time>2021-06-28T12:05:05.975Z</time>
      </trkpt>
      <trkpt lat="47.01377" lon="6.79415">
        <ele>1245.37</ele>
        <time>2021-06-28T12:05:08.228Z</time>
      </trkpt>
      <trkpt lat="47.01367" lon="6.79399">
        <ele>1243.0199999566</ele>
        <time>2021-06-28T12:05:11.141Z</time>
      </trkpt>
      <trkpt lat="47.01358" lon="6.79386">
        <ele>1240.3800000939</ele>
        <time>2021-06-28T12:05:13.627Z</time>
      </trkpt>
      <trkpt lat="47.01351" lon="6.7937">
        <ele>1237.21</ele>
        <time>2021-06-28T12:05:16.179Z</time>
      </trkpt>
      <trkpt lat="47.01343" lon="6.79355">
        <ele>1234.36</ele>
        <time>2021-06-28T12:05:18.734Z</time>
      </trkpt>
      <trkpt lat="47.01334" lon="6.79342">
        <ele>1232.4</ele>
        <time>2021-06-28T12:05:21.221Z</time>
      </trkpt>
      <trkpt lat="47.01324" lon="6.79328">
        <ele>1229.5500000068</ele>
        <time>2021-06-28T12:05:23.942Z</time>
      </trkpt>
      <trkpt lat="47.01314" lon="6.79309">
        <ele>1226.5699998772</ele>
        <time>2021-06-28T12:05:27.163Z</time>
      </trkpt>
      <trkpt lat="47.01306" lon="6.79289">
        <ele>1222.02</ele>
        <time>2021-06-28T12:05:30.276Z</time>
      </trkpt>
      <trkpt lat="47.01301" lon="6.79276">
        <ele>1220.2900000467</ele>
        <time>2021-06-28T12:05:32.279Z</time>
      </trkpt>
      <trkpt lat="47.01279" lon="6.79236">
        <ele>1213.2199999997</ele>
        <time>2021-06-28T12:05:39.176Z</time>
      </trkpt>
      <trkpt lat="47.01272" lon="6.79223">
        <ele>1212.0800000194</ele>
        <time>2021-06-28T12:05:41.399Z</time>
      </trkpt>
      <trkpt lat="47.01254" lon="6.79202">
        <ele>1211.52</ele>
        <time>2021-06-28T12:05:47.505Z</time>
      </trkpt>
      <trkpt lat="47.01254" lon="6.79202">
        <ele>1211.52</ele>
        <time>2021-06-28T12:05:47.797Z</time>
      </trkpt>
      <trkpt lat="47.01254" lon="6.79202">
        <ele>1211.52</ele>
        <time>2021-06-28T12:05:48.089Z</time>
      </trkpt>
      <trkpt lat="47.01253" lon="6.792">
        <ele>1210.9500000608</ele>
        <time>2021-06-28T12:05:48.422Z</time>
      </trkpt>
      <trkpt lat="47.01237" lon="6.79183">
        <ele>1209.94</ele>
        <time>2021-06-28T12:05:52.460Z</time>
      </trkpt>
      <trkpt lat="47.01225" lon="6.79165">
        <ele>1207.01</ele>
        <time>2021-06-28T12:05:55.839Z</time>
      </trkpt>
      <trkpt lat="47.01214" lon="6.79149">
        <ele>1205.23</ele>
        <time>2021-06-28T12:05:58.889Z</time>
      </trkpt>
      <trkpt lat="47.012" lon="6.79132">
        <ele>1201.6999999128</ele>
        <time>2021-06-28T12:06:02.466Z</time>
      </trkpt>
      <trkpt lat="47.0119" lon="6.79121">
        <ele>1198.5399999502</ele>
        <time>2021-06-28T12:06:04.927Z</time>
      </trkpt>
      <trkpt lat="47.01182" lon="6.79115">
        <ele>1196.8499999895</ele>
        <time>2021-06-28T12:06:06.695Z</time>
      </trkpt>
      <trkpt lat="47.01176" lon="6.7911">
        <ele>1195.05</ele>
        <time>2021-06-28T12:06:08.054Z</time>
      </trkpt>
      <trkpt lat="47.0117" lon="6.79103">
        <ele>1193.4700000572</ele>
        <time>2021-06-28T12:06:09.563Z</time>
      </trkpt>
      <trkpt lat="47.0116" lon="6.7909">
        <ele>1190.86</ele>
        <time>2021-06-28T12:06:12.193Z</time>
      </trkpt>
      <trkpt lat="47.01148" lon="6.79067">
        <ele>1187.8499999961</ele>
        <time>2021-06-28T12:06:16.080Z</time>
      </trkpt>
      <trkpt lat="47.01136" lon="6.79046">
        <ele>1184.3199999459</ele>
        <time>2021-06-28T12:06:19.758Z</time>
      </trkpt>
      <trkpt lat="47.01129" lon="6.79027">
        <ele>1181.4</ele>
        <time>2021-06-28T12:06:22.656Z</time>
      </trkpt>
      <trkpt lat="47.01124" lon="6.79004">
        <ele>1178.92</ele>
        <time>2021-06-28T12:06:25.896Z</time>
      </trkpt>
      <trkpt lat="47.01119" lon="6.78967">
        <ele>1175.560000036</ele>
        <time>2021-06-28T12:06:30.959Z</time>
      </trkpt>
      <trkpt lat="47.01116" lon="6.78917">
        <ele>1171.65</ele>
        <time>2021-06-28T12:06:37.696Z</time>
      </trkpt>
      <trkpt lat="47.01116" lon="6.78917">
        <ele>1171.65</ele>
        <time>2021-06-28T12:06:38.025Z</time>
      </trkpt>
      <trkpt lat="47.01116" lon="6.78917">
        <ele>1171.65</ele>
        <time>2021-06-28T12:06:38.354Z</time>
      </trkpt>
      <trkpt lat="47.01115" lon="6.78904">
        <ele>1167.73</ele>
        <time>2021-06-28T12:06:40.110Z</time>
      </trkpt>
      <trkpt lat="47.0111" lon="6.78836">
        <ele>1159.12</ele>
        <time>2021-06-28T12:06:49.290Z</time>
      </trkpt>
      <trkpt lat="47.01106" lon="6.78804">
        <ele>1156.0200000159</ele>
        <time>2021-06-28T12:06:53.656Z</time>
      </trkpt>
      <trkpt lat="47.01103" lon="6.78765">
        <ele>1152.9499999721</ele>
        <time>2021-06-28T12:06:58.924Z</time>
      </trkpt>
      <trkpt lat="47.01097" lon="6.78744">
        <ele>1151.9799999985</ele>
        <time>2021-06-28T12:07:01.815Z</time>
      </trkpt>
      <trkpt lat="47.01091" lon="6.7873">
        <ele>1151.91</ele>
        <time>2021-06-28T12:07:10.211Z</time>
      </trkpt>
      <trkpt lat="47.01084" lon="6.78715">
        <ele>1152.0599999994</ele>
        <time>2021-06-28T12:07:21.577Z</time>
      </trkpt>
      <trkpt lat="47.01075" lon="6.78702">
        <ele>1152.49</ele>
        <time>2021-06-28T12:07:36.545Z</time>
      </trkpt>
      <trkpt lat="47.01052" lon="6.78662">
        <ele>1151.63</ele>
        <time>2021-06-28T12:07:46.043Z</time>
      </trkpt>
      <trkpt lat="47.01039" lon="6.78638">
        <ele>1151.23</ele>
        <time>2021-06-28T12:07:51.934Z</time>
      </trkpt>
      <trkpt lat="47.01033" lon="6.78628">
        <ele>1151.08</ele>
        <time>2021-06-28T12:07:54.576Z</time>
      </trkpt>
      <trkpt lat="47.01034" lon="6.78628">
        <ele>1151.08</ele>
        <time>2021-06-28T12:07:55.358Z</time>
      </trkpt>
      <trkpt lat="47.01033" lon="6.78628">
        <ele>1151.08</ele>
        <time>2021-06-28T12:07:56.140Z</time>
      </trkpt>
      <trkpt lat="47.01023" lon="6.7861">
        <ele>1150.93</ele>
        <time>2021-06-28T12:08:01.179Z</time>
      </trkpt>
      <trkpt lat="47.01012" lon="6.78593">
        <ele>1150.68</ele>
        <time>2021-06-28T12:08:05.878Z</time>
      </trkpt>
      <trkpt lat="47.01006" lon="6.7858">
        <ele>1150.78</ele>
        <time>2021-06-28T12:08:15.423Z</time>
      </trkpt>
      <trkpt lat="47.00981" lon="6.78548">
        <ele>1150.64</ele>
        <time>2021-06-28T12:08:40.839Z</time>
      </trkpt>
      <trkpt lat="47.00964" lon="6.78532">
        <ele>1151.2300000261</ele>
        <time>2021-06-28T12:09:03.328Z</time>
      </trkpt>
      <trkpt lat="47.00953" lon="6.78521">
        <ele>1152.64</ele>
        <time>2021-06-28T12:09:33.285Z</time>
      </trkpt>
      <trkpt lat="47.00947" lon="6.78515">
        <ele>1153.059999997</ele>
        <time>2021-06-28T12:09:44.200Z</time>
      </trkpt>
      <trkpt lat="47.00923" lon="6.78484">
        <ele>1152.71</ele>
        <time>2021-06-28T12:09:54.183Z</time>
      </trkpt>
      <trkpt lat="47.009" lon="6.78458">
        <ele>1153.8399999875</ele>
        <time>2021-06-28T12:10:30.979Z</time>
      </trkpt>
      <trkpt lat="47.0087" lon="6.78431">
        <ele>1155.03</ele>
        <time>2021-06-28T12:11:12.558Z</time>
      </trkpt>
      <trkpt lat="47.00833" lon="6.78395">
        <ele>1154.13</ele>
        <time>2021-06-28T12:11:24.908Z</time>
      </trkpt>
      <trkpt lat="47.00811" lon="6.78372">
        <ele>1155.83</ele>
        <time>2021-06-28T12:12:06.995Z</time>
      </trkpt>
      <trkpt lat="47.00786" lon="6.78347">
        <ele>1157.6399999287</ele>
        <time>2021-06-28T12:12:53.106Z</time>
      </trkpt>
      <trkpt lat="47.00787" lon="6.78337">
        <ele>1156.4899999325</ele>
        <time>2021-06-28T12:12:54.463Z</time>
      </trkpt>
      <trkpt lat="47.00788" lon="6.78331">
        <ele>1155.800000022</ele>
        <time>2021-06-28T12:12:55.292Z</time>
      </trkpt>
      <trkpt lat="47.00788" lon="6.78323">
        <ele>1155.34</ele>
        <time>2021-06-28T12:12:56.366Z</time>
      </trkpt>
      <trkpt lat="47.00786" lon="6.78315">
        <ele>1154.5500000585</ele>
        <time>2021-06-28T12:12:57.509Z</time>
      </trkpt>
      <trkpt lat="47.00777" lon="6.78288">
        <ele>1151.63</ele>
        <time>2021-06-28T12:13:01.543Z</time>
      </trkpt>
      <trkpt lat="47.00777" lon="6.78289">
        <ele>1151.63</ele>
        <time>2021-06-28T12:13:01.967Z</time>
      </trkpt>
      <trkpt lat="47.00777" lon="6.78288">
        <ele>1151.63</ele>
        <time>2021-06-28T12:13:02.391Z</time>
      </trkpt>
      <trkpt lat="47.00758" lon="6.78235">
        <ele>1148.72</ele>
        <time>2021-06-28T12:13:10.428Z</time>
      </trkpt>
      <trkpt lat="47.00753" lon="6.78222">
        <ele>1147.78</ele>
        <time>2021-06-28T12:13:12.431Z</time>
      </trkpt>
      <trkpt lat="47.00742" lon="6.78197">
        <ele>1146.05</ele>
        <time>2021-06-28T12:13:16.425Z</time>
      </trkpt>
      <trkpt lat="47.00734" lon="6.78183">
        <ele>1145.15</ele>
        <time>2021-06-28T12:13:18.877Z</time>
      </trkpt>
      <trkpt lat="47.00724" lon="6.7817">
        <ele>1144.2699999843</ele>
        <time>2021-06-28T12:13:21.301Z</time>
      </trkpt>
      <trkpt lat="47.00714" lon="6.7816">
        <ele>1143.2699999881</ele>
        <time>2021-06-28T12:13:23.684Z</time>
      </trkpt>
      <trkpt lat="47.00708" lon="6.78154">
        <ele>1143.06</ele>
        <time>2021-06-28T12:13:25.518Z</time>
      </trkpt>
      <trkpt lat="47.00706" lon="6.78152">
        <ele>1142.8</ele>
        <time>2021-06-28T12:13:25.995Z</time>
      </trkpt>
      <trkpt lat="47.00704" lon="6.78148">
        <ele>1142.52</ele>
        <time>2021-06-28T12:13:26.660Z</time>
      </trkpt>
      <trkpt lat="47.00703" lon="6.78144">
        <ele>1142.1100000116</ele>
        <time>2021-06-28T12:13:27.232Z</time>
      </trkpt>
      <trkpt lat="47.00702" lon="6.7814">
        <ele>1141.64</ele>
        <time>2021-06-28T12:13:27.804Z</time>
      </trkpt>
      <trkpt lat="47.00702" lon="6.78134">
        <ele>1140.9500000039</ele>
        <time>2021-06-28T12:13:28.610Z</time>
      </trkpt>
      <trkpt lat="47.00703" lon="6.78128">
        <ele>1140.48</ele>
        <time>2021-06-28T12:13:29.439Z</time>
      </trkpt>
      <trkpt lat="47.00704" lon="6.78125">
        <ele>1140.06</ele>
        <time>2021-06-28T12:13:29.887Z</time>
      </trkpt>
      <trkpt lat="47.00707" lon="6.78123">
        <ele>1139.49</ele>
        <time>2021-06-28T12:13:30.535Z</time>
      </trkpt>
      <trkpt lat="47.00709" lon="6.78122">
        <ele>1139.49</ele>
        <time>2021-06-28T12:13:32.259Z</time>
      </trkpt>
      <trkpt lat="47.00713" lon="6.78122">
        <ele>1138.8</ele>
        <time>2021-06-28T12:13:33.046Z</time>
      </trkpt>
      <trkpt lat="47.00718" lon="6.78123">
        <ele>1137.8900000741</ele>
        <time>2021-06-28T12:13:34.039Z</time>
      </trkpt>
      <trkpt lat="47.0073" lon="6.78128">
        <ele>1135.5800000566</ele>
        <time>2021-06-28T12:13:36.495Z</time>
      </trkpt>
      <trkpt lat="47.00748" lon="6.78136">
        <ele>1132.32</ele>
        <time>2021-06-28T12:13:40.197Z</time>
      </trkpt>
      <trkpt lat="47.00773" lon="6.78148">
        <ele>1127.5899998981</ele>
        <time>2021-06-28T12:13:45.375Z</time>
      </trkpt>
      <trkpt lat="47.00779" lon="6.78152">
        <ele>1124.53</ele>
        <time>2021-06-28T12:13:46.672Z</time>
      </trkpt>
      <trkpt lat="47.0078" lon="6.78152">
        <ele>1124.53</ele>
        <time>2021-06-28T12:13:47.282Z</time>
      </trkpt>
      <trkpt lat="47.00779" lon="6.78152">
        <ele>1124.53</ele>
        <time>2021-06-28T12:13:47.891Z</time>
      </trkpt>
      <trkpt lat="47.00806" lon="6.78167">
        <ele>1121.4699999738</ele>
        <time>2021-06-28T12:13:53.575Z</time>
      </trkpt>
      <trkpt lat="47.00832" lon="6.7818">
        <ele>1116.6600000231</ele>
        <time>2021-06-28T12:13:58.982Z</time>
      </trkpt>
      <trkpt lat="47.00865" lon="6.782">
        <ele>1109.9699999247</ele>
        <time>2021-06-28T12:14:06.010Z</time>
      </trkpt>
      <trkpt lat="47.00892" lon="6.78216">
        <ele>1104.5699999785</ele>
        <time>2021-06-28T12:14:11.743Z</time>
      </trkpt>
      <trkpt lat="47.00906" lon="6.78222">
        <ele>1102.139999983</ele>
        <time>2021-06-28T12:14:14.614Z</time>
      </trkpt>
      <trkpt lat="47.0091" lon="6.78225">
        <ele>1101.4300000111</ele>
        <time>2021-06-28T12:14:15.498Z</time>
      </trkpt>
      <trkpt lat="47.00919" lon="6.78232">
        <ele>1099.4799999004</ele>
        <time>2021-06-28T12:14:17.503Z</time>
      </trkpt>
      <trkpt lat="47.00924" lon="6.78234">
        <ele>1098.3299999628</ele>
        <time>2021-06-28T12:14:18.523Z</time>
      </trkpt>
      <trkpt lat="47.00928" lon="6.78234">
        <ele>1097.4599999431</ele>
        <time>2021-06-28T12:14:19.311Z</time>
      </trkpt>
      <trkpt lat="47.00931" lon="6.78232">
        <ele>1096.6</ele>
        <time>2021-06-28T12:14:19.959Z</time>
      </trkpt>
      <trkpt lat="47.00934" lon="6.78227">
        <ele>1096.0299999909</ele>
        <time>2021-06-28T12:14:20.853Z</time>
      </trkpt>
      <trkpt lat="47.00935" lon="6.78223">
        <ele>1095.7600000318</ele>
        <time>2021-06-28T12:14:21.425Z</time>
      </trkpt>
      <trkpt lat="47.00935" lon="6.78217">
        <ele>1095.2800000056</ele>
        <time>2021-06-28T12:14:22.230Z</time>
      </trkpt>
      <trkpt lat="47.00933" lon="6.78211">
        <ele>1094.65</ele>
        <time>2021-06-28T12:14:23.127Z</time>
      </trkpt>
      <trkpt lat="47.00928" lon="6.78203">
        <ele>1093.8200000692</ele>
        <time>2021-06-28T12:14:24.583Z</time>
      </trkpt>
      <trkpt lat="47.00909" lon="6.78177">
        <ele>1092.49</ele>
        <time>2021-06-28T12:14:29.893Z</time>
      </trkpt>
      <trkpt lat="47.00905" lon="6.78169">
        <ele>1092.38</ele>
        <time>2021-06-28T12:14:31.867Z</time>
      </trkpt>
      <trkpt lat="47.00905" lon="6.7817">
        <ele>1092.38</ele>
        <time>2021-06-28T12:14:32.505Z</time>
      </trkpt>
      <trkpt lat="47.00905" lon="6.78169">
        <ele>1092.38</ele>
        <time>2021-06-28T12:14:33.144Z</time>
      </trkpt>
      <trkpt lat="47.00897" lon="6.78157">
        <ele>1092.27</ele>
        <time>2021-06-28T12:14:36.780Z</time>
      </trkpt>
      <trkpt lat="47.00887" lon="6.78141">
        <ele>1091.829999997</ele>
        <time>2021-06-28T12:14:40.487Z</time>
      </trkpt>
      <trkpt lat="47.00881" lon="6.7813">
        <ele>1091.28</ele>
        <time>2021-06-28T12:14:42.352Z</time>
      </trkpt>
      <trkpt lat="47.00878" lon="6.78123">
        <ele>1090.8199999972</ele>
        <time>2021-06-28T12:14:43.461Z</time>
      </trkpt>
      <trkpt lat="47.00877" lon="6.78117">
        <ele>1089.99</ele>
        <time>2021-06-28T12:14:44.290Z</time>
      </trkpt>
      <trkpt lat="47.00877" lon="6.78112">
        <ele>1089.49</ele>
        <time>2021-06-28T12:14:44.961Z</time>
      </trkpt>
      <trkpt lat="47.00877" lon="6.78104">
        <ele>1087.7400000926</ele>
        <time>2021-06-28T12:14:46.035Z</time>
      </trkpt>
      <trkpt lat="47.0088" lon="6.78095">
        <ele>1086.91</ele>
        <time>2021-06-28T12:14:47.380Z</time>
      </trkpt>
      <trkpt lat="47.00884" lon="6.78088">
        <ele>1086.2299999673</ele>
        <time>2021-06-28T12:14:48.606Z</time>
      </trkpt>
      <trkpt lat="47.00887" lon="6.78085">
        <ele>1085.7300000051</ele>
        <time>2021-06-28T12:14:49.320Z</time>
      </trkpt>
      <trkpt lat="47.00895" lon="6.78076">
        <ele>1084.2200000355</ele>
        <time>2021-06-28T12:14:51.305Z</time>
      </trkpt>
      <trkpt lat="47.00909" lon="6.78063">
        <ele>1082.46</ele>
        <time>2021-06-28T12:14:54.567Z</time>
      </trkpt>
      <trkpt lat="47.00917" lon="6.78057">
        <ele>1081.4299999871</ele>
        <time>2021-06-28T12:14:56.336Z</time>
      </trkpt>
      <trkpt lat="47.00923" lon="6.78054">
        <ele>1080.89</ele>
        <time>2021-06-28T12:14:57.583Z</time>
      </trkpt>
      <trkpt lat="47.00929" lon="6.78054">
        <ele>1080.5299999827</ele>
        <time>2021-06-28T12:14:58.723Z</time>
      </trkpt>
      <trkpt lat="47.00933" lon="6.78056">
        <ele>1080.29</ele>
        <time>2021-06-28T12:14:59.547Z</time>
      </trkpt>
      <trkpt lat="47.00936" lon="6.78058">
        <ele>1080.19</ele>
        <time>2021-06-28T12:15:00.367Z</time>
      </trkpt>
      <trkpt lat="47.00942" lon="6.78066">
        <ele>1079.690000018</ele>
        <time>2021-06-28T12:15:01.887Z</time>
      </trkpt>
      <trkpt lat="47.00958" lon="6.78089">
        <ele>1078.6799999912</ele>
        <time>2021-06-28T12:15:06.717Z</time>
      </trkpt>
      <trkpt lat="47.00972" lon="6.78109">
        <ele>1077.8</ele>
        <time>2021-06-28T12:15:10.933Z</time>
      </trkpt>
      <trkpt lat="47.00973" lon="6.78109">
        <ele>1077.8</ele>
        <time>2021-06-28T12:15:11.379Z</time>
      </trkpt>
      <trkpt lat="47.00972" lon="6.78109">
        <ele>1077.8</ele>
        <time>2021-06-28T12:15:11.826Z</time>
      </trkpt>
      <trkpt lat="47.00989" lon="6.78133">
        <ele>1076.9100000161</ele>
        <time>2021-06-28T12:15:17.277Z</time>
      </trkpt>
      <trkpt lat="47.0101" lon="6.78162">
        <ele>1075.64</ele>
        <time>2021-06-28T12:15:23.556Z</time>
      </trkpt>
      <trkpt lat="47.01023" lon="6.78184">
        <ele>1074.7300000066</ele>
        <time>2021-06-28T12:15:27.807Z</time>
      </trkpt>
      <trkpt lat="47.01049" lon="6.78234">
        <ele>1072.63</ele>
        <time>2021-06-28T12:15:36.735Z</time>
      </trkpt>
      <trkpt lat="47.01057" lon="6.78249">
        <ele>1072.1299999974</ele>
        <time>2021-06-28T12:15:39.712Z</time>
      </trkpt>
      <trkpt lat="47.01065" lon="6.78261">
        <ele>1071.8400000123</ele>
        <time>2021-06-28T12:15:42.717Z</time>
      </trkpt>
      <trkpt lat="47.01081" lon="6.78284">
        <ele>1071.0300000105</ele>
        <time>2021-06-28T12:15:47.972Z</time>
      </trkpt>
      <trkpt lat="47.01123" lon="6.7834">
        <ele>1069.3299999939</ele>
        <time>2021-06-28T12:16:02.155Z</time>
      </trkpt>
      <trkpt lat="47.01143" lon="6.78366">
        <ele>1068.54</ele>
        <time>2021-06-28T12:16:08.861Z</time>
      </trkpt>
      <trkpt lat="47.01154" lon="6.78379">
        <ele>1068.0900000135</ele>
        <time>2021-06-28T12:16:12.321Z</time>
      </trkpt>
      <trkpt lat="47.01174" lon="6.784">
        <ele>1067.3499999982</ele>
        <time>2021-06-28T12:16:18.458Z</time>
      </trkpt>
      <trkpt lat="47.01191" lon="6.78421">
        <ele>1066.6899999995</ele>
        <time>2021-06-28T12:16:24.027Z</time>
      </trkpt>
      <trkpt lat="47.01199" lon="6.78431">
        <ele>1066.4200000016</ele>
        <time>2021-06-28T12:16:26.776Z</time>
      </trkpt>
      <trkpt lat="47.0121" lon="6.78447">
        <ele>1066.13</ele>
        <time>2021-06-28T12:16:31.165Z</time>
      </trkpt>
      <trkpt lat="47.01216" lon="6.78455">
        <ele>1065.9399999877</ele>
        <time>2021-06-28T12:16:33.340Z</time>
      </trkpt>
      <trkpt lat="47.01221" lon="6.78458">
        <ele>1065.5799999829</ele>
        <time>2021-06-28T12:16:34.314Z</time>
      </trkpt>
      <trkpt lat="47.01225" lon="6.7846">
        <ele>1065.3199999644</ele>
        <time>2021-06-28T12:16:35.107Z</time>
      </trkpt>
      <trkpt lat="47.01227" lon="6.7846">
        <ele>1065.07</ele>
        <time>2021-06-28T12:16:35.501Z</time>
      </trkpt>
      <trkpt lat="47.0123" lon="6.7846">
        <ele>1064.86</ele>
        <time>2021-06-28T12:16:36.092Z</time>
      </trkpt>
      <trkpt lat="47.01234" lon="6.78458">
        <ele>1064.3900000081</ele>
        <time>2021-06-28T12:16:36.923Z</time>
      </trkpt>
      <trkpt lat="47.01239" lon="6.78454">
        <ele>1063.6800000036</ele>
        <time>2021-06-28T12:16:38.044Z</time>
      </trkpt>
      <trkpt lat="47.01251" lon="6.78441">
        <ele>1061.9399999611</ele>
        <time>2021-06-28T12:16:40.981Z</time>
      </trkpt>
      <trkpt lat="47.01255" lon="6.78438">
        <ele>1061.3200000387</ele>
        <time>2021-06-28T12:16:41.865Z</time>
      </trkpt>
      <trkpt lat="47.0126" lon="6.78436">
        <ele>1060.69</ele>
        <time>2021-06-28T12:16:42.886Z</time>
      </trkpt>
      <trkpt lat="47.01265" lon="6.78436">
        <ele>1060.16</ele>
        <time>2021-06-28T12:16:43.870Z</time>
      </trkpt>
      <trkpt lat="47.01271" lon="6.78438">
        <ele>1059.13</ele>
        <time>2021-06-28T12:16:45.081Z</time>
      </trkpt>
      <trkpt lat="47.0128" lon="6.78444">
        <ele>1058.0799998994</ele>
        <time>2021-06-28T12:16:47.027Z</time>
      </trkpt>
      <trkpt lat="47.01283" lon="6.78446">
        <ele>1055.2</ele>
        <time>2021-06-28T12:16:47.676Z</time>
      </trkpt>
      <trkpt lat="47.01283" lon="6.78446">
        <ele>1055.2</ele>
        <time>2021-06-28T12:16:47.752Z</time>
      </trkpt>
      <trkpt lat="47.01283" lon="6.78446">
        <ele>1055.2</ele>
        <time>2021-06-28T12:16:47.829Z</time>
      </trkpt>
      <trkpt lat="47.01326" lon="6.78479">
        <ele>1052.32</ele>
        <time>2021-06-28T12:16:57.094Z</time>
      </trkpt>
      <trkpt lat="47.01338" lon="6.78489">
        <ele>1050.95</ele>
        <time>2021-06-28T12:16:59.811Z</time>
      </trkpt>
      <trkpt lat="47.01346" lon="6.78495">
        <ele>1049.77</ele>
        <time>2021-06-28T12:17:01.580Z</time>
      </trkpt>
      <trkpt lat="47.01355" lon="6.78501">
        <ele>1048.8399999886</ele>
        <time>2021-06-28T12:17:03.526Z</time>
      </trkpt>
      <trkpt lat="47.01363" lon="6.78505">
        <ele>1047.81</ele>
        <time>2021-06-28T12:17:05.190Z</time>
      </trkpt>
      <trkpt lat="47.01376" lon="6.7851">
        <ele>1046.3299999621</ele>
        <time>2021-06-28T12:17:07.835Z</time>
      </trkpt>
      <trkpt lat="47.01385" lon="6.78516">
        <ele>1045.2299999467</ele>
        <time>2021-06-28T12:17:09.781Z</time>
      </trkpt>
      <trkpt lat="47.01392" lon="6.78521">
        <ele>1044.3200000227</ele>
        <time>2021-06-28T12:17:11.314Z</time>
      </trkpt>
      <trkpt lat="47.01404" lon="6.78532">
        <ele>1042.79</ele>
        <time>2021-06-28T12:17:14.099Z</time>
      </trkpt>
      <trkpt lat="47.01411" lon="6.78536">
        <ele>1042.0699999939</ele>
        <time>2021-06-28T12:17:15.578Z</time>
      </trkpt>
      <trkpt lat="47.01414" lon="6.78537">
        <ele>1041.7100000189</ele>
        <time>2021-06-28T12:17:16.183Z</time>
      </trkpt>
      <trkpt lat="47.0142" lon="6.78538">
        <ele>1041.0400000038</ele>
        <time>2021-06-28T12:17:17.372Z</time>
      </trkpt>
      <trkpt lat="47.01447" lon="6.78539">
        <ele>1038.39</ele>
        <time>2021-06-28T12:17:22.688Z</time>
      </trkpt>
      <trkpt lat="47.0146" lon="6.78541">
        <ele>1037.02</ele>
        <time>2021-06-28T12:17:25.261Z</time>
      </trkpt>
      <trkpt lat="47.01486" lon="6.78548">
        <ele>1034.4499999933</ele>
        <time>2021-06-28T12:17:30.465Z</time>
      </trkpt>
      <trkpt lat="47.01494" lon="6.78551">
        <ele>1033.3</ele>
        <time>2021-06-28T12:17:32.090Z</time>
      </trkpt>
      <trkpt lat="47.01505" lon="6.78556">
        <ele>1032.179999953</ele>
        <time>2021-06-28T12:17:34.357Z</time>
      </trkpt>
      <trkpt lat="47.01512" lon="6.78561">
        <ele>1031.2799999728</ele>
        <time>2021-06-28T12:17:35.889Z</time>
      </trkpt>
      <trkpt lat="47.01518" lon="6.78567">
        <ele>1030.3600000185</ele>
        <time>2021-06-28T12:17:37.319Z</time>
      </trkpt>
      <trkpt lat="47.01526" lon="6.78572">
        <ele>1029.3</ele>
        <time>2021-06-28T12:17:39.031Z</time>
      </trkpt>
      <trkpt lat="47.01568" lon="6.78597">
        <ele>1023.9399999723</ele>
        <time>2021-06-28T12:17:47.953Z</time>
      </trkpt>
      <trkpt lat="47.01577" lon="6.78603">
        <ele>1023.0000000152</ele>
        <time>2021-06-28T12:17:49.899Z</time>
      </trkpt>
      <trkpt lat="47.01594" lon="6.78616">
        <ele>1020.8799999958</ele>
        <time>2021-06-28T12:17:53.672Z</time>
      </trkpt>
      <trkpt lat="47.0161" lon="6.78629">
        <ele>1018.7799999938</ele>
        <time>2021-06-28T12:17:57.273Z</time>
      </trkpt>
      <trkpt lat="47.01626" lon="6.7864">
        <ele>1017.02</ele>
        <time>2021-06-28T12:18:00.751Z</time>
      </trkpt>
      <trkpt lat="47.01633" lon="6.78645">
        <ele>1016.25</ele>
        <time>2021-06-28T12:18:02.284Z</time>
      </trkpt>
      <trkpt lat="47.01639" lon="6.78646">
        <ele>1015.6499999425</ele>
        <time>2021-06-28T12:18:03.472Z</time>
      </trkpt>
      <trkpt lat="47.01644" lon="6.78645">
        <ele>1014.9199999907</ele>
        <time>2021-06-28T12:18:04.466Z</time>
      </trkpt>
      <trkpt lat="47.01648" lon="6.78643">
        <ele>1014.57</ele>
        <time>2021-06-28T12:18:05.297Z</time>
      </trkpt>
      <trkpt lat="47.01653" lon="6.78635">
        <ele>1013.5499999347</ele>
        <time>2021-06-28T12:18:06.754Z</time>
      </trkpt>
      <trkpt lat="47.01655" lon="6.78629">
        <ele>1012.89</ele>
        <time>2021-06-28T12:18:07.650Z</time>
      </trkpt>
      <trkpt lat="47.01656" lon="6.78622">
        <ele>1012.419999998</ele>
        <time>2021-06-28T12:18:08.610Z</time>
      </trkpt>
      <trkpt lat="47.01656" lon="6.78618">
        <ele>1012.39</ele>
        <time>2021-06-28T12:18:09.461Z</time>
      </trkpt>
      <trkpt lat="47.01666" lon="6.78628">
        <ele>1012.38</ele>
        <time>2021-06-28T12:18:19.207Z</time>
      </trkpt>
      <trkpt lat="47.01685" lon="6.78647">
        <ele>1012.28</ele>
        <time>2021-06-28T12:18:36.787Z</time>
      </trkpt>
      <trkpt lat="47.01702" lon="6.78669">
        <ele>1012.4299999998</ele>
        <time>2021-06-28T12:18:56.467Z</time>
      </trkpt>
      <trkpt lat="47.01721" lon="6.78694">
        <ele>1013.0200000008</ele>
        <time>2021-06-28T12:19:22.872Z</time>
      </trkpt>
      <trkpt lat="47.01735" lon="6.78713">
        <ele>1013.0800000009</ele>
        <time>2021-06-28T12:19:38.887Z</time>
      </trkpt>
      <trkpt lat="47.01744" lon="6.78726">
        <ele>1013.11</ele>
        <time>2021-06-28T12:19:49.416Z</time>
      </trkpt>
      <trkpt lat="47.01749" lon="6.78733">
        <ele>1013.17</ele>
        <time>2021-06-28T12:19:55.540Z</time>
      </trkpt>
      <trkpt lat="47.01758" lon="6.78744">
        <ele>1013.27</ele>
        <time>2021-06-28T12:20:05.903Z</time>
      </trkpt>
      <trkpt lat="47.01776" lon="6.78765">
        <ele>1013.41</ele>
        <time>2021-06-28T12:20:25.766Z</time>
      </trkpt>
      <trkpt lat="47.01795" lon="6.78788">
        <ele>1013.4599999996</ele>
        <time>2021-06-28T12:20:46.235Z</time>
      </trkpt>
      <trkpt lat="47.01821" lon="6.78817">
        <ele>1013.4500000013</ele>
        <time>2021-06-28T12:21:12.746Z</time>
      </trkpt>
      <trkpt lat="47.01844" lon="6.78843">
        <ele>1013.5700000019</ele>
        <time>2021-06-28T12:21:37.357Z</time>
      </trkpt>
      <trkpt lat="47.01859" lon="6.78859">
        <ele>1013.64</ele>
        <time>2021-06-28T12:21:53.023Z</time>
      </trkpt>
      <trkpt lat="47.01865" lon="6.78866">
        <ele>1013.7499999992</ele>
        <time>2021-06-28T12:22:00.220Z</time>
      </trkpt>
      <trkpt lat="47.01882" lon="6.78887">
        <ele>1014.0900000047</ele>
        <time>2021-06-28T12:22:21.297Z</time>
      </trkpt>
      <trkpt lat="47.01894" lon="6.78904">
        <ele>1014.36</ele>
        <time>2021-06-28T12:22:37.269Z</time>
      </trkpt>
      <trkpt lat="47.01899" lon="6.78912">
        <ele>1014.68</ele>
        <time>2021-06-28T12:22:47.261Z</time>
      </trkpt>
      <trkpt lat="47.01902" lon="6.78917">
        <ele>1014.8399999802</ele>
        <time>2021-06-28T12:22:52.729Z</time>
      </trkpt>
      <trkpt lat="47.01905" lon="6.78923">
        <ele>1014.95</ele>
        <time>2021-06-28T12:22:57.891Z</time>
      </trkpt>
      <trkpt lat="47.01912" lon="6.78937">
        <ele>1015.16</ele>
        <time>2021-06-28T12:23:09.415Z</time>
      </trkpt>
      <trkpt lat="47.01924" lon="6.78965">
        <ele>1015.26</ele>
        <time>2021-06-28T12:23:28.581Z</time>
      </trkpt>
      <trkpt lat="47.0195" lon="6.79024">
        <ele>1015.19</ele>
        <time>2021-06-28T12:24:06.781Z</time>
      </trkpt>
      <trkpt lat="47.0195" lon="6.79026">
        <ele>1015.23</ele>
        <time>2021-06-28T12:24:08.301Z</time>
      </trkpt>
      <trkpt lat="47.01951" lon="6.79026">
        <ele>1015.23</ele>
        <time>2021-06-28T12:24:08.849Z</time>
      </trkpt>
      <trkpt lat="47.0195" lon="6.79026">
        <ele>1015.23</ele>
        <time>2021-06-28T12:24:09.397Z</time>
      </trkpt>
      <trkpt lat="47.0195" lon="6.79024">
        <ele>1015.19</ele>
        <time>2021-06-28T12:24:09.740Z</time>
      </trkpt>
      <trkpt lat="47.01957" lon="6.79042">
        <ele>1015.2699999999</ele>
        <time>2021-06-28T12:24:21.890Z</time>
      </trkpt>
      <trkpt lat="47.0198" lon="6.79095">
        <ele>1015.7300000014</ele>
        <time>2021-06-28T12:25:00.628Z</time>
      </trkpt>
      <trkpt lat="47.01997" lon="6.79139">
        <ele>1016.030000002</ele>
        <time>2021-06-28T12:25:31.179Z</time>
      </trkpt>
      <trkpt lat="47.02004" lon="6.79157">
        <ele>1016.0999999992</ele>
        <time>2021-06-28T12:25:43.247Z</time>
      </trkpt>
      <trkpt lat="47.02013" lon="6.79182">
        <ele>1016.17</ele>
        <time>2021-06-28T12:25:59.505Z</time>
      </trkpt>
      <trkpt lat="47.02018" lon="6.79194">
        <ele>1016.1999999986</ele>
        <time>2021-06-28T12:26:07.554Z</time>
      </trkpt>
      <trkpt lat="47.02025" lon="6.79218">
        <ele>1016.2700000003</ele>
        <time>2021-06-28T12:26:22.609Z</time>
      </trkpt>
      <trkpt lat="47.0203" lon="6.79234">
        <ele>1016.2899999997</ele>
        <time>2021-06-28T12:26:32.545Z</time>
      </trkpt>
      <trkpt lat="47.02047" lon="6.79286">
        <ele>1016.3800000009</ele>
        <time>2021-06-28T12:27:05.292Z</time>
      </trkpt>
      <trkpt lat="47.02056" lon="6.79311">
        <ele>1016.44</ele>
        <time>2021-06-28T12:27:21.470Z</time>
      </trkpt>
      <trkpt lat="47.02061" lon="6.79325">
        <ele>1016.58</ele>
        <time>2021-06-28T12:27:31.443Z</time>
      </trkpt>
      <trkpt lat="47.02062" lon="6.79327">
        <ele>1016.6</ele>
        <time>2021-06-28T12:27:32.990Z</time>
      </trkpt>
      <trkpt lat="47.0207" lon="6.79345">
        <ele>1016.77</ele>
        <time>2021-06-28T12:27:46.356Z</time>
      </trkpt>
      <trkpt lat="47.02081" lon="6.79367">
        <ele>1016.9700000089</ele>
        <time>2021-06-28T12:28:03.180Z</time>
      </trkpt>
      <trkpt lat="47.02085" lon="6.79374">
        <ele>1017.15</ele>
        <time>2021-06-28T12:28:10.086Z</time>
      </trkpt>
      <trkpt lat="47.02094" lon="6.79389">
        <ele>1017.51</ele>
        <time>2021-06-28T12:28:24.742Z</time>
      </trkpt>
      <trkpt lat="47.02106" lon="6.79408">
        <ele>1017.97</ele>
        <time>2021-06-28T12:28:43.654Z</time>
      </trkpt>
      <trkpt lat="47.02129" lon="6.79442">
        <ele>1019.03</ele>
        <time>2021-06-28T12:29:21.549Z</time>
      </trkpt>
      <trkpt lat="47.02137" lon="6.79453">
        <ele>1019.35</ele>
        <time>2021-06-28T12:29:33.753Z</time>
      </trkpt>
      <trkpt lat="47.02167" lon="6.79496">
        <ele>1020.9700000148</ele>
        <time>2021-06-28T12:30:26.681Z</time>
      </trkpt>
      <trkpt lat="47.02182" lon="6.79517">
        <ele>1021.7299999888</ele>
        <time>2021-06-28T12:30:52.135Z</time>
      </trkpt>
      <trkpt lat="47.02202" lon="6.79547">
        <ele>1022.790000017</ele>
        <time>2021-06-28T12:31:27.448Z</time>
      </trkpt>
      <trkpt lat="47.02206" lon="6.79552">
        <ele>1023.04</ele>
        <time>2021-06-28T12:31:34.824Z</time>
      </trkpt>
      <trkpt lat="47.02212" lon="6.7956">
        <ele>1023.39</ele>
        <time>2021-06-28T12:31:45.759Z</time>
      </trkpt>
      <trkpt lat="47.02214" lon="6.79562">
        <ele>1023.489999995</ele>
        <time>2021-06-28T12:31:48.935Z</time>
      </trkpt>
      <trkpt lat="47.02229" lon="6.79577">
        <ele>1023.770000004</ele>
        <time>2021-06-28T12:32:06.174Z</time>
      </trkpt>
      <trkpt lat="47.02239" lon="6.79588">
        <ele>1024.1500000041</ele>
        <time>2021-06-28T12:32:20.300Z</time>
      </trkpt>
      <trkpt lat="47.0224" lon="6.79589">
        <ele>1024.1699999979</ele>
        <time>2021-06-28T12:32:21.463Z</time>
      </trkpt>
      <trkpt lat="47.02247" lon="6.79598">
        <ele>1024.34</ele>
        <time>2021-06-28T12:32:30.579Z</time>
      </trkpt>
      <trkpt lat="47.02256" lon="6.79611">
        <ele>1024.9300000183</ele>
        <time>2021-06-28T12:32:48.209Z</time>
      </trkpt>
      <trkpt lat="47.02259" lon="6.79619">
        <ele>1025.26</ele>
        <time>2021-06-28T12:32:57.263Z</time>
      </trkpt>
      <trkpt lat="47.02265" lon="6.7963">
        <ele>1025.799999985</ele>
        <time>2021-06-28T12:33:11.539Z</time>
      </trkpt>
      <trkpt lat="47.02273" lon="6.79649">
        <ele>1026.7299999997</ele>
        <time>2021-06-28T12:33:34.947Z</time>
      </trkpt>
      <trkpt lat="47.02286" lon="6.79672">
        <ele>1027.93</ele>
        <time>2021-06-28T12:34:05.790Z</time>
      </trkpt>
      <trkpt lat="47.02305" lon="6.79697">
        <ele>1028.9000000007</ele>
        <time>2021-06-28T12:34:37.718Z</time>
      </trkpt>
      <trkpt lat="47.02324" lon="6.79718">
        <ele>1029.71</ele>
        <time>2021-06-28T12:35:05.909Z</time>
      </trkpt>
      <trkpt lat="47.02332" lon="6.79726">
        <ele>1029.98</ele>
        <time>2021-06-28T12:35:16.513Z</time>
      </trkpt>
      <trkpt lat="47.02343" lon="6.79736">
        <ele>1030.3699999965</ele>
        <time>2021-06-28T12:35:31.090Z</time>
      </trkpt>
      <trkpt lat="47.02358" lon="6.79748">
        <ele>1030.94</ele>
        <time>2021-06-28T12:35:51.153Z</time>
      </trkpt>
      <trkpt lat="47.02363" lon="6.79753">
        <ele>1031.0399999988</ele>
        <time>2021-06-28T12:35:56.968Z</time>
      </trkpt>
      <trkpt lat="47.02374" lon="6.79764">
        <ele>1030.9500000001</ele>
        <time>2021-06-28T12:36:06.805Z</time>
      </trkpt>
      <trkpt lat="47.02385" lon="6.79779">
        <ele>1031.0000000019</ele>
        <time>2021-06-28T12:36:19.437Z</time>
      </trkpt>
      <trkpt lat="47.02393" lon="6.79792">
        <ele>1031.15</ele>
        <time>2021-06-28T12:36:30.439Z</time>
      </trkpt>
      <trkpt lat="47.024" lon="6.79805">
        <ele>1031.15</ele>
        <time>2021-06-28T12:36:39.648Z</time>
      </trkpt>
      <trkpt lat="47.02405" lon="6.79818">
        <ele>1031.4299999967</ele>
        <time>2021-06-28T12:36:50.741Z</time>
      </trkpt>
      <trkpt lat="47.02413" lon="6.7984">
        <ele>1031.6999999965</ele>
        <time>2021-06-28T12:37:06.962Z</time>
      </trkpt>
      <trkpt lat="47.02426" lon="6.79876">
        <ele>1031.769999999</ele>
        <time>2021-06-28T12:37:30.144Z</time>
      </trkpt>
      <trkpt lat="47.02437" lon="6.79907">
        <ele>1031.52</ele>
        <time>2021-06-28T12:37:37.625Z</time>
      </trkpt>
      <trkpt lat="47.02447" lon="6.79933">
        <ele>1031.1999999971</ele>
        <time>2021-06-28T12:37:43.603Z</time>
      </trkpt>
      <trkpt lat="47.02457" lon="6.79959">
        <ele>1030.2999999938</ele>
        <time>2021-06-28T12:37:48.024Z</time>
      </trkpt>
      <trkpt lat="47.02463" lon="6.79971">
        <ele>1029.96</ele>
        <time>2021-06-28T12:37:50.468Z</time>
      </trkpt>
      <trkpt lat="47.02468" lon="6.79979">
        <ele>1029.5999999908</ele>
        <time>2021-06-28T12:37:52.013Z</time>
      </trkpt>
      <trkpt lat="47.02474" lon="6.79985">
        <ele>1029.32</ele>
        <time>2021-06-28T12:37:53.677Z</time>
      </trkpt>
      <trkpt lat="47.02481" lon="6.79989">
        <ele>1028.5300000201</ele>
        <time>2021-06-28T12:37:55.155Z</time>
      </trkpt>
      <trkpt lat="47.02504" lon="6.8">
        <ele>1026.7499999914</ele>
        <time>2021-06-28T12:37:59.917Z</time>
      </trkpt>
      <trkpt lat="47.02514" lon="6.80005">
        <ele>1026.3500000011</ele>
        <time>2021-06-28T12:38:02.355Z</time>
      </trkpt>
      <trkpt lat="47.02529" lon="6.80014">
        <ele>1026</ele>
        <time>2021-06-28T12:38:06.793Z</time>
      </trkpt>
      <trkpt lat="47.02529" lon="6.80014">
        <ele>1026</ele>
        <time>2021-06-28T12:38:06.793Z</time>
      </trkpt>
      <trkpt lat="47.02529" lon="6.80015">
        <ele>1026</ele>
        <time>2021-06-28T12:38:07.262Z</time>
      </trkpt>
      <trkpt lat="47.02529" lon="6.80014">
        <ele>1026</ele>
        <time>2021-06-28T12:38:07.731Z</time>
      </trkpt>
      <trkpt lat="47.02529" lon="6.80014">
        <ele>1026</ele>
        <time>2021-06-28T12:38:07.731Z</time>
      </trkpt>
      <trkpt lat="47.02551" lon="6.80032">
        <ele>1025.8599999995</ele>
        <time>2021-06-28T12:38:26.661Z</time>
      </trkpt>
      <trkpt lat="47.02569" lon="6.80046">
        <ele>1025.7199999979</ele>
        <time>2021-06-28T12:38:41.692Z</time>
      </trkpt>
      <trkpt lat="47.0258" lon="6.80054">
        <ele>1025.519999998</ele>
        <time>2021-06-28T12:38:45.274Z</time>
      </trkpt>
      <trkpt lat="47.0259" lon="6.80059">
        <ele>1025.35</ele>
        <time>2021-06-28T12:38:48.363Z</time>
      </trkpt>
      <trkpt lat="47.02607" lon="6.80068">
        <ele>1025.29</ele>
        <time>2021-06-28T12:39:02.387Z</time>
      </trkpt>
      <trkpt lat="47.02619" lon="6.80074">
        <ele>1025.3499999986</ele>
        <time>2021-06-28T12:39:13.194Z</time>
      </trkpt>
      <trkpt lat="47.02625" lon="6.80078">
        <ele>1025.240000001</ele>
        <time>2021-06-28T12:39:15.107Z</time>
      </trkpt>
      <trkpt lat="47.02634" lon="6.80086">
        <ele>1025.1199999958</ele>
        <time>2021-06-28T12:39:18.372Z</time>
      </trkpt>
      <trkpt lat="47.02637" lon="6.80089">
        <ele>1025.08</ele>
        <time>2021-06-28T12:39:19.505Z</time>
      </trkpt>
      <trkpt lat="47.02688" lon="6.80143">
        <ele>1025.11</ele>
        <time>2021-06-28T12:40:11.019Z</time>
      </trkpt>
      <trkpt lat="47.02694" lon="6.8015">
        <ele>1025.1</ele>
        <time>2021-06-28T12:40:17.148Z</time>
      </trkpt>
      <trkpt lat="47.02734" lon="6.80192">
        <ele>1025.16</ele>
        <time>2021-06-28T12:40:57.713Z</time>
      </trkpt>
      <trkpt lat="47.02748" lon="6.80206">
        <ele>1025.06</ele>
        <time>2021-06-28T12:41:10.383Z</time>
      </trkpt>
      <trkpt lat="47.02761" lon="6.80216">
        <ele>1025.01</ele>
        <time>2021-06-28T12:41:21.759Z</time>
      </trkpt>
      <trkpt lat="47.02767" lon="6.8022">
        <ele>1025.01</ele>
        <time>2021-06-28T12:41:27.134Z</time>
      </trkpt>
      <trkpt lat="47.02781" lon="6.80227">
        <ele>1024.9000000018</ele>
        <time>2021-06-28T12:41:31.974Z</time>
      </trkpt>
      <trkpt lat="47.02801" lon="6.80236">
        <ele>1024.88</ele>
        <time>2021-06-28T12:41:48.786Z</time>
      </trkpt>
      <trkpt lat="47.0281" lon="6.80241">
        <ele>1024.97</ele>
        <time>2021-06-28T12:41:57.369Z</time>
      </trkpt>
      <trkpt lat="47.02812" lon="6.80242">
        <ele>1024.97</ele>
        <time>2021-06-28T12:41:59.092Z</time>
      </trkpt>
      <trkpt lat="47.02826" lon="6.80251">
        <ele>1024.95</ele>
        <time>2021-06-28T12:42:11.312Z</time>
      </trkpt>
      <trkpt lat="47.02836" lon="6.8026">
        <ele>1024.9299999997</ele>
        <time>2021-06-28T12:42:20.635Z</time>
      </trkpt>
      <trkpt lat="47.02842" lon="6.80266">
        <ele>1024.92</ele>
        <time>2021-06-28T12:42:26.434Z</time>
      </trkpt>
      <trkpt lat="47.0286" lon="6.80284">
        <ele>1025.0999999995</ele>
        <time>2021-06-28T12:42:45.652Z</time>
      </trkpt>
      <trkpt lat="47.029" lon="6.80322">
        <ele>1025.3599999989</ele>
        <time>2021-06-28T12:43:26.556Z</time>
      </trkpt>
      <trkpt lat="47.02933" lon="6.80378">
        <ele>1026.0900000057</ele>
        <time>2021-06-28T12:44:13.988Z</time>
      </trkpt>
      <trkpt lat="47.02962" lon="6.80425">
        <ele>1026.83</ele>
        <time>2021-06-28T12:44:55.781Z</time>
      </trkpt>
      <trkpt lat="47.02976" lon="6.80448">
        <ele>1027.23</ele>
        <time>2021-06-28T12:45:16.539Z</time>
      </trkpt>
      <trkpt lat="47.02985" lon="6.80461">
        <ele>1027.3199999959</ele>
        <time>2021-06-28T12:45:27.557Z</time>
      </trkpt>
      <trkpt lat="47.03002" lon="6.80486">
        <ele>1027.99</ele>
        <time>2021-06-28T12:45:53.903Z</time>
      </trkpt>
      <trkpt lat="47.0301" lon="6.80496">
        <ele>1028.27</ele>
        <time>2021-06-28T12:46:05.239Z</time>
      </trkpt>
      <trkpt lat="47.03016" lon="6.80502">
        <ele>1028.39</ele>
        <time>2021-06-28T12:46:12.217Z</time>
      </trkpt>
      <trkpt lat="47.03018" lon="6.80504">
        <ele>1028.31</ele>
        <time>2021-06-28T12:46:12.803Z</time>
      </trkpt>
      <trkpt lat="47.03032" lon="6.80515">
        <ele>1028.5299999988</ele>
        <time>2021-06-28T12:46:27.635Z</time>
      </trkpt>
      <trkpt lat="47.03124" lon="6.80578">
        <ele>1029.38</ele>
        <time>2021-06-28T12:47:57.303Z</time>
      </trkpt>
      <trkpt lat="47.03124" lon="6.80579">
        <ele>1029.38</ele>
        <time>2021-06-28T12:47:57.805Z</time>
      </trkpt>
      <trkpt lat="47.03124" lon="6.80578">
        <ele>1029.38</ele>
        <time>2021-06-28T12:47:58.307Z</time>
      </trkpt>
      <trkpt lat="47.03126" lon="6.8058">
        <ele>1030.22</ele>
        <time>2021-06-28T12:48:05.920Z</time>
      </trkpt>
      <trkpt lat="47.03142" lon="6.80593">
        <ele>1030.86</ele>
        <time>2021-06-28T12:48:27.870Z</time>
      </trkpt>
      <trkpt lat="47.03148" lon="6.80599">
        <ele>1031.21</ele>
        <time>2021-06-28T12:48:38.102Z</time>
      </trkpt>
      <trkpt lat="47.03152" lon="6.80606">
        <ele>1031.6899999825</ele>
        <time>2021-06-28T12:48:48.896Z</time>
      </trkpt>
      <trkpt lat="47.03157" lon="6.80615">
        <ele>1032.11</ele>
        <time>2021-06-28T12:49:00.412Z</time>
      </trkpt>
      <trkpt lat="47.0316" lon="6.80624">
        <ele>1032.58</ele>
        <time>2021-06-28T12:49:11.519Z</time>
      </trkpt>
      <trkpt lat="47.03163" lon="6.80636">
        <ele>1033.2399999601</ele>
        <time>2021-06-28T12:49:26.463Z</time>
      </trkpt>
      <trkpt lat="47.03165" lon="6.80654">
        <ele>1033.96</ele>
        <time>2021-06-28T12:49:45.158Z</time>
      </trkpt>
      <trkpt lat="47.03167" lon="6.80663">
        <ele>1034.5599999826</ele>
        <time>2021-06-28T12:49:57.966Z</time>
      </trkpt>
      <trkpt lat="47.03172" lon="6.80673">
        <ele>1035.1</ele>
        <time>2021-06-28T12:50:11.225Z</time>
      </trkpt>
      <trkpt lat="47.03188" lon="6.80696">
        <ele>1036.6300000072</ele>
        <time>2021-06-28T12:50:47.516Z</time>
      </trkpt>
      <trkpt lat="47.03191" lon="6.80704">
        <ele>1036.86</ele>
        <time>2021-06-28T12:50:55.188Z</time>
      </trkpt>
      <trkpt lat="47.03193" lon="6.8071">
        <ele>1037.0199999921</ele>
        <time>2021-06-28T12:51:00.663Z</time>
      </trkpt>
      <trkpt lat="47.03195" lon="6.80719">
        <ele>1037.64</ele>
        <time>2021-06-28T12:51:13.843Z</time>
      </trkpt>
      <trkpt lat="47.03199" lon="6.80741">
        <ele>1038.58</ele>
        <time>2021-06-28T12:51:37.618Z</time>
      </trkpt>
      <trkpt lat="47.032" lon="6.80747">
        <ele>1038.8800000571</ele>
        <time>2021-06-28T12:51:44.593Z</time>
      </trkpt>
      <trkpt lat="47.03202" lon="6.80751">
        <ele>1039.34</ele>
        <time>2021-06-28T12:51:55.228Z</time>
      </trkpt>
      <trkpt lat="47.03212" lon="6.80766">
        <ele>1040.1299999716</ele>
        <time>2021-06-28T12:52:16.345Z</time>
      </trkpt>
      <trkpt lat="47.03223" lon="6.80788">
        <ele>1041.03</ele>
        <time>2021-06-28T12:52:42.585Z</time>
      </trkpt>
      <trkpt lat="47.03227" lon="6.80798">
        <ele>1041.4599999998</ele>
        <time>2021-06-28T12:52:54.189Z</time>
      </trkpt>
      <trkpt lat="47.03231" lon="6.80805">
        <ele>1041.45</ele>
        <time>2021-06-28T12:52:59.144Z</time>
      </trkpt>
      <trkpt lat="47.03256" lon="6.80834">
        <ele>1042.52</ele>
        <time>2021-06-28T12:53:36.674Z</time>
      </trkpt>
      <trkpt lat="47.03295" lon="6.80883">
        <ele>1044.64</ele>
        <time>2021-06-28T12:54:44.010Z</time>
      </trkpt>
      <trkpt lat="47.03324" lon="6.80922">
        <ele>1045.7900000015</ele>
        <time>2021-06-28T12:55:27.821Z</time>
      </trkpt>
      <trkpt lat="47.03353" lon="6.8096">
        <ele>1046.67</ele>
        <time>2021-06-28T12:56:07.819Z</time>
      </trkpt>
      <trkpt lat="47.03372" lon="6.8098">
        <ele>1046.709999999</ele>
        <time>2021-06-28T12:56:27.191Z</time>
      </trkpt>
      <trkpt lat="47.03409" lon="6.81021">
        <ele>1046.13</ele>
        <time>2021-06-28T12:56:41.374Z</time>
      </trkpt>
      <trkpt lat="47.03426" lon="6.81038">
        <ele>1046.26</ele>
        <time>2021-06-28T12:56:59.181Z</time>
      </trkpt>
      <trkpt lat="47.03438" lon="6.81049">
        <ele>1046.53</ele>
        <time>2021-06-28T12:57:13.163Z</time>
      </trkpt>
      <trkpt lat="47.03451" lon="6.81059">
        <ele>1046.56</ele>
        <time>2021-06-28T12:57:25.361Z</time>
      </trkpt>
      <trkpt lat="47.03467" lon="6.8107">
        <ele>1046.29</ele>
        <time>2021-06-28T12:57:30.580Z</time>
      </trkpt>
      <trkpt lat="47.03488" lon="6.81083">
        <ele>1046.3199999977</ele>
        <time>2021-06-28T12:57:49.393Z</time>
      </trkpt>
      <trkpt lat="47.03507" lon="6.81093">
        <ele>1046.21</ele>
        <time>2021-06-28T12:58:04.585Z</time>
      </trkpt>
      <trkpt lat="47.03507" lon="6.81093">
        <ele>1046.21</ele>
        <time>2021-06-28T12:58:04.787Z</time>
      </trkpt>
      <trkpt lat="47.03507" lon="6.81093">
        <ele>1046.21</ele>
        <time>2021-06-28T12:58:04.990Z</time>
      </trkpt>
      <trkpt lat="47.03527" lon="6.81103">
        <ele>1046.09</ele>
        <time>2021-06-28T12:58:20.841Z</time>
      </trkpt>
      <trkpt lat="47.03553" lon="6.81115">
        <ele>1045.849999999</ele>
        <time>2021-06-28T12:58:29.595Z</time>
      </trkpt>
      <trkpt lat="47.03574" lon="6.81125">
        <ele>1045.76</ele>
        <time>2021-06-28T12:58:46.540Z</time>
      </trkpt>
      <trkpt lat="47.03599" lon="6.81142">
        <ele>1045.66</ele>
        <time>2021-06-28T12:59:07.826Z</time>
      </trkpt>
      <trkpt lat="47.03636" lon="6.8117">
        <ele>1045.9</ele>
        <time>2021-06-28T12:59:43.667Z</time>
      </trkpt>
      <trkpt lat="47.03659" lon="6.8119">
        <ele>1045.81</ele>
        <time>2021-06-28T13:00:04.399Z</time>
      </trkpt>
      <trkpt lat="47.03689" lon="6.81215">
        <ele>1045.9699999999</ele>
        <time>2021-06-28T13:00:33.781Z</time>
      </trkpt>
      <trkpt lat="47.03704" lon="6.81225">
        <ele>1045.96</ele>
        <time>2021-06-28T13:00:47.092Z</time>
      </trkpt>
      <trkpt lat="47.03717" lon="6.81233">
        <ele>1045.96</ele>
        <time>2021-06-28T13:00:58.588Z</time>
      </trkpt>
      <trkpt lat="47.03737" lon="6.81244">
        <ele>1045.63</ele>
        <time>2021-06-28T13:01:04.883Z</time>
      </trkpt>
      <trkpt lat="47.03759" lon="6.81254">
        <ele>1045.13</ele>
        <time>2021-06-28T13:01:11.183Z</time>
      </trkpt>
      <trkpt lat="47.03776" lon="6.8126">
        <ele>1044.4399999925</ele>
        <time>2021-06-28T13:01:15.155Z</time>
      </trkpt>
      <trkpt lat="47.03783" lon="6.81261">
        <ele>1044.0599999957</ele>
        <time>2021-06-28T13:01:16.557Z</time>
      </trkpt>
      <trkpt lat="47.03789" lon="6.8126">
        <ele>1043.7</ele>
        <time>2021-06-28T13:01:17.708Z</time>
      </trkpt>
      <trkpt lat="47.03794" lon="6.81258">
        <ele>1043.2999999897</ele>
        <time>2021-06-28T13:01:18.728Z</time>
      </trkpt>
      <trkpt lat="47.03798" lon="6.81256">
        <ele>1043.0600000031</ele>
        <time>2021-06-28T13:01:19.552Z</time>
      </trkpt>
      <trkpt lat="47.03802" lon="6.81252">
        <ele>1042.5899999872</ele>
        <time>2021-06-28T13:01:20.504Z</time>
      </trkpt>
      <trkpt lat="47.03805" lon="6.81247">
        <ele>1042.32</ele>
        <time>2021-06-28T13:01:21.370Z</time>
      </trkpt>
      <trkpt lat="47.03811" lon="6.81237">
        <ele>1042.0100000118</ele>
        <time>2021-06-28T13:01:23.543Z</time>
      </trkpt>
      <trkpt lat="47.03822" lon="6.81218">
        <ele>1042.0499999994</ele>
        <time>2021-06-28T13:01:37.703Z</time>
      </trkpt>
      <trkpt lat="47.03845" lon="6.8118">
        <ele>1041.420000002</ele>
        <time>2021-06-28T13:01:47.577Z</time>
      </trkpt>
      <trkpt lat="47.03857" lon="6.81162">
        <ele>1041.5800000039</ele>
        <time>2021-06-28T13:02:02.877Z</time>
      </trkpt>
      <trkpt lat="47.03865" lon="6.81148">
        <ele>1041.71</ele>
        <time>2021-06-28T13:02:14.105Z</time>
      </trkpt>
      <trkpt lat="47.03869" lon="6.81142">
        <ele>1041.45</ele>
        <time>2021-06-28T13:02:15.334Z</time>
      </trkpt>
      <trkpt lat="47.03873" lon="6.81152">
        <ele>1041.5699999992</ele>
        <time>2021-06-28T13:02:22.819Z</time>
      </trkpt>
      <trkpt lat="47.03886" lon="6.8118">
        <ele>1042.27</ele>
        <time>2021-06-28T13:02:48.886Z</time>
      </trkpt>
      <trkpt lat="47.03892" lon="6.81192">
        <ele>1042.6</ele>
        <time>2021-06-28T13:03:00.668Z</time>
      </trkpt>
      <trkpt lat="47.03893" lon="6.81192">
        <ele>1042.6</ele>
        <time>2021-06-28T13:03:01.371Z</time>
      </trkpt>
    </trkseg>
  </trk>
</gpx>